[[{"header":{"parameterUnit":"m.s-1","parameterCategory":1,"la1":31.0,"la2":29.5877,"lo1":-88.7671,"lo2":-86.6584,"dy":0.0162,"dx":0.0185,"nx":115,"ny":88,"refTime":"2023-10-02T18:00:00:Z","depth":0,"parameterNumber":2,"parameterNumberName":"U-component_of_WINDS"},"data":[0.0,0.0,0.0,0.0,0.0,0.0,0.0,0.0,0.0,0.0,0.0,0.0,0.0,0.0,0.0,0.0,0.0,0.0,0.0,0.0,0.0,0.0,0.0,0.0,0.0,0.0,0.0,0.0,0.0,0.0,0.0,0.0,0.0,0.0,0.0,0.0,0.0,0.0,0.0,0.0,0.0,0.0,0.0,0.0,0.0,0.0,0.0,0.0,0.0,0.0,0.0,0.0,0.0,0.0,0.0,0.0,0.0,0.0,0.0,0.0,0.0,0.0,0.0,0.0,0.0,0.0,0.0,0.0,0.0,0.0,0.0,0.0,0.0,0.0,0.0,0.0,0.0,0.0,0.0,0.0,0.0,0.0,0.0,0.0,0.0,0.0,0.0,0.0,0.0,0.0,0.0,0.0,0.0,0.0,0.0,0.0,0.0,0.0,0.0,0.0,0.0,0.0,0.0,0.0,0.0,0.0,0.0,0.0,0.0,0.0,0.0,0.0,0.0,0.0,0.0,0.0,0.0,0.0,0.0,0.0,0.0,0.0,0.0,0.0,0.0,0.0,0.0,0.0,0.0,0.0,0.0,0.0,0.0,0.0,0.0,0.0,0.0,0.0,0.0,0.0,0.0,0.0,0.0,0.0,0.0,0.0,0.0,0.0,0.0,0.0,0.0,0.0,0.0,0.0,0.0,0.0,0.0,0.0,0.0,0.0,0.0,0.0,0.0,0.0,0.0,0.0,0.0,0.0,0.0,0.0,0.0,0.0,0.0,0.0,0.0,0.0,0.0,0.0,0.0,0.0,0.0,0.0,0.0,0.0,0.0,0.0,0.0,0.0,0.0,0.0,0.0,0.0,0.0,0.0,0.0,0.0,0.0,0.0,0.0,0.0,0.0,0.0,0.0,0.0,0.0,0.0,0.0,0.0,0.0,0.0,0.0,0.0,0.0,0.0,0.0,0.0,0.0,0.0,0.0,0.0,0.0,0.0,0.0,0.0,0.0,0.0,0.0,0.0,0.0,0.0,0.0,0.0,0.0,0.0,0.0,0.0,0.0,0.0,0.0,0.0,0.0,0.0,0.0,0.0,0.0,0.0,0.0,0.0,0.0,0.0,0.0,0.0,0.0,0.0,0.0,0.0,0.0,0.0,0.0,0.0,0.0,0.0,0.0,0.0,0.0,0.0,0.0,0.0,0.0,0.0,0.0,0.0,0.0,0.0,0.0,0.0,0.0,0.0,0.0,0.0,0.0,0.0,0.0,0.0,0.0,0.0,0.0,0.0,0.0,0.0,0.0,0.0,0.0,0.0,0.0,0.0,0.0,0.0,0.0,0.0,0.0,0.0,0.0,0.0,0.0,0.0,0.0,0.0,0.0,0.0,0.0,0.0,0.0,0.0,0.0,0.0,0.0,0.0,0.0,0.0,0.0,0.0,0.0,0.0,0.0,0.0,0.0,0.0,0.0,0.0,0.0,0.0,0.0,0.0,0.0,0.0,0.0,0.0,0.0,0.0,0.0,0.0,0.0,0.0,0.0,0.0,0.0,0.0,0.0,0.0,0.0,0.0,0.0,0.0,0.0,0.0,0.0,0.0,0.0,0.0,0.0,0.0,0.0,0.0,0.0,0.0,0.0,0.0,0.0,0.0,0.0,0.0,0.0,0.0,0.0,0.0,0.0,0.0,0.0,0.0,0.0,0.0,0.0,0.0,0.0,0.0,0.0,0.0,0.0,0.0,0.0,0.0,0.0,0.0,0.0,0.0,0.0,0.0,0.0,0.0,0.0,0.0,0.0,0.0,0.0,0.0,0.0,0.0,0.0,0.0,0.0,0.0,0.0,0.0,0.0,0.0,0.0,0.0,0.0,0.0,0.0,0.0,0.0,0.0,0.0,0.0,0.0,0.0,0.0,0.0,0.0,0.0,0.0,0.0,0.0,0.0,0.0,0.0,0.0,0.0,0.0,0.0,0.0,0.0,0.0,0.0,0.0,0.0,0.0,0.0,0.0,0.0,0.0,0.0,0.0,0.0,0.0,0.0,0.0,0.0,0.0,0.0,0.0,0.0,0.0,0.0,0.0,0.0,0.0,0.0,0.0,0.0,0.0,0.0,0.0,0.0,0.0,0.0,0.0,0.0,0.0,0.0,0.0,0.0,0.0,0.0,0.0,0.0,0.0,0.0,0.0,0.0,0.0,0.0,0.0,0.0,0.0,0.0,0.0,0.0,0.0,0.0,0.0,0.0,0.0,0.0,0.0,0.0,0.0,0.0,0.0,0.0,0.0,0.0,0.0,0.0,0.0,0.0,0.0,0.0,0.0,0.0,0.0,0.0,0.0,0.0,0.0,0.0,0.0,0.0,0.0,0.0,0.0,0.0,0.0,0.0,0.0,0.0,0.0,0.0,0.0,0.0,0.0,0.0,0.0,0.0,0.0,0.0,0.0,0.0,0.0,0.0,0.0,0.0,0.0,0.0,0.0,0.0,0.0,0.0,0.0,0.0,0.0,0.0,0.0,0.0,0.0,0.0,0.0,0.0,0.0,0.0,0.0,0.0,0.0,0.0,0.0,0.0,0.0,0.0,0.0,0.0,0.0,0.0,0.0,0.0,0.0,0.0,0.0,0.0,0.0,0.0,0.0,0.0,0.0,0.0,0.0,0.0,0.0,0.0,0.0,0.0,0.0,0.0,0.0,0.0,0.0,0.0,0.0,0.0,0.0,0.0,0.0,0.0,0.0,0.0,0.0,0.0,0.0,0.0,0.0,0.0,0.0,0.0,0.0,0.0,0.0,0.0,0.0,0.0,0.0,0.0,0.0,0.0,0.0,0.0,0.0,0.0,0.0,0.0,0.0,0.0,0.0,0.0,0.0,0.0,0.0,0.0,0.0,0.0,0.0,0.0,0.0,0.0,0.0,0.0,0.0,0.0,0.0,0.0,0.0,0.0,0.0,0.0,0.0,0.0,0.0,0.0,0.0,0.0,0.0,0.0,0.0,0.0,0.0,0.0,0.0,0.0,0.0,0.0,0.0,0.0,0.0,0.0,0.0,0.0,0.0,0.0,0.0,0.0,0.0,0.0,0.0,0.0,0.0,0.0,0.0,0.0,0.0,0.0,0.0,0.0,0.0,0.0,0.0,0.0,0.0,0.0,0.0,0.0,0.0,0.0,0.0,0.0,0.0,0.0,0.0,0.0,0.0,0.0,0.0,0.0,0.0,0.0,0.0,0.0,0.0,0.0,0.0,0.0,0.0,0.0,0.0,0.0,0.0,0.0,0.0,0.0,0.0,0.0,0.0,0.0,0.0,0.0,0.0,0.0,0.0,0.0,0.0,0.0,0.0,0.0,0.0,0.0,0.0,0.0,0.0,0.0,0.0,0.0,0.0,0.0,0.0,0.0,0.0,0.0,0.0,0.0,0.0,0.0,0.0,0.0,0.0,0.0,0.0,0.0,0.0,0.0,0.0,0.0,0.0,0.0,0.0,0.0,0.0,0.0,0.0,0.0,0.0,0.0,0.0,0.0,0.0,0.0,0.0,0.0,0.0,0.0,0.0,0.0,0.0,0.0,0.0,0.0,0.0,0.0,0.0,0.0,0.0,0.0,0.0,0.0,0.0,0.0,0.0,0.0,0.0,0.0,0.0,0.0,0.0,0.0,0.0,0.0,0.0,0.0,0.0,0.0,0.0,0.0,0.0,0.0,0.0,0.0,0.0,0.0,0.0,0.0,0.0,0.0,0.0,0.0,0.0,0.0,0.0,0.0,0.0,0.0,0.0,0.0,0.0,0.0,0.0,0.0,0.0,0.0,0.0,0.0,0.0,0.0,0.0,0.0,0.0,0.0,0.0,0.0,0.0,0.0,0.0,0.0,0.0,0.0,0.0,0.0,0.0,0.0,0.0,0.0,0.0,0.0,0.0,0.0,0.0,0.0,0.0,0.0,0.0,0.0,0.0,0.0,0.0,0.0,0.0,0.0,0.0,0.0,0.0,0.0,0.0,0.0,0.0,0.0,0.0,0.0,0.0,0.0,0.0,0.0,0.0,0.0,0.0,0.0,0.0,0.0,0.0,0.0,0.0,0.0,0.0,0.0,0.0,0.0,0.0,0.0,0.0,0.0,0.0,0.0,0.0,0.0,0.0,0.0,0.0,0.0,0.0,0.0,0.0,0.0,0.0,0.0,0.0,0.0,0.0,0.0,0.0,0.0,0.0,0.0,0.0,0.0,0.0,0.0,0.0,0.0,0.0,0.0,0.0,0.0,0.0,0.0,0.0,0.0,0.0,0.0,0.0,0.0,0.4783,0.0,0.0,0.0,0.0,0.0,0.0,0.0,0.0,0.0,0.0,0.0,0.0,0.0,0.0,0.0,0.0,0.0,0.0,0.0,0.0,0.0,0.0,0.0,0.0,0.0,0.0,0.0,0.0,0.0,0.0,0.0,0.0,0.0,0.0,0.0,0.0,0.0,0.0,0.0,0.0,0.0,0.0,0.0,0.0,0.0,0.0,0.0,0.0,0.0,0.0,0.0,0.0,0.0,0.0,0.0,0.0,0.0,0.0,0.0,0.0,0.0,0.0,0.0,0.0,0.0,0.0,0.0,0.0,0.0,0.0,0.0,0.0,0.0,0.0,0.0,0.0,0.0,0.0,0.0,0.0,0.0,0.0,0.0,0.0,0.0,0.0,0.0,0.0,0.0,0.0,0.0,0.0,0.0,0.0,0.0,0.0,0.0,0.0,0.0,0.0,0.0,0.0,0.0,0.0,0.0,0.0,0.0,0.0,0.0,0.0,0.4788,0.4788,0.4788,0.4788,0.4788,0.0,0.0,0.0,0.0,0.0,0.0,0.0,0.0,0.0,0.0,0.0,0.0,0.0,0.0,0.0,0.0,0.0,0.0,0.0,0.0,0.0,0.0,0.0,0.0,0.0,0.0,0.0,0.0,0.0,0.0,0.0,0.0,0.0,0.0,0.0,0.0,0.0,0.0,0.0,0.0,0.0,0.0,0.0,0.0,0.0,0.0,0.0,0.0,0.0,0.0,0.0,0.0,0.0,0.0,0.0,0.0,0.0,0.0,0.0,0.0,0.0,0.0,0.0,0.0,0.0,0.0,0.0,0.0,0.0,0.0,0.0,0.0,0.0,0.0,0.0,0.0,0.0,0.0,0.0,0.0,0.0,0.0,0.0,0.0,0.0,0.0,0.0,0.0,0.0,0.0,0.0,0.0,0.0,0.0,0.0,0.0,0.0,0.0,0.0,0.0,0.0,0.0,0.0,0.0,0.0,0.0,0.0,0.0,0.0,0.0,0.0,0.0,0.5025,0.503,0.4934,0.0,0.0,0.0,0.0,0.0,0.0,0.0,0.0,0.0,0.0,0.0,0.0,0.0,0.0,0.0,0.0,0.0,0.0,0.0,0.0,0.0,0.0,0.0,0.0,0.0,0.0,0.0,0.0,0.0,0.0,0.0,0.0,0.0,0.0,0.0,0.0,0.0,0.0,0.0,0.0,0.0,0.0,0.0,0.0,0.0,0.0,0.0,0.0,0.0,0.0,0.0,0.0,0.0,0.0,0.0,0.0,0.0,0.0,0.0,0.0,0.0,0.0,0.0,0.0,0.0,0.0,0.0,0.0,0.0,0.0,0.0,0.0,0.0,0.0,0.0,0.0,0.0,0.0,0.0,0.0,0.0,0.0,0.0,0.0,0.0,0.0,0.0,0.0,0.0,0.0,0.0,0.0,0.0,0.0,0.0,0.0,0.0,0.0,0.0,0.0,0.0,0.0,0.0,0.0,0.0,0.0,0.0,0.0,0.0,0.0,0.5362,0.5351,0.5686,0.0,0.5381,0.0,0.0,0.0,0.0,0.0,0.0,0.0,0.0,0.0,0.0,0.0,0.0,0.0,0.0,0.0,0.0,0.0,0.0,0.0,0.0,0.0,0.0,0.0,0.0,0.0,0.0,0.0,0.0,0.0,0.0,0.0,0.0,0.0,0.0,0.0,0.0,0.0,0.0,0.0,0.0,0.0,0.0,0.0,0.0,0.0,0.0,0.0,0.0,0.0,0.0,0.0,0.0,0.0,0.0,0.0,0.0,0.0,0.0,0.0,0.0,0.0,0.0,0.0,0.0,0.0,0.0,0.0,0.0,0.0,0.0,0.0,0.0,0.0,0.0,0.0,0.0,0.0,0.0,0.0,0.0,0.0,0.0,0.0,0.0,0.0,0.0,0.0,0.0,0.0,0.0,0.0,0.0,0.0,0.0,0.0,0.0,0.0,0.0,0.0,0.0,0.0,0.0,0.0,0.0,0.0,0.0,0.0,0.0,0.0,0.0,0.551,0.5753,0.5929,0.5808,0.0,0.0,0.0,0.0,0.0,0.0,0.0,0.0,0.0,0.0,0.0,0.0,0.0,0.0,0.0,0.0,0.0,0.0,0.0,0.0,0.0,0.0,0.0,0.0,0.0,0.0,0.0,0.0,0.0,0.0,0.0,0.0,0.0,0.0,0.0,0.0,0.0,0.0,0.0,0.0,0.0,0.0,0.0,0.0,0.0,0.0,0.0,0.0,0.0,0.0,0.0,0.0,0.0,0.0,0.0,0.0,0.0,0.0,0.0,0.0,0.0,0.0,0.0,0.0,0.0,0.0,0.0,0.0,0.0,0.0,0.0,0.0,0.0,0.0,0.0,0.0,0.0,0.0,0.0,0.0,0.0,0.0,0.0,0.0,0.0,0.0,0.0,0.0,0.0,0.0,0.0,0.0,0.0,0.0,0.0,0.0,0.0,0.0,0.0,0.0,0.0,0.0,0.0,0.0,0.0,0.0,0.0,0.0,0.0,0.0,0.551,0.5826,0.6313,0.6343,0.6094,0.5589,0.0,0.0,0.0,0.0,0.0,0.0,0.0,0.0,0.0,0.0,0.0,0.0,0.0,0.0,0.0,0.0,0.0,0.0,0.0,0.0,0.0,0.0,0.0,0.0,0.0,0.0,0.0,0.0,0.0,0.0,0.0,0.0,0.0,0.0,0.0,0.0,0.0,0.0,0.0,0.0,0.0,0.0,0.0,0.0,0.0,0.0,0.0,0.0,0.0,0.0,0.0,0.0,0.0,0.0,0.0,0.0,0.0,0.0,0.0,0.0,0.0,0.0,0.0,0.0,0.0,0.0,0.0,0.0,0.0,0.0,0.0,0.0,0.0,0.0,0.0,0.0,0.0,0.0,0.0,0.0,0.0,0.0,0.0,0.0,0.0,0.0,0.0,0.0,0.0,0.0,0.0,0.0,0.0,0.0,0.0,0.0,0.0,0.0,0.0,0.0,0.0,0.0,0.0,0.0,0.0,0.0,0.0,0.0,0.5393,0.5778,0.6343,0.7094,0.7148,0.6783,0.0,0.0,0.0,0.0,0.0,0.0,0.0,0.0,0.0,0.0,0.0,0.0,0.0,0.0,0.0,0.0,0.0,0.0,0.0,0.0,0.0,0.0,0.0,0.0,0.0,0.0,0.0,0.0,0.0,0.0,0.0,0.0,0.0,0.0,0.0,0.0,0.0,0.0,0.0,0.0,0.0,0.0,0.0,0.0,0.0,0.0,0.0,0.0,0.0,0.0,0.0,0.0,0.0,0.0,0.0,0.0,0.0,0.0,0.0,0.0,0.0,0.0,0.0,0.0,0.0,0.0,0.0,0.0,0.0,0.0,0.0,0.0,0.0,0.0,0.0,0.0,0.0,0.0,0.0,0.0,0.0,0.0,0.0,0.0,0.0,0.0,0.0,0.0,0.0,0.0,0.0,0.0,0.0,0.0,0.0,0.0,0.0,0.0,0.0,0.0,0.0,0.0,0.0,0.0,0.0,0.0,0.0,0.0,0.0,0.5808,0.6422,0.6904,0.7178,0.7196,0.6816,0.0,0.0,0.0,0.0,0.0,0.0,0.0,0.0,0.0,0.0,0.0,0.0,0.0,0.0,0.0,0.0,0.0,0.0,0.0,0.0,0.0,0.0,0.0,0.0,0.0,0.0,0.0,0.0,0.0,0.0,0.0,0.0,0.0,0.0,0.0,0.0,0.0,0.0,0.0,0.0,0.0,0.0,0.0,0.0,0.0,0.0,0.0,0.0,0.0,0.0,0.0,0.0,0.0,0.0,0.0,0.0,0.0,0.0,0.0,0.0,0.0,0.0,0.0,0.0,0.0,0.0,0.0,0.0,0.0,0.0,0.0,0.0,0.0,0.0,0.0,0.0,0.0,0.0,0.0,0.0,0.0,0.0,0.0,0.0,0.0,0.0,0.0,0.0,0.0,0.0,0.0,0.0,0.0,0.0,0.0,0.0,0.0,0.0,0.0,0.0,0.0,0.0,0.0,0.0,0.0,0.0,0.0,0.0,0.0,0.6386,0.0,0.7397,0.7381,0.7381,0.6969,0.0,0.0,0.0,0.0,0.0,0.0,0.0,0.0,0.0,0.0,0.0,0.0,0.0,0.0,0.0,0.0,0.0,0.0,0.0,0.0,0.0,0.0,0.0,0.0,0.0,0.0,0.0,0.0,0.0,0.0,0.0,0.0,0.0,0.0,0.0,0.0,0.0,0.0,0.0,0.0,0.0,0.0,0.0,0.0,0.0,0.0,0.0,0.0,0.0,0.0,0.0,0.0,0.0,0.0,0.0,0.0,0.0,0.0,0.0,0.0,0.0,0.0,0.0,0.0,0.0,0.0,0.0,0.0,0.0,0.0,0.0,0.0,0.0,0.0,0.0,0.0,0.0,0.0,0.0,0.0,0.0,0.0,0.0,0.0,0.0,0.0,0.0,0.0,0.0,0.0,0.0,0.0,0.0,0.0,0.0,0.0,0.0,0.0,0.0,0.0,0.0,0.0,0.0,0.0,0.0,0.0,0.0,0.0,0.6027,0.7167,0.7608,0.7837,0.7803,0.7819,0.7246,0.0,0.0,0.0,0.0,0.0,0.0,0.0,0.0,0.0,0.0,0.0,0.0,0.0,0.0,0.0,0.0,0.0,0.0,0.0,0.0,0.0,0.0,0.0,0.0,0.0,0.0,0.0,0.0,0.0,0.0,0.0,0.0,0.0,0.0,0.0,0.0,0.0,0.0,0.0,0.0,0.0,0.0,0.0,0.0,0.0,0.0,0.0,0.0,0.0,0.0,0.0,0.0,0.0,0.0,0.0,0.0,0.0,0.0,0.0,0.0,0.0,0.0,0.0,0.0,0.0,0.0,0.0,0.0,0.0,0.0,0.0,0.0,0.0,0.0,0.0,0.0,0.0,0.0,0.0,0.0,0.0,0.0,0.0,0.0,0.0,0.0,0.0,0.0,0.0,0.0,0.0,0.0,0.0,0.0,0.0,0.0,0.0,0.0,0.0,0.0,0.0,0.0,0.0,0.0,0.0,0.0,0.0,0.0,0.0,0.8086,0.8499,0.8692,0.8683,0.8435,0.7831,0.0,0.0,0.0,0.0,0.0,0.0,0.0,0.0,0.0,0.0,0.0,0.0,0.0,0.0,0.0,0.0,0.0,0.0,0.0,0.0,0.0,0.0,0.0,0.0,0.0,0.0,0.0,0.0,0.0,0.0,0.0,0.0,0.0,0.0,0.0,0.0,0.0,0.0,0.0,0.0,0.0,0.0,0.0,0.0,0.0,0.0,0.0,0.0,0.0,0.0,0.0,0.0,0.0,0.0,0.0,0.0,0.0,0.0,0.0,0.0,0.0,0.0,0.0,0.0,0.0,0.0,0.0,0.0,0.0,0.0,0.0,0.0,0.0,0.0,0.0,0.0,0.0,0.0,0.0,0.0,0.0,0.0,0.0,0.0,0.0,0.0,0.0,0.0,0.0,0.0,0.0,0.0,0.0,0.0,0.0,0.0,0.0,0.0,0.0,0.0,0.0,0.0,0.0,0.0,0.0,0.0,0.0,0.0,0.0,1.0264,1.0228,1.022,1.022,0.9686,0.8784,0.7462,0.0,0.0,0.0,0.0,0.0,0.0,0.0,0.0,0.0,0.0,0.0,0.0,0.0,0.0,0.0,0.0,0.0,0.0,0.0,0.0,0.0,0.0,0.0,0.0,0.0,0.0,0.0,0.0,0.0,0.0,0.0,0.0,0.0,0.0,0.0,0.0,0.0,0.0,0.0,0.0,0.0,0.0,0.0,0.0,0.0,0.0,0.0,0.0,0.0,0.0,0.0,0.0,0.0,0.0,0.0,0.0,0.0,0.0,0.0,0.0,0.0,0.0,0.0,0.0,0.0,0.0,0.0,0.0,0.0,0.0,0.0,0.0,0.0,0.0,0.0,0.0,0.0,0.0,0.0,0.0,0.0,0.0,0.0,0.0,0.0,0.0,0.0,0.0,0.0,0.0,0.0,0.0,0.0,0.0,0.0,0.0,0.0,0.0,0.0,0.0,0.0,0.0,0.0,0.0,0.0,0.0,0.0,0.0,1.3442,1.2832,1.2441,1.2257,1.1448,1.0089,0.0,0.0,0.0,0.0,0.0,0.0,0.0,0.0,0.0,0.0,0.0,0.0,0.0,0.0,0.0,0.0,0.0,0.0,0.0,0.0,0.0,0.0,0.0,0.0,0.0,0.0,0.0,0.0,0.0,0.0,0.0,0.0,0.0,0.0,0.0,0.0,0.0,0.0,0.0,0.0,0.0,0.0,0.0,0.0,0.0,0.0,0.0,0.0,0.0,0.0,0.0,0.0,0.0,0.0,0.0,0.0,0.0,0.0,0.0,0.0,0.0,0.0,0.0,0.0,0.0,0.0,0.0,0.0,0.0,0.0,0.0,0.0,0.0,0.0,0.0,0.0,0.0,0.0,0.0,0.0,0.0,0.0,0.0,0.0,0.0,0.0,0.0,0.0,0.0,0.0,0.0,0.0,0.0,0.0,0.0,0.0,0.0,0.0,0.0,0.0,0.0,0.0,0.0,0.0,0.0,0.0,0.0,0.0,0.0,1.5478,1.6762,1.6413,1.4392,1.3254,1.1871,0.0,0.0,0.0,0.0,0.0,0.0,0.0,0.0,0.0,0.0,0.0,0.0,0.0,0.0,0.0,0.0,0.0,0.0,0.0,0.0,0.0,0.0,0.0,0.0,0.0,0.0,0.0,0.0,0.0,0.0,0.0,0.0,0.0,0.0,0.0,0.0,0.0,0.0,0.0,0.0,0.0,0.0,0.0,0.0,0.0,0.0,0.0,0.0,0.0,0.0,0.0,0.0,0.0,0.0,0.0,0.0,0.0,0.0,0.0,0.0,0.0,0.0,0.0,0.0,0.0,0.0,0.0,0.0,0.0,0.0,0.0,0.0,0.0,0.0,0.0,0.0,0.0,0.0,0.0,0.0,0.0,0.0,0.0,0.0,0.0,0.0,0.0,0.0,0.0,0.0,0.0,0.0,0.0,0.0,0.0,0.0,0.0,0.0,0.0,0.0,0.0,0.0,0.0,0.0,0.0,0.0,0.0,0.0,1.4873,1.7019,1.9036,1.9181,1.7404,1.5535,1.3566,0.0,0.0,0.0,0.0,0.0,0.0,0.0,0.0,0.0,0.0,0.0,0.0,0.0,0.0,0.0,0.0,0.0,0.0,0.0,0.0,0.0,0.0,0.0,0.0,0.0,0.0,0.0,0.0,0.0,0.0,0.0,0.0,0.0,0.0,0.0,0.0,0.0,0.0,0.0,0.0,0.0,0.0,0.0,0.0,0.0,0.0,0.0,0.0,0.0,0.0,0.0,0.0,0.0,0.0,0.0,0.0,0.0,0.0,0.0,0.0,0.0,0.0,0.0,0.0,0.0,0.0,0.0,0.0,0.0,0.0,0.0,0.0,0.0,0.0,0.0,0.0,0.0,0.0,0.0,0.0,0.0,0.0,0.0,0.0,0.0,0.0,0.0,0.0,0.0,0.0,0.0,0.0,0.0,0.0,0.0,0.0,0.0,0.0,0.0,0.0,0.0,0.0,0.0,0.0,0.0,0.0,0.0,0.0,1.5847,1.8192,2.0209,2.1034,2.05,1.7972,1.5258,0.0,0.0,0.0,0.0,0.0,0.0,0.0,0.0,0.0,0.0,0.0,0.0,0.0,0.0,0.0,0.0,0.0,0.0,0.0,0.0,0.0,0.0,0.0,0.0,0.0,0.0,0.0,0.0,0.0,0.0,0.0,0.0,0.0,0.0,0.0,0.0,0.0,0.0,0.0,0.0,0.0,0.0,0.0,0.0,0.0,0.0,0.0,0.0,0.0,0.0,0.0,0.0,0.0,0.0,0.0,0.0,0.0,0.0,0.0,0.0,0.0,0.0,0.0,0.0,0.0,0.0,0.0,0.0,0.0,0.0,0.0,0.0,0.0,0.0,0.0,0.0,0.0,0.0,0.0,0.0,0.0,0.0,0.0,0.0,0.0,0.0,0.0,0.0,0.0,0.0,0.0,0.0,0.0,0.0,0.0,0.0,0.0,0.0,0.0,0.0,0.0,0.0,0.0,0.0,0.0,0.0,0.0,0.0,1.6928,1.9017,2.1013,2.1691,2.0976,1.9163,1.7018,0.0,0.0,0.0,0.0,0.0,0.0,0.0,0.0,0.0,0.0,0.0,0.0,0.0,0.0,0.0,0.0,0.0,0.0,0.0,0.0,0.0,0.0,0.0,0.0,0.0,0.0,0.0,0.0,0.0,0.0,0.0,0.0,0.0,0.0,0.0,0.0,0.0,0.0,0.0,0.0,0.0,0.0,0.0,0.0,0.0,0.0,0.0,0.0,0.7575,0.0,0.0,0.0,0.0,0.0,0.0,0.0,0.0,0.0,0.0,0.0,0.0,0.0,0.0,0.0,0.0,0.0,0.0,0.0,0.0,0.0,0.0,0.0,0.0,0.0,0.0,0.0,0.0,0.0,0.0,0.0,0.0,0.0,0.0,0.0,0.0,0.0,0.0,0.0,0.0,0.0,0.0,0.0,0.0,0.0,0.0,0.0,0.0,0.0,0.0,0.0,0.0,0.0,0.0,0.0,0.0,0.0,0.0,0.0,1.755,1.9529,2.1178,2.1819,2.1361,2.0374,1.843,0.0,0.0,0.0,0.0,0.0,0.0,0.0,0.0,0.0,0.0,0.0,0.0,0.0,0.0,0.0,0.0,0.0,0.0,0.0,0.0,0.0,0.0,0.0,0.0,0.0,0.0,0.0,0.0,0.0,0.0,0.0,0.0,0.0,0.0,0.0,0.0,0.0,0.0,0.0,0.0,0.0,0.0,0.0,0.0,0.0,0.0,0.0,0.0,0.0,0.0,0.0,0.0,0.0,0.0,0.0,0.0,0.0,0.0,0.0,0.0,0.0,0.0,0.0,0.0,0.0,0.0,0.0,0.0,0.0,0.0,0.0,0.0,0.0,0.0,0.0,0.0,0.0,0.0,0.0,0.0,0.0,0.0,0.0,0.0,0.0,0.0,0.0,0.0,0.0,0.0,0.0,0.0,0.0,0.0,0.0,0.0,0.0,0.0,0.0,0.0,0.0,0.0,0.0,0.0,0.0,0.0,0.0,1.5826,1.799,2.0003,2.1138,2.1687,2.1687,2.1251,1.9402,1.6026,0.0,0.0,0.0,0.0,0.0,0.0,0.0,0.0,0.0,0.0,0.0,0.0,0.0,0.0,0.0,0.0,0.0,0.0,0.0,0.0,0.0,0.0,0.0,0.0,0.0,0.0,0.0,0.0,0.0,0.0,0.0,0.0,0.0,0.0,0.0,0.0,0.0,0.0,0.7076,0.8041,0.0,0.0,0.0,0.0,0.0,0.0,0.0,0.0,0.891,0.0,0.0,0.0,0.0,0.0,0.0,0.0,0.0,0.0,0.0,0.0,0.0,0.0,0.0,0.0,0.0,0.0,0.0,0.0,0.0,0.0,0.0,0.0,0.0,0.0,0.0,0.0,0.0,0.0,0.0,0.0,0.0,0.0,0.0,0.0,0.0,0.0,0.0,0.0,0.0,0.0,0.0,0.0,0.0,0.0,0.0,0.0,0.0,0.0,0.0,0.0,0.0,0.0,0.0,0.0,0.0,1.4748,1.654,1.854,2.0851,2.1434,2.1687,2.1668,2.0995,1.9364,1.6798,0.0,0.0,0.0,0.0,0.0,0.0,0.0,0.0,0.0,0.0,0.0,0.0,0.0,0.0,0.0,0.0,0.0,0.0,0.0,0.0,0.0,0.0,0.0,0.0,0.0,0.0,0.0,0.0,0.0,0.0,0.0,0.0,0.0,0.0,0.0,0.0,0.0,0.0,0.0,0.8287,0.8939,0.0,0.0,0.0,0.0,0.0,0.0,0.0,0.0,0.8713,0.0,0.0,0.0,0.0,0.0,0.0,0.0,0.0,0.0,0.0,0.0,0.0,0.0,0.0,0.0,0.0,0.0,0.0,0.0,0.0,0.0,0.0,0.0,0.0,0.0,0.0,0.0,0.0,0.0,0.0,0.0,0.0,0.0,0.0,0.0,0.0,0.0,0.0,0.0,0.0,0.0,0.0,0.0,0.0,0.0,0.0,0.0,0.0,0.0,0.0,0.0,0.0,0.0,0.0,0.0,1.5022,1.7074,1.9071,2.1013,2.1508,2.1687,2.1668,2.072,1.9072,0.0,0.0,0.0,0.0,0.0,0.0,0.0,0.0,0.0,0.0,0.0,0.0,0.0,0.0,0.0,0.0,0.0,0.0,0.0,0.0,0.0,0.0,0.0,0.0,0.0,0.0,0.0,0.0,0.0,0.0,0.0,0.0,0.0,0.0,0.0,0.0,0.0,0.0,0.0,0.0,0.8997,0.936,0.9349,0.0,0.0,0.0,0.0,0.0,0.0,0.9774,0.9288,0.0,0.0,0.0,0.0,0.0,0.0,0.0,0.0,0.0,0.0,0.0,0.0,0.0,0.0,0.0,0.0,0.0,0.0,0.0,0.0,0.0,0.0,0.0,0.0,0.0,0.0,0.0,0.0,0.0,0.0,0.0,0.0,0.0,0.0,0.0,0.0,0.0,0.0,0.0,0.0,0.0,0.0,0.0,0.0,0.0,0.0,0.0,0.0,0.0,0.0,0.0,0.0,0.0,0.0,0.0,1.5297,1.755,1.9531,2.1163,2.1367,2.1441,2.1382,2.0078,1.8288,0.0,0.0,0.0,0.0,0.0,0.0,0.0,0.0,0.0,0.0,0.0,0.0,0.0,0.0,0.0,0.0,0.0,0.0,0.0,0.0,0.0,0.0,0.0,0.0,0.0,0.0,0.0,0.0,0.0,0.0,0.0,0.0,0.0,0.0,0.0,0.0,0.0,0.0,0.0,0.0,0.0,0.973,0.9626,0.9924,0.0,0.0,0.0,0.0,1.0625,1.0329,0.0,0.0,0.0,0.0,0.0,0.0,0.0,0.0,0.0,0.0,0.0,0.0,0.0,0.0,0.0,0.0,0.0,0.0,0.0,0.0,0.0,0.0,0.0,0.0,0.0,0.0,0.0,0.0,0.0,0.0,0.0,0.0,0.0,0.0,0.0,0.0,0.0,0.0,0.0,0.0,0.0,0.0,0.0,0.0,0.0,0.0,0.0,0.0,0.0,0.0,0.0,0.0,0.0,0.0,0.0,0.0,1.6085,1.7825,1.9657,2.1482,2.0849,2.0461,2.0444,1.8532,1.672,0.0,0.0,0.0,0.0,0.0,0.0,0.0,0.0,0.0,0.0,0.0,0.0,0.0,0.0,0.0,0.0,0.0,0.0,0.0,0.0,0.0,0.0,0.0,0.0,0.0,0.0,0.0,0.0,0.0,0.0,0.0,0.0,0.0,0.0,0.0,0.0,0.0,0.0,0.0,0.0,0.0,0.9694,0.992,1.0177,1.0229,0.0,0.0,1.0599,0.9586,1.0024,0.0,0.0,0.0,0.0,0.0,0.0,0.0,0.0,0.0,0.0,0.0,0.0,0.0,0.0,0.0,0.0,0.0,0.0,0.0,0.0,0.0,0.0,0.0,0.0,0.0,0.0,0.0,0.0,0.0,0.0,0.0,0.0,0.0,0.0,0.0,0.0,0.0,0.0,0.0,0.0,0.0,0.0,0.0,0.0,0.0,0.0,0.0,0.0,0.0,0.0,0.0,0.0,0.0,0.0,0.0,1.286,1.5558,1.7396,1.9191,2.0951,2.0823,2.0574,2.0286,1.8442,1.6616,0.0,0.0,0.0,0.0,0.0,0.0,0.0,0.0,0.0,0.0,0.0,0.0,0.0,0.0,0.0,0.0,0.0,0.0,0.0,0.0,0.0,0.0,0.0,0.0,0.0,0.0,0.0,0.0,0.0,0.0,0.0,0.0,0.0,0.0,0.0,0.0,0.0,0.0,0.0,0.0,0.0,0.0,0.9816,1.0029,0.0,0.0,0.0,1.0848,1.074,0.0,0.0,0.0,0.0,0.0,0.0,0.0,0.0,0.0,0.0,0.0,0.0,0.0,0.0,0.0,0.0,0.0,0.0,0.0,0.0,0.0,0.0,0.0,0.0,0.0,0.0,0.0,0.0,0.0,0.0,0.0,0.0,0.0,0.0,0.0,0.0,0.0,0.0,0.0,0.0,0.0,0.0,0.0,0.0,0.0,0.0,0.0,0.0,0.0,0.0,0.0,0.0,0.0,0.0,0.0,0.0,0.0,1.486,1.6701,1.8353,1.9807,1.9855,1.972,1.9416,1.7838,0.0,0.0,0.0,0.0,0.0,0.0,0.0,0.0,0.0,0.0,0.0,0.0,0.0,0.0,0.0,0.0,0.0,0.0,0.0,0.0,0.0,0.0,0.0,0.0,0.0,0.0,0.0,0.5918,0.0,0.0,0.0,0.0,0.0,0.0,0.0,0.0,0.0,0.0,0.0,0.0,0.0,0.0,0.9783,0.9843,1.0106,1.0269,0.0,0.0,1.0982,1.1395,1.0863,1.018,0.0,0.0,0.0,0.0,0.0,0.0,0.0,0.0,0.0,0.0,0.0,0.0,0.0,0.0,0.0,0.0,0.0,0.0,0.0,0.0,0.0,0.0,0.0,0.0,0.0,0.0,0.0,0.0,0.0,0.0,0.0,0.0,0.0,0.0,0.0,0.0,0.0,0.0,0.0,0.0,0.0,0.0,0.0,0.0,0.0,0.0,0.0,0.0,0.0,0.0,0.0,0.0,0.0,0.0,1.2411,1.4253,1.5797,1.7116,1.8103,1.7274,1.6903,1.7092,1.592,1.4742,0.0,0.0,0.0,0.0,0.0,0.0,0.0,0.0,0.0,0.0,0.0,0.0,0.0,0.0,0.0,0.0,0.0,0.0,0.0,0.0,0.0,0.0,0.0,0.0,0.0,0.0,0.0,0.0,0.0,0.0,0.0,0.0,0.0,0.0,0.0,0.0,0.0,0.0,0.0,0.0,0.0,0.9772,1.0191,1.0811,1.0963,0.0,1.0905,1.1171,1.044,1.0531,1.0255,0.9066,0.0,0.0,0.0,0.0,0.0,0.0,0.0,0.0,0.0,0.0,0.0,0.0,0.0,0.0,0.0,0.0,0.0,0.0,0.0,0.0,0.0,0.0,0.0,0.0,0.0,0.0,0.0,0.0,0.0,0.0,0.0,0.0,0.0,0.0,0.0,0.0,0.0,0.0,0.0,0.0,0.0,0.0,0.0,0.0,0.0,0.0,0.0,0.0,0.0,0.0,0.0,0.0,0.0,1.145,1.344,1.4727,1.5902,1.6965,1.6992,1.6788,1.6418,1.5756,1.475,0.0,0.0,0.0,0.0,0.0,0.0,0.0,0.0,0.0,0.0,0.0,0.0,0.0,0.0,0.0,0.0,0.0,0.0,0.0,0.0,0.0,0.0,0.0,0.0,0.0,0.0,0.0,0.0,0.9078,0.9113,0.8705,0.0,0.0,0.0,0.0,0.0,0.0,0.0,0.0,0.0,0.0,1.0172,1.0932,1.0886,0.0,0.0,1.0781,1.0846,1.04,1.0373,1.008,0.9137,0.8714,0.0,0.0,0.0,0.0,0.0,0.0,0.0,0.0,0.0,0.0,0.0,0.0,0.0,0.0,0.0,0.0,0.0,0.0,0.0,0.0,0.0,0.0,0.0,0.0,0.0,0.0,0.0,0.0,0.0,0.0,0.0,0.0,0.0,0.0,0.0,0.0,0.0,0.0,0.0,0.0,0.0,0.0,0.0,0.0,0.0,0.0,0.0,0.0,0.0,0.0,0.0,0.0,1.0886,1.2566,1.3705,1.4662,1.5505,1.6015,1.6044,1.555,1.5295,1.4636,0.0,0.0,0.0,0.0,0.0,0.0,0.0,0.0,0.0,0.0,0.0,0.0,0.0,0.0,0.0,0.0,0.0,0.0,0.0,0.0,0.0,0.0,0.0,0.0,0.0,0.0,0.0,0.0,0.9648,0.9184,0.8016,0.0,0.0,0.0,0.0,0.0,0.0,0.0,0.0,0.0,0.0,1.0194,1.094,1.0654,1.0439,1.0615,1.0673,1.0655,1.0507,1.0302,0.9895,0.9196,0.0,0.0,0.0,0.0,0.0,0.0,0.0,0.0,0.0,0.0,0.0,0.0,0.0,0.0,0.0,0.0,0.0,0.0,0.0,0.0,0.0,0.0,0.0,0.0,0.0,0.0,0.0,0.676,0.0,0.0,0.5815,0.0,0.0,0.0,0.0,0.0,0.0,0.0,0.0,0.0,0.0,0.0,0.0,0.0,0.0,0.0,0.0,0.0,0.0,0.0,0.0,0.0,0.0,1.0982,1.1632,1.2732,1.3348,1.3592,1.3848,1.4111,1.4241,1.4228,1.4126,1.3865,0.0,0.0,0.0,0.0,0.0,0.0,0.0,0.0,0.0,0.0,0.0,0.0,0.0,0.0,0.0,0.0,0.0,0.0,0.0,0.0,0.0,0.0,0.0,0.0,0.0,0.0,0.972,0.9496,0.8612,0.0,0.0,0.0,0.0,0.0,0.0,0.0,0.0,0.0,0.8759,0.9227,0.9646,0.9964,1.0167,1.0283,1.0454,1.056,1.0661,1.0625,1.0255,0.9776,0.0,0.0,0.0,0.0,0.0,0.0,0.0,0.0,0.0,0.0,0.0,0.0,0.0,0.0,0.0,0.0,0.0,0.0,0.0,0.0,0.0,0.0,0.0,0.0,0.0,0.0,0.0,0.7515,0.787,0.0,0.0,0.0,0.0,0.0,0.0,0.0,0.0,0.0,0.0,0.0,1.1018,1.0788,0.0,0.0,0.0,0.0,0.0,0.0,0.0,0.0,0.0,0.0,0.0,0.0,1.0685,1.1466,1.24,1.2982,1.3219,1.3669,1.3753,1.3488,1.3805,1.3682,1.2979,0.0,0.0,0.0,0.0,0.0,0.0,0.0,0.0,0.0,0.0,0.0,0.0,0.0,0.0,0.0,0.0,0.0,0.0,0.0,0.0,0.0,0.0,0.0,0.0,0.0,0.9169,0.0,0.0,0.0,0.0,0.0,0.0,0.0,0.0,0.0,0.0,0.8057,0.8394,0.888,0.9251,0.935,0.894,0.8938,0.8992,0.0,0.0,0.0,0.0,0.0,0.0,0.0,0.0,0.0,0.0,0.0,0.0,0.0,0.0,0.641,0.6489,0.6639,0.693,0.7489,0.0,0.0,0.0,0.0,0.0,0.0,0.0,0.0,0.0,0.0,0.0,0.0,0.0,0.0,0.861,0.8964,0.8588,0.0,0.0,0.0,0.0,0.0,0.0,0.0,0.0,1.1801,1.2184,1.2067,1.1853,1.1863,1.2023,1.1378,1.0735,0.0,0.0,0.0,0.0,0.0,0.0,0.0,0.0,1.088,1.1672,1.2441,1.294,1.3111,1.3437,1.3449,1.3123,1.3424,1.3324,1.2734,1.2126,1.147,0.0,0.0,0.0,0.0,0.0,0.0,0.0,0.0,0.0,0.0,0.0,0.0,0.0,0.0,0.0,0.0,0.0,0.0,0.0,0.0,0.0,0.0,0.0,0.9003,0.0,0.0,0.0,0.0,0.0,0.0,0.0,0.0,0.0,0.8246,0.8122,0.8136,0.8541,0.8777,0.8574,0.7607,0.0,0.0,0.0,0.0,0.0,0.0,0.0,0.6676,0.5527,0.5944,0.6431,0.6472,0.706,0.7235,0.6429,0.0,0.0,0.6951,0.6734,0.6837,0.8084,0.8137,0.8014,0.8146,0.8165,0.8219,0.0,0.0,0.0,0.0,0.7425,0.0,0.0,0.0,0.9434,0.9691,0.0,0.9673,0.0,0.0,0.0,0.0,1.0104,1.1274,0.0,0.0,1.2195,1.2555,1.2223,1.221,1.221,1.2215,1.2003,1.1958,1.2003,1.0734,0.0,0.0,0.0,0.0,0.0,0.0,1.1562,1.2203,1.2813,1.3089,1.3077,1.3123,1.3101,1.3077,1.3111,1.3099,1.3073,1.2539,1.2314,1.2445,1.0847,0.0,0.0,0.0,0.0,0.0,0.0,0.0,0.0,0.0,0.0,0.0,0.0,0.0,0.0,0.0,0.0,0.0,0.0,0.0,0.0,0.9278,0.0,0.0,0.0,0.0,0.0,0.0,0.0,0.0,0.0,0.6895,0.8548,0.7845,0.7302,0.7678,0.0,0.0,0.0,0.0,0.7269,0.601,0.601,0.6096,0.6036,0.5827,0.5512,0.5115,0.0,0.0,0.5051,0.5123,0.5182,0.5083,0.5101,0.5571,0.7027,0.6399,0.6302,0.8249,0.8613,0.8727,0.8627,0.8564,0.8887,0.9848,0.0,0.0,0.0,0.0,0.9644,1.013,1.0794,1.0826,1.0953,1.1113,1.0635,0.0,0.0,0.0,0.0,0.0,0.0,1.2283,1.1908,1.2837,1.3095,1.2777,1.2463,1.2489,1.2741,1.2279,1.2189,1.2439,1.206,1.1658,1.1324,0.0,0.0,0.0,0.0,1.2318,1.2601,1.3114,1.3292,1.3111,1.3292,1.3292,1.3111,1.3077,1.3003,1.2831,1.302,1.2948,1.2593,1.2224,0.0,0.0,0.0,0.0,0.0,0.0,0.0,0.0,0.0,0.0,0.0,0.0,0.0,0.0,0.0,0.0,0.0,0.0,0.0,0.9171,0.8823,0.8325,0.0,0.0,0.0,0.0,0.0,0.0,0.0,0.0,0.0,0.6514,0.6234,0.6065,0.0,0.0,0.5718,0.449,0.4654,0.4747,0.4392,0.3711,0.0,0.4346,0.4406,0.4003,0.3075,0.3617,0.4231,0.4314,0.5108,0.5432,0.4541,0.4395,0.4267,0.3872,0.5923,0.7231,0.703,0.683,0.6794,0.6674,0.6716,0.7163,1.1095,1.0691,1.0446,1.0458,1.0668,1.1038,1.1361,1.1682,1.1579,1.1622,1.165,1.1344,1.1213,1.1216,1.1443,0.0,0.0,0.0,1.2583,1.2066,1.2771,1.2961,1.2739,1.2628,1.2694,1.292,1.2731,1.2663,1.267,1.2912,1.2709,1.2095,0.0,1.2097,1.1888,1.2478,1.2988,1.3314,1.3533,1.3617,1.3592,1.3412,1.3268,1.3111,1.3003,1.2858,1.2711,1.3099,1.3226,1.2979,1.2949,1.2493,0.0,0.0,0.0,0.0,0.0,0.0,0.0,0.0,0.0,0.0,0.0,0.6888,0.7923,0.0,0.0,0.0,0.9647,0.9536,0.8996,0.8471,0.0,0.0,0.0,0.0,0.0,0.0,0.0,0.5407,0.5327,0.502,0.4179,0.4122,0.4334,0.4803,0.4873,0.4408,0.3201,0.0,0.3656,0.3154,0.2453,0.2244,0.2964,0.3099,0.2857,0.2168,0.2668,0.32,0.3323,0.3995,0.4199,0.3557,0.336,0.3086,0.2272,0.4284,0.5737,0.4733,0.4485,0.4776,0.5722,0.6039,0.6403,1.2141,1.2054,1.1525,1.1336,1.1424,1.1909,1.2179,1.2184,1.1977,1.1883,1.189,1.1853,1.1942,1.2154,1.2858,0.0,1.2114,1.2697,1.2539,1.1853,1.2239,1.2382,1.2391,1.2644,1.2776,1.2767,1.322,1.3202,1.2794,1.3301,1.3127,1.2239,1.2488,1.2417,1.2032,1.2743,1.3499,1.4268,1.4075,1.4063,1.4316,1.3557,1.3159,1.3171,1.2894,1.2728,1.2642,1.2883,1.3112,1.3258,1.3031,1.2928,1.2993,0.0,0.0,0.0,0.0,0.0,0.0,0.0,0.0,0.0,0.0,0.0,0.0,0.0,0.0,0.9896,0.9484,0.0,0.8761,0.8335,0.0,0.0,0.0,0.7943,0.7935,0.6984,0.6229,0.5972,0.0,0.0,0.1946,0.1904,0.2438,0.3607,0.3733,0.3353,0.2175,0.3063,0.3429,0.2317,0.2046,0.2002,0.2144,0.219,0.22,0.2135,0.2102,0.2186,0.2246,0.2291,0.2251,0.2311,0.2214,0.2234,0.2213,0.2392,0.2197,0.2369,0.2294,0.3026,0.5184,0.5806,0.5944,1.2127,1.2242,1.2197,1.2143,1.2103,1.2348,1.2663,1.2918,1.2725,1.2692,1.2776,1.2409,1.2204,1.209,1.212,1.214,1.2109,1.2409,1.2446,1.2268,1.2335,1.2382,1.2418,1.2466,1.2484,1.2494,1.2621,1.2594,1.2512,1.2635,1.2505,1.2176,1.2596,1.273,1.2541,1.3042,1.366,1.4304,1.4449,1.4533,1.4594,1.4003,1.3702,1.3725,1.3459,1.2934,1.2136,1.2344,1.2172,1.1499,1.1772,1.1644,1.0969,1.0823,0.0,0.0,0.0,0.0,0.0,0.0,0.0,0.0,0.0,0.7574,0.8851,0.0,0.9911,0.0,0.9478,0.9178,0.8957,0.8837,0.0,0.0,0.7668,0.6807,0.581,0.5656,0.4936,0.3087,0.329,0.3151,0.2031,0.1939,0.2107,0.2411,0.2502,0.2428,0.2117,0.2333,0.2447,0.2162,0.2142,0.2157,0.2157,0.2163,0.2164,0.22,0.2147,0.2127,0.2175,0.2204,0.2215,0.2256,0.2293,0.2283,0.2286,0.2256,0.2209,0.2273,0.2254,0.2372,0.3074,0.3236,0.3615,1.0404,1.0536,1.0566,1.0595,1.0725,1.2264,1.3049,1.3206,1.3048,1.3003,1.3015,1.2756,1.2655,1.2664,1.2541,1.2484,1.2446,1.2729,1.2683,1.2418,1.254,1.2503,1.2418,1.2513,1.2587,1.256,1.2645,1.2645,1.2587,1.256,1.2409,1.2117,1.2486,1.2606,1.2493,1.2999,1.3525,1.4063,1.3706,1.3384,1.3228,1.2883,1.2675,1.2591,1.2364,1.1903,1.1257,1.1482,1.1366,1.0844,1.1211,1.125,1.0839,1.0664,0.9938,0.0,0.0,0.0,0.0,0.0,0.0,0.0,0.0,0.0,0.0,0.0,0.9597,0.9572,0.9386,0.9219,0.9067,0.8399,0.7941,0.7886,0.6883,0.5954,0.5326,0.4914,0.4374,0.3709,0.3226,0.2714,0.2069,0.2014,0.2041,0.2057,0.2084,0.2132,0.2121,0.2099,0.2114,0.2128,0.2161,0.2168,0.2185,0.2189,0.2189,0.2188,0.2174,0.2151,0.2214,0.2189,0.2241,0.23,0.2275,0.2277,0.2292,0.2272,0.2257,0.2292,0.2268,0.2245,0.226,0.223,0.26,0.8334,0.8313,0.8242,0.8349,0.8718,1.1503,1.2691,1.2714,1.2532,1.2611,1.2838,1.2949,1.3172,1.3466,1.3291,1.3056,1.2739,1.291,1.2696,1.2156,1.246,1.2451,1.2091,1.2552,1.2692,1.259,1.2871,1.2843,1.259,1.2581,1.2321,1.1817,1.1963,1.2046,1.1995,1.241,1.2914,1.3425,1.2466,1.1805,1.1475,1.1339,1.1246,1.1129,1.0848,1.0597,1.0337,1.0522,1.0595,1.0461,1.0663,1.0928,1.1155,1.0372,0.975,0.0,0.8524,0.0,0.0,0.0,0.0,0.0,0.0,0.0,0.0,0.8763,0.9116,0.9357,0.9044,0.8879,0.8893,0.7494,0.6662,0.6891,0.5782,0.5129,0.5357,0.428,0.3974,0.5246,0.34,0.2029,0.2077,0.2082,0.2102,0.2094,0.2147,0.2156,0.2108,0.2105,0.212,0.2183,0.2159,0.2156,0.2182,0.2189,0.2189,0.2189,0.2188,0.22,0.2196,0.2186,0.2249,0.2285,0.2273,0.2289,0.2295,0.2296,0.2284,0.2293,0.2307,0.2279,0.2296,0.2288,0.23,0.8415,0.8459,0.8334,0.8345,0.8477,0.913,0.9522,0.9645,0.9619,1.0502,1.1987,1.2974,1.3587,1.3791,1.2802,1.229,1.2201,1.1393,1.0902,1.0661,1.138,1.125,1.0414,1.1791,1.211,1.1515,1.2183,1.2156,1.1433,1.1397,1.1034,1.0249,1.0272,1.0414,1.064,0.0,0.0,0.0,1.1722,1.1804,1.173,1.1808,1.1842,1.1795,1.144,0.0,0.9979,0.9862,0.9436,0.8583,0.8587,0.0,0.0,0.0,0.0,0.0,0.0,0.0,0.0,0.0,0.0,0.0,0.8509,0.8675,0.8542,0.8631,0.8987,0.9582,0.801,0.7195,0.7827,0.6578,0.5739,0.576,0.4729,0.4005,0.403,0.3047,0.2462,0.2683,0.2283,0.2012,0.2035,0.2071,0.2064,0.2046,0.2063,0.211,0.2107,0.2094,0.2121,0.2181,0.2179,0.2178,0.2188,0.2189,0.2189,0.2189,0.2189,0.22,0.2192,0.2203,0.2229,0.2277,0.2296,0.2307,0.2291,0.2296,0.2292,0.2285,0.2291,0.2288,0.2297,0.2292,0.2298,0.628,0.63,0.6222,0.6209,0.0,0.6249,0.6359,0.6595,0.8067,0.9284,1.0305,1.0912,1.1304,1.1518,1.1096,1.0891,1.0846,1.0473,1.0244,1.0117,1.048,1.0349,0.9821,1.0699,1.0872,1.0488,1.0926,1.0899,1.046,1.046,1.0241,0.9794,0.9794,0.9893,1.0027,0.9296,0.9145,0.9612,0.9881,1.0039,1.008,1.0256,1.0425,1.0609,1.042,0.0,0.0,0.0,0.0,0.0,0.0,0.0,0.0,0.8801,0.0,0.833,0.8548,0.8632,0.8435,0.8494,0.8617,0.8817,0.8474,0.8429,0.8838,0.9077,0.9034,0.8671,0.7527,0.6803,0.6686,0.5471,0.4692,0.4686,0.3615,0.2866,0.2804,0.2375,0.2016,0.2005,0.2059,0.2038,0.2035,0.2095,0.2072,0.2048,0.2085,0.2096,0.2099,0.209,0.212,0.2183,0.2189,0.2189,0.2189,0.2189,0.2189,0.2189,0.2189,0.2195,0.2208,0.2189,0.2211,0.2241,0.2258,0.2238,0.2252,0.2276,0.2288,0.2265,0.2277,0.228,0.2246,0.2292,0.2279,0.4096,0.4074,0.4036,0.4007,0.3988,0.3999,0.4045,0.4309,0.7012,0.0,0.0,0.8748,0.8939,0.911,0.9287,0.9439,0.9494,0.9589,0.9601,0.9631,0.9637,0.955,0.9354,0.9656,0.9711,0.9581,0.9746,0.9719,0.9581,0.9554,0.9491,0.9354,0.9354,0.9354,0.9292,0.8524,0.8067,0.8008,0.8032,0.8084,0.8173,0.8457,0.8802,0.9134,0.9107,0.9068,0.8953,0.8926,0.8852,0.8737,0.8845,0.8831,0.8696,0.8777,0.8743,0.8594,0.8573,0.8696,0.9007,0.9054,0.9122,0.93,0.8113,0.784,0.8933,0.9217,0.8769,0.7387,0.6755,0.6125,0.5579,0.4282,0.3522,0.3636,0.2688,0.2026,0.2024,0.2001,0.2,0.2002,0.2053,0.2099,0.2075,0.2089,0.2087,0.2089,0.2074,0.2084,0.2091,0.2111,0.2105,0.2121,0.2172,0.2186,0.2179,0.2185,0.2188,0.2189,0.2189,0.2189,0.2192,0.221,0.2192,0.2203,0.2187,0.2202,0.2213,0.2244,0.2259,0.2183,0.2244,0.2265,0.2234,0.2256,0.2285,0.4109,0.402,0.4061,0.4023,0.3903,0.3982,0.4066,0.4333,0.5923,0.6856,0.7317,0.8541,0.9224,0.9485,0.8567,0.8535,0.9077,0.8151,0.7867,0.8213,0.883,0.8545,0.766,0.9106,0.9388,0.8788,0.9444,0.9416,0.8754,0.8706,0.8312,0.7681,0.7565,0.7565,0.7549,0.746,0.7365,0.7185,0.7404,0.7582,0.7692,0.8086,0.8505,0.8907,0.8825,0.8917,0.9123,0.9015,0.8871,0.8879,0.8871,0.9061,0.9393,0.934,0.9381,0.9548,0.9575,0.9555,0.9494,0.9595,0.923,0.8186,0.6878,0.6683,0.8089,0.7885,0.7307,0.6408,0.4413,0.3384,0.4226,0.3203,0.241,0.2415,0.2218,0.2089,0.2088,0.2031,0.2026,0.2088,0.2095,0.2087,0.2042,0.2057,0.2085,0.2037,0.2033,0.2001,0.2024,0.205,0.2063,0.2065,0.2145,0.2168,0.2153,0.2168,0.2185,0.2189,0.2189,0.2189,0.2189,0.2195,0.2207,0.2195,0.2203,0.2214,0.2201,0.2199,0.2202,0.2199,0.2208,0.2247,0.2268,0.2289,0.2263,0.3849,0.3932,0.3988,0.3969,0.3895,0.398,0.4072,0.4245,0.487,0.5304,0.5573,0.6209,0.6573,0.6689,0.646,0.6547,0.6903,0.6592,0.6739,0.7266,0.7565,0.7535,0.7353,0.8061,0.8221,0.7826,0.8174,0.8174,0.782,0.7792,0.7598,0.721,0.721,0.721,0.7215,0.7237,0.7215,0.7111,0.7282,0.7449,0.7702,0.7944,0.8341,0.8904,0.8959,0.9104,0.9252,0.9339,0.9386,0.9386,0.9438,0.9568,0.9683,0.9734,0.9435,0.872,0.8659,0.833,0.7572,0.7645,0.7503,0.6974,0.5665,0.5185,0.5948,0.6442,0.6263,0.5188,0.3932,0.3253,0.3199,0.2567,0.2123,0.2091,0.2121,0.2114,0.2098,0.2085,0.2056,0.2114,0.2121,0.2076,0.2048,0.2088,0.2074,0.2021,0.2019,0.2,0.203,0.202,0.2044,0.2053,0.2116,0.2135,0.2104,0.2164,0.2186,0.2189,0.2189,0.2189,0.2189,0.2189,0.2195,0.2206,0.221,0.2214,0.2196,0.2189,0.2188,0.2195,0.223,0.2248,0.2249,0.2124,0.2008,0.3579,0.3794,0.3794,0.3859,0.3895,0.398,0.4058,0.4142,0.4174,0.421,0.4264,0.4294,0.4305,0.4331,0.4684,0.493,0.5182,0.5458,0.5906,0.6511,0.6666,0.6857,0.7185,0.7338,0.7394,0.7319,0.7308,0.7275,0.7231,0.722,0.7209,0.7215,0.721,0.721,0.721,0.721,0.721,0.7188,0.7275,0.7437,0.7715,0.7841,0.8195,0.8769,0.9001,0.9203,0.9356,0.9321,0.9334,0.9401,0.9218,0.9056,0.9014,0.9044,0.8588,0.7495,0.7366,0.6974,0.6053,0.5736,0.5674,0.5737,0.446,0.372,0.389,0.4721,0.4855,0.3874,0.3675,0.3295,0.2489,0.2221,0.2179,0.2123,0.212,0.2112,0.2121,0.2111,0.2118,0.2113,0.2113,0.2099,0.2113,0.2106,0.2087,0.2048,0.2011,0.2009,0.2033,0.2011,0.203,0.2082,0.2087,0.2096,0.2099,0.2168,0.2186,0.2189,0.2189,0.2185,0.2181,0.2181,0.2182,0.2182,0.2185,0.219,0.219,0.219,0.2192,0.2199,0.2233,0.223,0.2074,0.1823,0.1608,0.3209,0.3517,0.3491,0.3671,0.39,0.3951,0.4015,0.4026,0.402,0.4053,0.4123,0.4259,0.4305,0.43,0.43,0.4661,0.5302,0.5202,0.5507,0.6156,0.6719,0.6929,0.6911,0.7514,0.7763,0.7655,0.7638,0.7524,0.7311,0.7294,0.7269,0.7221,0.721,0.7215,0.7215,0.7215,0.721,0.721,0.7193,0.7308,0.7515,0.7542,0.784,0.8421,0.8507,0.8907,0.9274,0.8422,0.7933,0.8124,0.7074,0.6447,0.6571,0.6455,0.6383,0.6357,0.6329,0.6304,0.6216,0.5145,0.4448,0.4389,0.322,0.2452,0.2457,0.2554,0.2553,0.2452,0.2422,0.2389,0.2223,0.2189,0.2186,0.2182,0.2181,0.2182,0.2172,0.2121,0.2117,0.2181,0.2125,0.2108,0.2104,0.2099,0.2087,0.2084,0.2035,0.2031,0.2037,0.2,0.2,0.2078,0.2056,0.2062,0.2091,0.2135,0.2185,0.2189,0.2188,0.2178,0.2167,0.2171,0.2182,0.217,0.2172,0.2188,0.2189,0.2189,0.2189,0.2088,0.2103,0.2075,0.1818,0.1462,0.1272,0.1016,0.2176,0.2253,0.2943,0.3931,0.4047,0.4055,0.4055,0.4055,0.4072,0.4096,0.4147,0.4188,0.4251,0.4226,0.4397,0.4646,0.4592,0.4904,0.5479,0.5808,0.6065,0.6345,0.7015,0.7301,0.7236,0.7589,0.772,0.7538,0.7452,0.7387,0.7377,0.7372,0.7334,0.7269,0.7263,0.7225,0.7182,0.6515,0.6191,0.6383,0.7098,0.727,0.6884,0.711,0.6974,0.6571,0.6148,0.609,0.6304,0.5984,0.5896,0.6014,0.6148,0.588,0.5122,0.4264,0.3873,0.3895,0.3362,0.3062,0.306,0.2524,0.2189,0.2189,0.2189,0.2189,0.2189,0.2189,0.2189,0.2189,0.2189,0.2189,0.2189,0.2189,0.2182,0.2129,0.2133,0.217,0.2131,0.2167,0.2128,0.211,0.2093,0.2111,0.21,0.2064,0.2067,0.2046,0.1881,0.1858,0.2059,0.2084,0.2064,0.2072,0.2135,0.2185,0.2185,0.2172,0.2123,0.2133,0.2125,0.216,0.2132,0.2146,0.2154,0.2189,0.2189,0.2155,0.1953,0.1631,0.1437,0.1111,0.0943,0.0774,-0.0934,0.0423,0.0844,0.1842,0.319,0.3222,0.3239,0.3311,0.3536,0.3511,0.3237,0.3537,0.3542,0.3421,0.3919,0.4224,0.424,0.421,0.4481,0.4897,0.5109,0.5432,0.5842,0.6728,0.7058,0.7072,0.7713,0.7979,0.7821,0.7571,0.7506,0.7498,0.7149,0.6898,0.6774,0.6503,0.6252,0.613,0.5341,0.4921,0.5095,0.5956,0.6066,0.532,0.5571,0.5345,0.4495,0.4365,0.4389,0.4565,0.4503,0.447,0.4597,0.4902,0.4645,0.3794,0.2782,0.2179,0.2188,0.2189,0.2155,0.2054,0.2021,0.2021,0.1953,0.2088,0.2155,0.2054,0.2155,0.2189,0.2189,0.2189,0.2189,0.2189,0.2189,0.2178,0.2128,0.2177,0.2179,0.2128,0.2175,0.2181,0.2125,0.2139,0.2127,0.2128,0.2134,0.2038,0.1904,0.1715,0.1689,0.1794,0.1807,0.1848,0.1922,0.1905,0.1983,0.1872,0.179,0.1783,0.1893,0.1808,0.1807,0.1649,0.1835,0.1878,0.177,0.1805,0.1842,0.151,0.1218,0.089,0.0723,0.0554,0.0347,-0.1874,-0.145,-0.0457,0.0456,0.1064,0.1193,0.1206,0.1398,0.2168,0.2027,0.1393,0.2144,0.2045,0.1416,0.3193,0.4182,0.423,0.4127,0.4124,0.4253,0.4864,0.5335,0.5536,0.6798,0.7299,0.6899,0.7507,0.7932,0.7837,0.7589,0.7578,0.7538,0.6232,0.5598,0.5438,0.4539,0.3839,0.3986,0.3779,0.3667,0.3678,0.3873,0.3937,0.3869,0.4116,0.4267,0.4279,0.3383,0.293,0.3252,0.2128,0.1429,0.1415,0.1748,0.2089,0.2278,0.2193,0.2124,0.2182,0.2153,0.2018,0.1717,0.1616,0.1515,0.1313,0.175,0.1918,0.1649,0.1916,0.2083,0.2122,0.2155,0.2189,0.2189,0.2189,0.2188,0.2186,0.2185,0.2188,0.2185,0.2186,0.2153,0.2183,0.2185,0.2144,0.2106,0.2092,0.1948,0.1659,0.1587,0.1422,0.1265,0.1205,0.1243,0.1513,0.1575,0.1401,0.1325,0.1315,0.1209,0.1101,0.1063,0.1102,0.1144,0.126,0.1299,0.1191,0.1155,0.119,0.0996,0.0771,0.0507,0.0443,0.0203,0.0,-0.418,-0.2872,-0.0856,0.0098,0.0294,0.0777,0.0961,0.0983,0.1319,0.1261,0.1021,0.1305,0.1288,0.1054,0.1778,0.219,0.2249,0.22,0.22,0.2283,0.2521,0.2653,0.2754,0.3624,0.4183,0.4467,0.5092,0.5507,0.5533,0.5297,0.5218,0.5228,0.4773,0.4458,0.4325,0.398,0.37,0.3527,0.29,0.2463,0.2384,0.1736,0.1393,0.1452,0.23,0.2397,0.1677,0.123,0.1021,0.116,0.0871,0.0711,0.0747,0.1073,0.1433,0.1766,0.1793,0.1798,0.1822,0.1827,0.1667,0.1345,0.1279,0.1245,0.1144,0.1212,0.1245,0.1277,0.123,0.1295,0.1544,0.1918,0.2189,0.2189,0.2189,0.2155,0.2189,0.2189,0.2189,0.2189,0.2189,0.2122,0.1885,0.1818,0.1717,0.1547,0.1474,0.1401,0.1228,0.1057,0.0926,0.0961,0.0864,0.0799,0.0976,0.1167,0.1158,0.0983,0.0942,0.1034,0.1025,0.0931,0.0969,0.0971,0.0986,0.099,0.0949,0.0787,0.0755,0.066,0.0433,0.0,0.0202,0.0,0.0,-0.5719,-0.4177,-0.229,-0.1335,-0.1059,-0.0326,-0.0032,0.0,0.0317,0.0255,0.0032,0.0257,0.0259,0.0,-0.0033,0.0,0.0134,0.0699,0.1066,0.1108,0.1109,0.1109,0.1209,0.1813,0.2248,0.2615,0.337,0.3886,0.413,0.3993,0.3938,0.3994,0.3551,0.3271,0.3173,0.2813,0.2513,0.229,0.1631,0.1224,0.1112,0.0432,0.0,0.0,0.0892,0.0967,0.0,0.0,0.0,0.0,0.0223,0.0383,0.0512,0.0769,0.1059,0.1385,0.1413,0.1422,0.1445,0.1417,0.1293,0.0941,0.0909,0.0875,0.0741,0.0572,0.064,0.0772,0.08,0.0798,0.1107,0.1548,0.1851,0.1851,0.1851,0.1851,0.1851,0.1851,0.1851,0.1885,0.175,0.1649,0.1548,0.1481,0.1346,0.1111,0.1111,0.1038,0.0831,0.0663,0.0498,0.063,0.0465,0.0401,0.0,0.0,0.0,0.0,0.0,0.0,0.0,0.0,0.0,0.0,0.0,0.0,0.0,0.0,0.0,0.0,0.0,0.0,0.0,0.0,0.0,-0.6263,-0.5482,-0.4759,-0.3849,-0.3058,-0.2254,-0.2011,-0.1653,-0.0885,-0.0995,-0.1578,-0.0987,-0.106,-0.185,-0.1822,-0.2023,-0.1587,-0.0067,0.0739,0.0739,0.0806,0.0806,0.084,0.1343,0.1644,0.1812,0.2945,0.3642,0.3811,0.3563,0.3544,0.3603,0.2502,0.1978,0.1991,0.0944,0.0,0.0,0.0,0.0,0.0,0.0,0.0,0.0,0.0,0.0,0.0,0.0,0.0,0.0,0.0,0.0,0.041,0.0505,0.0667,0.0991,0.1049,0.1057,0.1081,0.1085,0.0926,0.0603,0.0505,0.0404,0.0168,0.0,0.0202,0.0437,0.0603,0.0772,0.0941,0.1039,0.1139,0.1144,0.1244,0.1242,0.1177,0.1111,0.1178,0.1346,0.1143,0.0942,0.1211,0.1209,0.1041,0.0976,0.0943,0.0841,0.057,0.0436,0.0336,0.0,0.0,0.0,0.0,0.0,0.0,0.0,0.0,0.0,0.0,0.0,0.0,0.0,0.0,0.0,0.0,0.0,0.0,0.0,0.0,0.0,0.0,0.0,0.0,-0.6637,-0.6263,-0.5581,-0.4812,-0.3983,-0.3226,-0.2644,-0.208,-0.1706,-0.1824,-0.2063,-0.1786,-0.1846,-0.2136,-0.2182,-0.2182,-0.2146,-0.1441,-0.1155,-0.1111,-0.1144,-0.1076,-0.1076,-0.0908,-0.074,-0.037,0.0368,0.087,0.1071,0.1187,0.1237,0.1161,0.0,0.0628,0.0,0.0,0.0,0.0,0.0,0.0,0.0,0.0,0.0,0.0,0.0,0.0,0.0,0.0,0.0,0.0,0.0,0.0062,0.0,0.0156,0.0311,0.0625,0.0686,0.0658,0.0671,0.0679,0.0523,0.0,0.0,0.0135,0.0,0.0,0.0,0.0,0.0,0.0263,0.0333,0.0327,0.0557,0.104,0.1102,0.1066,0.1007,0.0909,0.1043,0.1277,0.0998,0.083,0.0836,0.0768,0.0633,0.0,0.0,0.0,0.0,0.0,0.0168,0.0,0.0,0.0,0.0,0.0,0.0,0.0,0.0,0.0,0.0,0.0,0.0,0.0,0.0,0.0,0.0,0.0,0.0,0.0,0.0,0.0,0.0,0.0,0.0,-0.6908,-0.6713,-0.5986,-0.5368,-0.477,-0.3803,-0.304,-0.2522,-0.2225,-0.2142,-0.2177,-0.2168,-0.2163,-0.2186,-0.2205,-0.221,-0.2206,-0.2214,-0.2189,-0.2204,-0.2192,-0.2189,-0.2189,-0.2189,-0.1987,-0.1616,-0.1144,-0.0774,-0.0505,-0.03,-0.0132,0.0,0.0,0.0,0.0,0.0,0.0,0.0,0.0,0.0,0.0,0.0,0.0,0.0,0.0,0.0,0.0,0.0,0.0,0.0,0.0,0.0,0.0,0.0,0.0093,0.0247,0.0309,0.0311,0.0318,0.0322,0.0228,0.0,0.0,0.0,0.0,0.0,0.0,0.0,0.0,0.0,0.0,0.0,0.0,0.0603,0.0661,0.0692,0.0666,0.0537,0.0538,0.0705,0.0597,0.0493,0.0423,0.0363,0.0231,0.0,0.0,0.0,0.0,0.0,0.0,0.0,0.0,0.0,0.0,0.0,0.0,0.0,0.0,0.0,0.0,0.0,0.0,0.0,0.0,0.0,0.0,0.0,0.0,0.0,0.0,0.0,0.0,0.0,0.0,-0.6978,-0.6873,-0.6185,-0.5801,-0.5474,-0.4238,-0.3516,-0.3161,-0.2555,-0.2225,-0.2213,-0.2183,-0.2204,-0.2203,-0.2202,-0.2218,-0.2208,-0.2186,-0.2207,-0.2193,-0.2207,-0.2189,-0.2189,-0.2189,-0.2021,-0.1717,-0.1515,-0.1144,-0.0639,-0.0436,-0.0332,0.0,0.0,0.0,0.0,0.0,0.0,0.0,0.0,0.0,0.0,0.0,0.0,0.0,0.0,0.0,0.0,0.0,0.0,0.0,0.0,0.0,0.0,0.0,0.0,0.0,0.0,0.0,0.0,0.0,0.0,0.0,0.0,0.0,0.0,0.0,0.0,0.0,0.0,0.0,0.0,0.0,0.0,0.0,0.0,0.0,0.0,0.0,0.0,0.0,0.0,0.0,0.0,0.0,0.0,0.0,0.0,0.0,0.0,0.0,0.0,0.0,0.0,0.0,0.0,0.0,0.0,0.0,0.0,0.0,0.0,0.0,0.0,0.0,0.0,0.0,0.0,0.0,0.0,0.0,0.0,0.0,0.0,0.0,0.0,-0.6924,-0.6896,-0.6745,-0.635,-0.5795,-0.5296,-0.442,-0.3371,-0.3117,-0.2637,-0.2264,-0.2179,-0.2207,-0.2204,-0.2256,-0.2279,-0.2271,-0.2213,-0.2198,-0.219,-0.2211,-0.219,-0.2189,-0.2189,-0.2155,-0.1987,-0.1548,-0.1144,-0.0908,-0.0433,-0.0132,0.0,0.0,0.0,0.0,0.0,0.0,0.0,0.0,0.0,0.0,0.0,0.0,0.0,0.0,0.0,0.0,0.0,0.0,0.0,0.0,0.0,0.0,0.0,0.0,0.0,0.0,0.0,0.0,0.0,0.0,0.0,0.0,0.0,0.0,0.0,0.0,0.0,0.0,0.0,0.0,0.0,0.0,0.0,0.0,0.0,0.0,0.0,0.0,0.0,0.0,0.0,0.0,0.0,0.0,0.0,0.0,0.0,0.0,0.0,0.0,0.0,0.0,0.0,0.0,0.0,0.0,0.0,0.0,0.0,0.0,0.0,0.0,0.0,0.0,0.0,0.0,0.0,0.0,0.0,0.0,0.0,0.0,0.0,0.0,-0.6887,-0.6899,-0.6954,-0.6741,-0.6267,-0.594,-0.5241,-0.4319,-0.3611,-0.3109,-0.2658,-0.23,-0.2191,-0.219,-0.2281,-0.2272,-0.2305,-0.2278,-0.223,-0.2253,-0.2202,-0.2204,-0.2192,-0.2189,-0.2189,-0.2155,-0.1751,-0.1414,-0.1109,-0.0634,-0.033,0.0,0.0,0.0,0.0,0.0,0.0,0.0,0.0,0.0,0.0,0.0,0.0,0.0,0.0,0.0,0.0,0.0,0.0,0.0,0.0,0.0,0.0,0.0,0.0,0.0,0.0,0.0,0.0,0.0,0.0,0.0,0.0,0.0,0.0,0.0,0.0,0.0,0.0,0.0,0.0,0.0,0.0,0.0,0.0,0.0,0.0,0.0,0.0,0.0,0.0,0.0,0.0,0.0,0.0,0.0,0.0,0.0,0.0,0.0,0.0,0.0,0.0,0.0,0.0,0.0,0.0,0.0,0.0,0.0,0.0,0.0,0.0,0.0,0.0,0.0,0.0,0.0,0.0,0.0,0.0,0.0,0.0,0.0,0.0,-0.6985,-0.6895,-0.6949,-0.699,-0.6841,-0.6261,-0.5767,-0.5334,-0.4182,-0.3407,-0.3052,-0.2472,-0.2208,-0.2209,-0.2248,-0.2285,-0.2288,-0.2296,-0.2286,-0.2266,-0.2229,-0.2193,-0.221,-0.2201,-0.2203,-0.2172,-0.22,-0.1762,-0.129,-0.1084,-0.067,0.0,0.0,0.0,0.0,0.0,0.0,0.0,0.0,0.0,0.0,0.0,0.0,0.0,0.0,0.0,0.0,0.0,0.0,0.0,0.0,0.0,0.0,0.0,0.0,0.0,0.0,0.0,0.0,0.0,0.0,0.0,0.0,0.0,0.0,0.0,0.0,0.0,0.0,0.0,0.0,0.0,0.0,0.0,0.0,0.0,0.0,0.0,0.0,0.0,0.0,0.0,0.0,0.0,0.0,0.0,0.0,0.0,0.0,0.0,0.0,0.0,0.0,0.0,0.0,0.0,0.0,0.0,0.0,0.0,0.0,0.0,0.0,0.0,0.0,0.0,0.0,0.0,0.0,0.0,0.0,0.0,0.0,0.0,0.0,-0.756,-0.6895,-0.6954,-0.699,-0.6954,-0.6805,-0.6037,-0.4893,-0.451,-0.3639,-0.2657,-0.2269,-0.2206,-0.2213,-0.2217,-0.2241,-0.2301,-0.2294,-0.2279,-0.2218,-0.221,-0.2198,-0.2185,-0.2203,-0.2204,-0.2147,-0.1912,-0.1737,-0.1493,-0.1037,-0.0652,-0.0504,0.0,0.0,0.0,0.0,0.0,0.0,0.0,0.0,0.0,0.0,0.0,0.0,0.0,0.0,0.0,0.0,0.0,0.0,0.0,0.0,0.0,0.0,0.0,0.0,0.0,0.0,0.0,0.0,0.0,0.0,0.0,0.0,0.0,0.0,0.0,0.0,0.0,0.0,0.0,0.0,0.0,0.0,0.0,0.0,0.0,0.0,0.0,0.0,0.0,0.0,0.0,0.0,0.0,0.0,0.0,0.0,0.0,0.0,0.0,0.0,0.0,0.0,0.0,0.0,0.0,0.0,0.0,0.0,0.0,0.0,0.0,0.0,0.0,0.0,0.0,0.0,0.0,0.0,0.0,0.0,0.0,0.0,0.0,-0.8488,-0.7579,-0.772,-0.7494,-0.7027,-0.6954,-0.6311,-0.5225,-0.4726,-0.3923,-0.2854,-0.2394,-0.2214,-0.2203,-0.2197,-0.2228,-0.2289,-0.2304,-0.2294,-0.2238,-0.2232,-0.2232,-0.2266,-0.2251,-0.2213,-0.2179,-0.2034,-0.1895,-0.1614,-0.1333,-0.1078,-0.0859,-0.0478,0.0,-0.0199,-0.0099,0.0,0.0,0.0,0.0,0.0,0.0,0.0,0.0,0.0,0.0,0.0,0.0,0.0,0.0,0.0,0.0,0.0,0.0,0.0,0.0,0.0,0.0,0.0,0.0,0.0,0.0,0.0,0.0,0.0,0.0,0.0,0.0,0.0,0.0,0.0,0.0,0.0,0.0,0.0,0.0,0.0,0.0,0.0,0.0,0.0,0.0,0.0,0.0,0.0,0.0,0.0,0.0,0.0,0.0,0.0,0.0,0.0,0.0,0.0,0.0,0.0,0.0,0.0,0.0,0.0,0.0,0.0,0.0,0.0,0.0,0.0,0.0,0.0,0.0,0.0,0.0,0.0,0.0,0.0,-0.9573,-0.8577,-0.8815,-0.8369,-0.7548,-0.7381,-0.6765,-0.5812,-0.497,-0.4032,-0.3243,-0.2494,-0.2189,-0.2222,-0.2185,-0.2249,-0.2245,-0.2264,-0.2255,-0.2277,-0.2283,-0.2285,-0.2286,-0.2288,-0.2248,-0.219,-0.2194,-0.2052,-0.1875,-0.1729,-0.1484,-0.1265,-0.0905,-0.0656,-0.0514,-0.027,0.0,0.0,0.0,0.0,0.0,0.0,0.0,0.0,0.0,0.0,0.0,0.0,0.0,0.0,0.0,0.0,0.0,0.0,0.0,0.0,0.0,0.0,0.0,0.0,0.0,0.0,0.0,0.0,0.0,0.0,0.0,0.0,0.0,0.0,0.0,0.0,0.0,0.0,0.0,0.0,0.0,0.0,0.0,0.0,0.0,0.0,0.0,0.0,0.0,0.0,0.0,0.0,0.0,0.0,0.0,0.0,0.0,0.0,0.0,0.0,0.0,0.0,0.0,0.0,0.0,0.0,0.0,0.0,0.0,0.0,0.0,0.0,0.0,0.0,0.0,0.0,0.0,0.0,0.0,-1.0592,-0.9671,-0.9859,-0.9818,-0.9516,-0.8781,-0.7621,-0.625,-0.5252,-0.3844,-0.2664,-0.2276,-0.2234,-0.2244,-0.2192,-0.2203,-0.221,-0.2229,-0.2229,-0.2226,-0.2275,-0.2288,-0.2294,-0.2276,-0.2281,-0.2284,-0.2281,-0.2245,-0.2133,-0.1919,-0.1796,-0.1607,-0.128,-0.099,-0.0735,-0.0486,-0.0275,-0.0102,0.0,0.0,0.0,0.0,0.0,0.0,0.0,0.0,0.0,0.0,0.0,0.0,0.0,0.0,0.0,0.0,0.0,0.0,0.0,0.0,0.0,0.0,0.0,0.0,0.0,0.0,0.0,0.0,0.0,0.0,0.0,0.0,0.0,0.0,0.0,0.0,0.0,0.0,0.0,0.0,0.0,0.0,0.0,0.0,0.0,0.0,0.0,0.0,0.0,0.0,0.0,0.0,0.0,0.0,0.0,0.0,0.0,0.0,0.0,0.0,0.0,0.0,0.0,0.0,0.0,0.0,0.0,0.0,0.0,0.0,0.0,0.0,0.0,0.0,0.0,0.0,0.0,-1.1646,-1.0701,-1.0852,-1.0563,-1.001,-0.9537,-0.8677,-0.7469,-0.6058,-0.4778,-0.3647,-0.2713,-0.2214,-0.2222,-0.2219,-0.2183,-0.2214,-0.2206,-0.2209,-0.2216,-0.2225,-0.2278,-0.229,-0.2283,-0.2293,-0.2305,-0.2323,-0.232,-0.2262,-0.2149,-0.207,-0.1991,-0.1698,-0.14,-0.1137,-0.0779,-0.0562,-0.0314,0.0,0.0,0.0,0.0,0.0,0.0,0.0,0.0,0.0,0.0,0.0,0.0,0.0,0.0,0.0,0.0,0.0,0.0,0.0,0.0,0.0,0.0,0.0,0.0,0.0,0.0,0.0,0.0,0.0,0.0,0.0,0.0,0.0,0.0,0.0,0.0,0.0,0.0,0.0,0.0,0.0,0.0,0.0,0.0,0.0,0.0,0.0,0.0,0.0,0.0,0.0,0.0,0.0,0.0,0.0,0.0,0.0,0.0,0.0,0.0,0.0,0.0,0.0,0.0,0.0,0.0,0.0,0.0,0.0,0.0,0.0,0.0,0.0,0.0,0.0,0.0,0.0,-1.2507,-1.1709,-1.1835,-1.1379,-1.0588,-1.0304,-0.9804,-0.8817,-0.727,-0.6089,-0.5156,-0.3547,-0.2671,-0.2567,-0.2346,-0.2203,-0.2193,-0.2182,-0.2186,-0.2189,-0.2198,-0.2252,-0.2281,-0.2268,-0.2285,-0.2315,-0.2356,-0.2338,-0.2307,-0.2305,-0.2303,-0.2222,-0.2003,-0.1851,-0.1619,-0.1185,-0.089,-0.0528,-0.0316,-0.0105,0.0,0.0,0.0,0.0,0.0,0.0,0.0,0.0,0.0,0.0,0.0,0.0,0.0,0.0,0.0,0.0,0.0,0.0,0.0,0.0,0.0,0.0,0.0,0.0,0.0,0.0,0.0,0.0,0.0,0.0,0.0,0.0,0.0,0.0,0.0,0.0,0.0,0.0,0.0,0.0,0.0,0.0,0.0,0.0,0.0,0.0,0.0,0.0,0.0,0.0,0.0,0.0,0.0,0.0,0.0,0.0,0.0,0.0,0.0,0.0,0.0,0.0,0.0,0.0,0.0,0.0,0.0,0.0,0.0,0.0,0.0,0.0,0.0,0.0,0.0,-1.2765,-1.2649,-1.2817,-1.2855,-1.2533,-1.1734,-1.0966,-1.016,-0.8628,-0.7534,-0.678,-0.4978,-0.4072,-0.3818,-0.2779,-0.2328,-0.2266,-0.2213,-0.2188,-0.2192,-0.2204,-0.2191,-0.2214,-0.2217,-0.2265,-0.2339,-0.2328,-0.2285,-0.2289,-0.2349,-0.2354,-0.23,-0.2223,-0.2111,-0.1851,-0.1595,-0.1292,-0.074,-0.0562,-0.0349,0.0,0.0,0.0,0.0,0.0,0.0,0.0,0.0,0.0,0.0,0.0,0.0,0.0,0.0,0.0,0.0,0.0,0.0,0.0,0.0,0.0,0.0,0.0,0.0,0.0,0.0,0.0,0.0,0.0,0.0,0.0,0.0,0.0,0.0,0.0,0.0,0.0,0.0,0.0,0.0,0.0,0.0,0.0,0.0,0.0,0.0,0.0,0.0,0.0,0.0,0.0,0.0,0.0,0.0,0.0,0.0,0.0,0.0,0.0,0.0,0.0,0.0,0.0,0.0,0.0,0.0,0.0,0.0,0.0,0.0,0.0,0.0,0.0,0.0,0.0,-1.2799,-1.2807,-1.288,-1.2946,-1.2854,-1.2425,-1.212,-1.1507,-1.0044,-0.9064,-0.8303,-0.6627,-0.5722,-0.5177,-0.4033,-0.3439,-0.3239,-0.264,-0.2206,-0.2231,-0.2239,-0.2182,-0.2205,-0.2212,-0.2241,-0.2265,-0.2323,-0.2279,-0.2281,-0.2292,-0.2307,-0.2299,-0.2296,-0.226,-0.2041,-0.1895,-0.1631,-0.1256,-0.0854,-0.0386,0.0,0.0,0.0,0.0,0.0,0.0,0.0,0.0,0.0,0.0,0.0,0.0,0.0,0.0,0.0,0.0,0.0,0.0,0.0,0.0,0.0,0.0,0.0,0.0,0.0,0.0,0.0,0.0,0.0,0.0,0.0,0.0,0.0,0.0,0.0,0.0,0.0,0.0,0.0,0.0,0.0,0.0,0.0,0.0,0.0,0.0,0.0,0.0,0.0,0.0,0.0,0.0,0.0,0.0,0.0,0.0,0.0,0.0,0.0,0.0,0.0,0.0,0.0,0.0,0.0,0.0,0.0296,0.0,0.0,0.0,0.0,0.0,0.0,0.0,0.0,-1.2799,-1.2799,-1.2799,-1.2799,-1.2799,-1.2799,-1.2774,-1.2601,-1.1339,-1.0598,-0.9902,-0.8367,-0.7131,-0.6355,-0.5373,-0.4928,-0.4801,-0.3447,-0.2897,-0.2713,-0.2388,-0.2214,-0.2186,-0.2193,-0.2199,-0.2255,-0.2303,-0.2305,-0.2256,-0.2261,-0.2285,-0.2287,-0.2292,-0.2295,-0.2223,-0.2076,-0.1852,-0.1661,-0.0968,-0.0496,0.0,0.0,0.0,0.0,0.0,0.0,0.0,0.0,0.0,0.0,0.0,0.0,0.0,0.0,0.0,0.0,0.0,0.0,0.0,0.0,0.0,0.0,0.0,0.0,0.0,0.0,0.0,0.0,0.0,0.0,0.0,0.0,0.0,0.0,0.0,0.0,0.0,0.0,0.0,0.0,0.0,0.0,0.0,0.0,0.0,0.0,0.0,0.0,0.0,0.0,0.0,0.0,0.0,0.0,0.0,0.0,0.0,0.0,0.0,0.0,0.0,0.0,0.0,0.0,0.0149,0.03,0.0563,0.0298,0.0,0.0,0.0,0.0,0.0,0.0,0.0,-1.2799,-1.2799,-1.2799,-1.2799,-1.2799,-1.2799,-1.2799,-1.2741,-1.2272,-1.1949,-1.1475,-0.9935,-0.8035,-0.6929,-0.6702,-0.6518,-0.6445,-0.5074,-0.4527,-0.3878,-0.3057,-0.2755,-0.2719,-0.2676,-0.2409,-0.2434,-0.2346,-0.2274,-0.2279,-0.2241,-0.2292,-0.2296,-0.2272,-0.2288,-0.2297,-0.2225,-0.2032,-0.1767,-0.1112,-0.0679,-0.0426,-0.0249,0.0,0.0,0.0,0.0,0.0,0.0,0.0,0.0,0.0,0.0,0.0,0.0,0.0,0.0,0.0,0.0,0.0,0.0,0.0,0.0,0.0,0.0,0.0,0.0,0.0,0.0,0.0,0.0,0.0,0.0,0.0,0.0,0.0,0.0,0.0,0.0,0.0,0.0,0.0,0.0,0.0,0.0,0.0,0.0,0.0,0.0,0.0,0.0,0.0,0.0,0.0,0.0,0.0,0.0,0.0,0.0,0.0,0.0,0.0,0.0111,0.0374,0.0451,0.0603,0.0683,0.0725,0.057,0.057,0.0766,0.0732,0.0347,0.0,0.0,0.0,-1.2799,-1.2799,-1.2799,-1.2799,-1.2799,-1.2799,-1.2675,-1.2477,-1.2371,-1.2041,-1.1578,-1.0512,-0.9709,-0.8996,-0.8166,-0.8001,-0.7818,-0.6705,-0.6148,-0.5831,-0.5267,-0.4943,-0.4658,-0.3942,-0.353,-0.331,-0.2765,-0.2207,-0.2204,-0.2251,-0.2226,-0.2233,-0.2242,-0.2255,-0.2269,-0.23,-0.2148,-0.1875,-0.1473,-0.1148,-0.0561,-0.0462,-0.0251,0.0,0.0,0.0,0.0,0.0,0.0,0.0,0.0,0.0,0.0,0.0,0.0,0.0,0.0,0.0,0.0,0.0,0.0,0.0,0.0,0.0,0.0,0.0,0.0,0.0,0.0,0.0,0.0,0.0,0.0,0.0,0.0,0.0,0.0,0.0,0.0,0.0,0.0,0.0,0.0,0.0,0.0,0.0,0.0,0.0,0.0,0.0,0.0,0.0,0.0,0.0,0.0,0.0,0.0,0.0,0.0299,0.0335,0.0409,0.0748,0.0943,0.1023,0.1069,0.1194,0.1201,0.1009,0.105,0.1248,0.0859,0.0234,0.0,0.0,0.0,-1.2799,-1.2799,-1.2799,-1.2799,-1.2799,-1.2799,-1.2601,-1.2338,-1.2305,-1.1876,-1.1188,-1.0991,-1.0859,-1.0524,-0.9998,-0.9521,-0.9168,-0.8248,-0.7677,-0.7209,-0.6856,-0.6737,-0.6267,-0.5649,-0.4823,-0.4334,-0.3579,-0.2907,-0.2185,-0.2233,-0.2243,-0.2206,-0.2209,-0.2233,-0.2273,-0.2337,-0.2236,-0.2039,-0.1772,-0.1588,-0.0951,-0.0674,-0.0503,-0.0179,0.0,0.0,0.0,0.0,0.0,0.0,0.0,0.0,0.0,0.0,0.0,0.0,0.0,0.0,0.0,0.0,0.0,0.0,0.0,0.0,0.0,0.0,0.0,0.0,0.0,0.0,0.0,0.0,0.0,0.0,0.0,0.0,0.0,0.0,0.0,0.0,0.0,0.0,0.0,0.0,0.0,0.0,0.0,0.0,0.0,0.0,0.0,0.0,0.0,0.0,0.0,0.0,0.0,0.0,0.0871,0.0794,0.0946,0.1216,0.1448,0.1454,0.1544,0.1719,0.1729,0.1694,0.1697,0.1698,0.1064,0.0314,0.0,0.0,0.0,-1.2807,-1.2799,-1.2815,-1.2807,-1.2807,-1.2799,-1.2609,-1.2305,-1.2206,-1.1824,-1.1224,-1.1263,-1.1184,-1.0914,-1.0693,-1.067,-1.0476,-0.944,-0.8855,-0.866,-0.804,-0.7222,-0.707,-0.6871,-0.6302,-0.4934,-0.4213,-0.3453,-0.2406,-0.2282,-0.2282,-0.2238,-0.2217,-0.2245,-0.2291,-0.2296,-0.2312,-0.2328,-0.1976,-0.1784,-0.1516,-0.0969,-0.0686,-0.0433,-0.0178,0.0,0.0,0.0,0.0,0.0,0.0,0.0,0.0,0.0,0.0,0.0,0.0,0.0,0.0,0.0,0.0,0.0,0.0,0.0,0.0,0.0,0.0,0.0,0.0,0.0,0.0,0.0,0.0,0.0,0.0,0.0,0.0,0.0,0.0,0.0,0.0,0.0,0.0,0.0,0.0,0.0,0.0,0.0,0.0,0.0,0.0,0.0,0.0,0.0,0.056,0.1094,0.0,0.1453,0.1459,0.1305,0.1307,0.1505,0.1702,0.1857,0.1945,0.204,0.2258,0.2478,0.2029,0.1505,0.1064,0.051,0.0432,0.0,0.0,-1.3003,-1.3003,-1.3011,-1.2904,-1.2815,-1.2799,-1.2609,-1.2239,-1.1784,-1.1338,-1.1041,-1.1007,-1.0967,-1.0941,-1.0955,-1.0995,-1.0872,-1.0931,-1.0414,-1.0107,-0.9584,-0.9698,-0.9388,-0.8575,-0.797,-0.7065,-0.5971,-0.4612,-0.3825,-0.3003,-0.2376,-0.2264,-0.2245,-0.2276,-0.2297,-0.231,-0.2364,-0.2353,-0.2203,-0.2053,-0.1734,-0.1266,-0.0908,-0.0657,-0.0287,0.0,0.0,0.0,0.0,0.0,0.0,0.0,0.0,0.0,0.0,0.0,0.0,0.0,0.0,0.0,0.0,0.0,0.0,0.0,0.0,0.0,0.0,0.0,0.0,0.0,0.0,0.0,0.0,0.0,0.0,0.0,0.0,0.0,0.0,0.0,0.0,0.0,0.0,0.0,0.0,0.0,0.0,0.0,0.0,0.0,0.0,0.0,0.0,0.0,0.0719,0.1377,0.1613,0.1579,0.1667,0.1715,0.1759,0.1837,0.2033,0.2222,0.2272,0.2363,0.2459,0.2391,0.167,0.1109,0.0869,0.0512,0.0236,0.0158,0.0,-1.3223,-1.3223,-1.3189,-1.3092,-1.2896,-1.2831,-1.2568,-1.2081,-1.1479,-1.1078,-1.0873,-1.0779,-1.0819,-1.0894,-1.088,-1.088,-1.0921,-1.0934,-1.1016,-1.0914,-1.1002,-1.085,-1.0586,-1.0215,-0.9432,-0.872,-0.7393,-0.5948,-0.4477,-0.3543,-0.2856,-0.2412,-0.2287,-0.2291,-0.2301,-0.2346,-0.2365,-0.2324,-0.2294,-0.2239,-0.1932,-0.1638,-0.1312,-0.0981,-0.0612,0.0,0.0,0.0,0.0,0.0,0.0,0.0,0.0,0.0,0.0,0.0,0.0,0.0,0.0,0.0,0.0,0.0,0.0,0.0,0.0,0.0,0.0,0.0,0.0,0.0,0.0,0.0,0.0,0.0,0.0,0.0,0.0,0.0,0.0,0.0,0.0,0.0,0.0,0.0,0.0,0.0,0.0,0.0,0.0,0.0,0.0,0.0,0.0,0.0,0.0997,0.1784,0.1906,0.1748,0.1873,0.2042,0.212,0.2195,0.2395,0.2514,0.2437,0.2442,0.2452,0.2221,0.1707,0.131,0.1033,0.0634,0.0119,0.008,0.0161,-1.3402,-1.3402,-1.3402,-1.3254,-1.3076,-1.2896,-1.246,-1.1784,-1.1413,-1.1063,-1.0711,-1.0846,-1.088,-1.0901,-1.0873,-1.0887,-1.0874,-1.0772,-1.0806,-1.0887,-1.0995,-1.1124,-1.1274,-1.1157,-1.0515,-0.9774,-0.8673,-0.7063,-0.5003,-0.3848,-0.3154,-0.2583,-0.2293,-0.23,-0.2304,-0.235,-0.2369,-0.2379,-0.2339,-0.2331,-0.2182,-0.1914,-0.1692,-0.1356,-0.0946,-0.0577,-0.0394,0.0,0.0,0.0,0.0,0.0,0.0,0.0,0.0,0.0,0.0,0.0,0.0,0.0,0.0,0.0,0.0,0.0,0.0,0.0,0.0,0.0,0.0,0.0,0.0,0.0,0.0,0.0,0.0,0.0,0.0,0.0,0.0,0.0,0.0,0.0,0.0,0.0,0.0,0.0,0.0,0.0,0.0,0.0,0.0,0.0,0.0,0.0,0.1203,0.1996,0.2233,0.2069,0.219,0.2357,0.2435,0.2435,0.2475,0.2514,0.2514,0.248,0.2487,0.2296,0.1945,0.163,0.14,0.1082,0.0681,0.0485,0.0489,-1.3402,-1.3402,-1.3402,-1.3262,-1.31,-1.3035,-1.2555,-1.1817,-1.1652,-1.1338,-1.0813,-1.0779,-1.0819,-1.0901,-1.0799,-1.0765,-1.0738,-1.0751,-1.0718,-1.0799,-1.0982,-1.1124,-1.1274,-1.1387,-1.1181,-1.0689,-0.9718,-0.8436,-0.6181,-0.4654,-0.3132,-0.2369,-0.2296,-0.2307,-0.2356,-0.2365,-0.2382,-0.2393,-0.2354,-0.2362,-0.2292,-0.2022,-0.1905,-0.1638,-0.1078,-0.0737,-0.0546,-0.0217,0.0,0.0,0.0,0.0,0.0,0.0,0.0,0.0,0.0,0.0,0.0,0.0,0.0,0.0,0.0,0.0,0.0,0.0,0.0,0.0,0.0,0.0,0.0,0.0,0.0,0.0,0.0,0.0,0.0,0.0,0.0,0.0,0.0,0.0,0.0,0.0,0.0,0.0,0.0,0.0,0.0,0.0,0.0,0.0,0.0622,0.0894,0.1442,0.2197,0.2356,0.2473,0.2514,0.2514,0.2475,0.2475,0.2514,0.2518,0.2522,0.2519,0.2515,0.2293,0.2157,0.2052,0.1822,0.1541,0.1261,0.1066,0.0824,-1.3402,-1.3402,-1.3402,-1.3337,-1.3189,-1.3051,-1.2563,-1.1958,-1.1806,-1.1445,-1.0839,-1.0765,-1.0772,-1.0792,-1.0732,-1.0731,-1.0724,-1.0724,-1.0698,-1.0792,-1.0975,-1.1084,-1.1233,-1.1396,-1.146,-1.1155,-1.0599,-0.9538,-0.7368,-0.4944,-0.3168,-0.2296,-0.2296,-0.2352,-0.2371,-0.2388,-0.2405,-0.2414,-0.2421,-0.2393,-0.2319,-0.2166,-0.2083,-0.1857,-0.1251,-0.09,-0.0742,-0.0333,0.0,0.0,0.0,0.0,0.0,0.0,0.0,0.0,0.0,0.0,0.0,0.0,0.0,0.0,0.0,0.0,0.0,0.0,0.0,0.0,0.0,0.0,0.0,0.0,0.0,0.0,0.0,0.0,0.0,0.0,0.0,0.0,0.0,0.0,0.0,0.0,0.0,0.0,0.0,0.0,0.0,0.0,0.0,0.0,0.0901,0.1332,0.1846,0.2239,0.2396,0.2514,0.2514,0.2514,0.2514,0.2518,0.2522,0.2527,0.2574,0.2537,0.2542,0.256,0.2462,0.2318,0.2252,0.2096,0.1856,0.166,0.1374,-1.3329,-1.3321,-1.3362,-1.3345,-1.3337,-1.2944,-1.248,-1.197,-1.1803,-1.1354,-1.0797,-1.0724,-1.0724,-1.0751,-1.0724,-1.0717,-1.0717,-1.0717,-1.0717,-1.0731,-1.0867,-1.1029,-1.1145,-1.1349,-1.1463,-1.1565,-1.1175,-1.0125,-0.8456,-0.5924,-0.3569,-0.2405,-0.2303,-0.2358,-0.2388,-0.2416,-0.2438,-0.2459,-0.2454,-0.2453,-0.2461,-0.2412,-0.2393,-0.2245,-0.1751,-0.1215,-0.1023,-0.0605,0.0,0.0,0.0,0.0,0.0,0.0,0.0,0.0,0.0,0.0,0.0,0.0,0.0,0.0,0.0,0.0,0.0,0.0,0.0,0.0,0.0,0.0,0.0,0.0,0.0,0.0,0.0,0.0,0.0,0.0,0.0,0.0,0.0,0.0,0.0,0.0,0.0,0.0,0.0,0.0,0.0,0.0,0.0,0.0628,0.1021,0.1492,0.1964,0.2318,0.2435,0.2514,0.2514,0.2514,0.2514,0.2521,0.253,0.2545,0.2563,0.2574,0.2585,0.2598,0.2611,0.2546,0.2522,0.2579,0.2424,0.2138,0.1845,-1.2792,-1.28,-1.2905,-1.3035,-1.3141,-1.2799,-1.2337,-1.1836,-1.1468,-1.1122,-1.0757,-1.0724,-1.0717,-1.0717,-1.0717,-1.0717,-1.0717,-1.0717,-1.0717,-1.0765,-1.0846,-1.0948,-1.1029,-1.128,-1.1409,-1.147,-1.1139,-1.0269,-0.7878,-0.5706,-0.3969,-0.2481,-0.235,-0.2378,-0.2408,-0.2439,-0.2467,-0.2493,-0.2491,-0.2485,-0.2492,-0.2499,-0.2453,-0.2334,-0.1944,-0.1507,-0.1233,-0.0767,-0.0343,0.0,0.0,0.0,0.0,0.0,0.0,0.0,0.0,0.0,0.0,0.0,0.0,0.0,0.0,0.0,0.0,0.0,0.0,0.0,0.0,0.0,0.0,0.0,0.0,0.0,0.0,0.0,0.0,0.0,0.0,0.0,0.0,0.0,0.0,0.0,0.0,0.0,0.0,0.0,0.0,0.0,0.0,0.0903,0.1099,0.1531,0.2043,0.2357,0.2475,0.2514,0.2514,0.2514,0.2515,0.2536,0.2556,0.2577,0.2594,0.2605,0.2615,0.2583,0.2598,0.2611,0.2622,0.2677,0.2684,0.244,0.2229,-1.2482,-1.2475,-1.2637,-1.2814,-1.2879,-1.2616,-1.2246,-1.1864,-1.1485,-1.1196,-1.0914,-1.0792,-1.0717,-1.0724,-1.0717,-1.0717,-1.0717,-1.0717,-1.0717,-1.0765,-1.0833,-1.0948,-1.1083,-1.1274,-1.1423,-1.1469,-1.1344,-1.0125,-0.7295,-0.621,-0.4911,-0.274,-0.2364,-0.2395,-0.2425,-0.2454,-0.2485,-0.2511,-0.2514,-0.2514,-0.2514,-0.2514,-0.2514,-0.2396,-0.2118,-0.1719,-0.1288,-0.0855,-0.0425,0.0,0.0,0.0,0.0,0.0,0.0,0.0,0.0,0.0,0.0,0.0,0.0,0.0,0.0,0.0,0.0,0.0,0.0,0.0,0.0,0.0,0.0,0.0,0.0,0.0,0.0,0.0,0.0,0.0,0.0,0.0,0.0,0.0,0.0,0.0,0.0,0.0,0.0,0.0,0.0,0.0,0.0825,0.1217,0.1413,0.1728,0.2239,0.2435,0.2475,0.2514,0.2515,0.2527,0.2538,0.2563,0.2585,0.2608,0.2626,0.2634,0.2602,0.2611,0.262,0.2673,0.2682,0.269,0.2695,0.2703,0.2499,-1.2264,-1.2328,-1.2435,-1.2593,-1.2637,-1.2311,-1.2034,-1.1849,-1.1507,-1.1294,-1.1097,-1.0819,-1.0725,-1.0711,-1.0717,-1.0717,-1.0717,-1.0717,-1.0717,-1.0758,-1.0846,-1.0934,-1.1118,-1.1294,-1.1443,-1.1552,-1.1498,-0.9579,-0.7042,-0.6463,-0.535,-0.2964,-0.2368,-0.2399,-0.2429,-0.2459,-0.2492,-0.2508,-0.2514,-0.2514,-0.2514,-0.2514,-0.2514,-0.2357,-0.216,-0.1768,-0.1374,-0.0941,-0.0507,0.0,0.0,0.0,0.0,0.0,0.0,0.0,0.0,0.0,0.0,0.0,0.0,0.0,0.0,0.0,0.0,0.0,0.0,0.0,0.0,0.0,0.0,0.0,0.0,0.0,0.0,0.0,0.0,0.0,0.0,0.0,0.0,0.0,0.0,0.0,0.0,0.0,0.0,0.0,0.0,0.0,0.0982,0.1413,0.1689,0.2082,0.2475,0.2514,0.2514,0.2519,0.2523,0.2542,0.2563,0.2592,0.2619,0.2601,0.2615,0.262,0.2669,0.2679,0.2687,0.2688,0.269,0.2695,0.2668,0.2677,0.2691,-1.2044,-1.2273,-1.2059,-1.2136,-1.2275,-1.1699,-1.1404,-1.1301,-1.1013,-1.088,-1.0968,-1.0928,-1.0867,-1.0867,-1.0732,-1.0731,-1.0718,-1.0738,-1.0717,-1.0744,-1.0846,-1.0921,-1.1056,-1.1321,-1.147,-1.1494,-1.1181,-0.9651,-0.7268,-0.6761,-0.5445,-0.2588,-0.2399,-0.2429,-0.2496,-0.2485,-0.2504,-0.2514,-0.2514,-0.2514,-0.2514,-0.2514,-0.2514,-0.2435,-0.2396,-0.2121,-0.1768,-0.1413,-0.0941,-0.0548,0.0,0.0,0.0,0.0,0.0,0.0,0.0,0.0,0.0,0.0,0.0,0.0,0.0,0.0,0.0,0.0,0.0,0.0,0.0,0.0,0.0,0.0,0.0,0.0,0.0,0.0,0.0,0.0,0.0,0.0,0.0,0.0,0.0,0.0,0.0,0.0,0.0,0.0,0.0,0.0,0.1178,0.1532,0.1886,0.2239,0.2514,0.2515,0.2517,0.2522,0.2541,0.2571,0.2601,0.2585,0.261,0.2626,0.2636,0.2682,0.2691,0.2692,0.2691,0.2691,0.2691,0.2698,0.2675,0.2695,0.2711]},{"header":{"parameterUnit":"m.s-1","parameterCategory":1,"la1":31.0,"la2":29.5877,"lo1":-88.7671,"lo2":-86.6584,"dy":0.0162,"dx":0.0185,"nx":115,"ny":88,"refTime":"2023-10-02T18:00:00:Z","depth":0,"parameterNumber":3,"parameterNumberName":"V-component_of_WINDS"},"data":[0.0,0.0,0.0,0.0,0.0,0.0,0.0,0.0,0.0,0.0,0.0,0.0,0.0,0.0,0.0,0.0,0.0,0.0,0.0,0.0,0.0,0.0,0.0,0.0,0.0,0.0,0.0,0.0,0.0,0.0,0.0,0.0,0.0,0.0,0.0,0.0,0.0,0.0,0.0,0.0,0.0,0.0,0.0,0.0,0.0,0.0,0.0,0.0,0.0,0.0,0.0,0.0,0.0,0.0,0.0,0.0,0.0,0.0,0.0,0.0,0.0,0.0,0.0,0.0,0.0,0.0,0.0,0.0,0.0,0.0,0.0,0.0,0.0,0.0,0.0,0.0,0.0,0.0,0.0,0.0,0.0,0.0,0.0,0.0,0.0,0.0,0.0,0.0,0.0,0.0,0.0,0.0,0.0,0.0,0.0,0.0,0.0,0.0,0.0,0.0,0.0,0.0,0.0,0.0,0.0,0.0,0.0,0.0,0.0,0.0,0.0,0.0,0.0,0.0,0.0,0.0,0.0,0.0,0.0,0.0,0.0,0.0,0.0,0.0,0.0,0.0,0.0,0.0,0.0,0.0,0.0,0.0,0.0,0.0,0.0,0.0,0.0,0.0,0.0,0.0,0.0,0.0,0.0,0.0,0.0,0.0,0.0,0.0,0.0,0.0,0.0,0.0,0.0,0.0,0.0,0.0,0.0,0.0,0.0,0.0,0.0,0.0,0.0,0.0,0.0,0.0,0.0,0.0,0.0,0.0,0.0,0.0,0.0,0.0,0.0,0.0,0.0,0.0,0.0,0.0,0.0,0.0,0.0,0.0,0.0,0.0,0.0,0.0,0.0,0.0,0.0,0.0,0.0,0.0,0.0,0.0,0.0,0.0,0.0,0.0,0.0,0.0,0.0,0.0,0.0,0.0,0.0,0.0,0.0,0.0,0.0,0.0,0.0,0.0,0.0,0.0,0.0,0.0,0.0,0.0,0.0,0.0,0.0,0.0,0.0,0.0,0.0,0.0,0.0,0.0,0.0,0.0,0.0,0.0,0.0,0.0,0.0,0.0,0.0,0.0,0.0,0.0,0.0,0.0,0.0,0.0,0.0,0.0,0.0,0.0,0.0,0.0,0.0,0.0,0.0,0.0,0.0,0.0,0.0,0.0,0.0,0.0,0.0,0.0,0.0,0.0,0.0,0.0,0.0,0.0,0.0,0.0,0.0,0.0,0.0,0.0,0.0,0.0,0.0,0.0,0.0,0.0,0.0,0.0,0.0,0.0,0.0,0.0,0.0,0.0,0.0,0.0,0.0,0.0,0.0,0.0,0.0,0.0,0.0,0.0,0.0,0.0,0.0,0.0,0.0,0.0,0.0,0.0,0.0,0.0,0.0,0.0,0.0,0.0,0.0,0.0,0.0,0.0,0.0,0.0,0.0,0.0,0.0,0.0,0.0,0.0,0.0,0.0,0.0,0.0,0.0,0.0,0.0,0.0,0.0,0.0,0.0,0.0,0.0,0.0,0.0,0.0,0.0,0.0,0.0,0.0,0.0,0.0,0.0,0.0,0.0,0.0,0.0,0.0,0.0,0.0,0.0,0.0,0.0,0.0,0.0,0.0,0.0,0.0,0.0,0.0,0.0,0.0,0.0,0.0,0.0,0.0,0.0,0.0,0.0,0.0,0.0,0.0,0.0,0.0,0.0,0.0,0.0,0.0,0.0,0.0,0.0,0.0,0.0,0.0,0.0,0.0,0.0,0.0,0.0,0.0,0.0,0.0,0.0,0.0,0.0,0.0,0.0,0.0,0.0,0.0,0.0,0.0,0.0,0.0,0.0,0.0,0.0,0.0,0.0,0.0,0.0,0.0,0.0,0.0,0.0,0.0,0.0,0.0,0.0,0.0,0.0,0.0,0.0,0.0,0.0,0.0,0.0,0.0,0.0,0.0,0.0,0.0,0.0,0.0,0.0,0.0,0.0,0.0,0.0,0.0,0.0,0.0,0.0,0.0,0.0,0.0,0.0,0.0,0.0,0.0,0.0,0.0,0.0,0.0,0.0,0.0,0.0,0.0,0.0,0.0,0.0,0.0,0.0,0.0,0.0,0.0,0.0,0.0,0.0,0.0,0.0,0.0,0.0,0.0,0.0,0.0,0.0,0.0,0.0,0.0,0.0,0.0,0.0,0.0,0.0,0.0,0.0,0.0,0.0,0.0,0.0,0.0,0.0,0.0,0.0,0.0,0.0,0.0,0.0,0.0,0.0,0.0,0.0,0.0,0.0,0.0,0.0,0.0,0.0,0.0,0.0,0.0,0.0,0.0,0.0,0.0,0.0,0.0,0.0,0.0,0.0,0.0,0.0,0.0,0.0,0.0,0.0,0.0,0.0,0.0,0.0,0.0,0.0,0.0,0.0,0.0,0.0,0.0,0.0,0.0,0.0,0.0,0.0,0.0,0.0,0.0,0.0,0.0,0.0,0.0,0.0,0.0,0.0,0.0,0.0,0.0,0.0,0.0,0.0,0.0,0.0,0.0,0.0,0.0,0.0,0.0,0.0,0.0,0.0,0.0,0.0,0.0,0.0,0.0,0.0,0.0,0.0,0.0,0.0,0.0,0.0,0.0,0.0,0.0,0.0,0.0,0.0,0.0,0.0,0.0,0.0,0.0,0.0,0.0,0.0,0.0,0.0,0.0,0.0,0.0,0.0,0.0,0.0,0.0,0.0,0.0,0.0,0.0,0.0,0.0,0.0,0.0,0.0,0.0,0.0,0.0,0.0,0.0,0.0,0.0,0.0,0.0,0.0,0.0,0.0,0.0,0.0,0.0,0.0,0.0,0.0,0.0,0.0,0.0,0.0,0.0,0.0,0.0,0.0,0.0,0.0,0.0,0.0,0.0,0.0,0.0,0.0,0.0,0.0,0.0,0.0,0.0,0.0,0.0,0.0,0.0,0.0,0.0,0.0,0.0,0.0,0.0,0.0,0.0,0.0,0.0,0.0,0.0,0.0,0.0,0.0,0.0,0.0,0.0,0.0,0.0,0.0,0.0,0.0,0.0,0.0,0.0,0.0,0.0,0.0,0.0,0.0,0.0,0.0,0.0,0.0,0.0,0.0,0.0,0.0,0.0,0.0,0.0,0.0,0.0,0.0,0.0,0.0,0.0,0.0,0.0,0.0,0.0,0.0,0.0,0.0,0.0,0.0,0.0,0.0,0.0,0.0,0.0,0.0,0.0,0.0,0.0,0.0,0.0,0.0,0.0,0.0,0.0,0.0,0.0,0.0,0.0,0.0,0.0,0.0,0.0,0.0,0.0,0.0,0.0,0.0,0.0,0.0,0.0,0.0,0.0,0.0,0.0,0.0,0.0,0.0,0.0,0.0,0.0,0.0,0.0,0.0,0.0,0.0,0.0,0.0,0.0,0.0,0.0,0.0,0.0,0.0,0.0,0.0,0.0,0.0,0.0,0.0,0.0,0.0,0.0,0.0,0.0,0.0,0.0,0.0,0.0,0.0,0.0,0.0,0.0,0.0,0.0,0.0,0.0,0.0,0.0,0.0,0.0,0.0,0.0,0.0,0.0,0.0,0.0,0.0,0.0,0.0,0.0,0.0,0.0,0.0,0.0,0.0,0.0,0.0,0.0,0.0,0.0,0.0,0.0,0.0,0.0,0.0,0.0,0.0,0.0,0.0,0.0,0.0,0.0,0.0,0.0,0.0,0.0,0.0,0.0,0.0,0.0,0.0,0.0,0.0,0.0,0.0,0.0,0.0,0.0,0.0,0.0,0.0,0.0,0.0,0.0,0.0,0.0,0.0,0.0,0.0,0.0,0.0,0.0,0.0,0.0,0.0,0.0,0.0,0.0,0.0,0.0,0.0,0.0,0.0,0.0,0.0,0.0,0.0,0.0,0.0,0.0,0.0,0.0,0.0,0.0,0.0,0.0,0.0,0.0,0.0,0.0,0.0,0.0,0.0,0.0,0.0,0.0,0.0,0.0,0.0,0.0,0.0,0.0,0.0,0.0,0.0,0.0,0.0,0.0,0.0,0.0,0.0,0.0,0.0,0.0,0.0,0.0,0.0,0.0,0.0,0.0,0.0,0.0,0.0,0.0,0.0,0.0,0.0,0.0,0.0,0.0,0.0,0.0,0.0,0.0,0.0,0.0,0.0,0.0,0.0,0.0,0.0,0.0,0.0,0.0,0.0,0.0,0.0,0.0,0.0,0.0,0.0,0.0,0.0,0.0,0.0,0.0,0.0,0.0,0.0,0.0,0.0,0.0,0.0,0.0,0.0,0.0,0.9092,0.0,0.0,0.0,0.0,0.0,0.0,0.0,0.0,0.0,0.0,0.0,0.0,0.0,0.0,0.0,0.0,0.0,0.0,0.0,0.0,0.0,0.0,0.0,0.0,0.0,0.0,0.0,0.0,0.0,0.0,0.0,0.0,0.0,0.0,0.0,0.0,0.0,0.0,0.0,0.0,0.0,0.0,0.0,0.0,0.0,0.0,0.0,0.0,0.0,0.0,0.0,0.0,0.0,0.0,0.0,0.0,0.0,0.0,0.0,0.0,0.0,0.0,0.0,0.0,0.0,0.0,0.0,0.0,0.0,0.0,0.0,0.0,0.0,0.0,0.0,0.0,0.0,0.0,0.0,0.0,0.0,0.0,0.0,0.0,0.0,0.0,0.0,0.0,0.0,0.0,0.0,0.0,0.0,0.0,0.0,0.0,0.0,0.0,0.0,0.0,0.0,0.0,0.0,0.0,0.0,0.0,0.0,0.0,0.0,0.0,0.9089,0.9089,0.9089,0.9089,0.9089,0.0,0.0,0.0,0.0,0.0,0.0,0.0,0.0,0.0,0.0,0.0,0.0,0.0,0.0,0.0,0.0,0.0,0.0,0.0,0.0,0.0,0.0,0.0,0.0,0.0,0.0,0.0,0.0,0.0,0.0,0.0,0.0,0.0,0.0,0.0,0.0,0.0,0.0,0.0,0.0,0.0,0.0,0.0,0.0,0.0,0.0,0.0,0.0,0.0,0.0,0.0,0.0,0.0,0.0,0.0,0.0,0.0,0.0,0.0,0.0,0.0,0.0,0.0,0.0,0.0,0.0,0.0,0.0,0.0,0.0,0.0,0.0,0.0,0.0,0.0,0.0,0.0,0.0,0.0,0.0,0.0,0.0,0.0,0.0,0.0,0.0,0.0,0.0,0.0,0.0,0.0,0.0,0.0,0.0,0.0,0.0,0.0,0.0,0.0,0.0,0.0,0.0,0.0,0.0,0.0,0.0,0.0,0.0,0.0,0.0,0.0,0.0,0.9539,0.9536,0.9366,0.0,0.0,0.0,0.0,0.0,0.0,0.0,0.0,0.0,0.0,0.0,0.0,0.0,0.0,0.0,0.0,0.0,0.0,0.0,0.0,0.0,0.0,0.0,0.0,0.0,0.0,0.0,0.0,0.0,0.0,0.0,0.0,0.0,0.0,0.0,0.0,0.0,0.0,0.0,0.0,0.0,0.0,0.0,0.0,0.0,0.0,0.0,0.0,0.0,0.0,0.0,0.0,0.0,0.0,0.0,0.0,0.0,0.0,0.0,0.0,0.0,0.0,0.0,0.0,0.0,0.0,0.0,0.0,0.0,0.0,0.0,0.0,0.0,0.0,0.0,0.0,0.0,0.0,0.0,0.0,0.0,0.0,0.0,0.0,0.0,0.0,0.0,0.0,0.0,0.0,0.0,0.0,0.0,0.0,0.0,0.0,0.0,0.0,0.0,0.0,0.0,0.0,0.0,0.0,0.0,0.0,0.0,0.0,0.0,0.0,1.0111,1.0117,1.078,0.0,1.0146,0.0,0.0,0.0,0.0,0.0,0.0,0.0,0.0,0.0,0.0,0.0,0.0,0.0,0.0,0.0,0.0,0.0,0.0,0.0,0.0,0.0,0.0,0.0,0.0,0.0,0.0,0.0,0.0,0.0,0.0,0.0,0.0,0.0,0.0,0.0,0.0,0.0,0.0,0.0,0.0,0.0,0.0,0.0,0.0,0.0,0.0,0.0,0.0,0.0,0.0,0.0,0.0,0.0,0.0,0.0,0.0,0.0,0.0,0.0,0.0,0.0,0.0,0.0,0.0,0.0,0.0,0.0,0.0,0.0,0.0,0.0,0.0,0.0,0.0,0.0,0.0,0.0,0.0,0.0,0.0,0.0,0.0,0.0,0.0,0.0,0.0,0.0,0.0,0.0,0.0,0.0,0.0,0.0,0.0,0.0,0.0,0.0,0.0,0.0,0.0,0.0,0.0,0.0,0.0,0.0,0.0,0.0,0.0,0.0,0.0,1.0431,1.0921,1.1225,1.1025,0.0,0.0,0.0,0.0,0.0,0.0,0.0,0.0,0.0,0.0,0.0,0.0,0.0,0.0,0.0,0.0,0.0,0.0,0.0,0.0,0.0,0.0,0.0,0.0,0.0,0.0,0.0,0.0,0.0,0.0,0.0,0.0,0.0,0.0,0.0,0.0,0.0,0.0,0.0,0.0,0.0,0.0,0.0,0.0,0.0,0.0,0.0,0.0,0.0,0.0,0.0,0.0,0.0,0.0,0.0,0.0,0.0,0.0,0.0,0.0,0.0,0.0,0.0,0.0,0.0,0.0,0.0,0.0,0.0,0.0,0.0,0.0,0.0,0.0,0.0,0.0,0.0,0.0,0.0,0.0,0.0,0.0,0.0,0.0,0.0,0.0,0.0,0.0,0.0,0.0,0.0,0.0,0.0,0.0,0.0,0.0,0.0,0.0,0.0,0.0,0.0,0.0,0.0,0.0,0.0,0.0,0.0,0.0,0.0,0.0,1.0431,1.1015,1.1951,1.2023,1.1536,1.0566,0.0,0.0,0.0,0.0,0.0,0.0,0.0,0.0,0.0,0.0,0.0,0.0,0.0,0.0,0.0,0.0,0.0,0.0,0.0,0.0,0.0,0.0,0.0,0.0,0.0,0.0,0.0,0.0,0.0,0.0,0.0,0.0,0.0,0.0,0.0,0.0,0.0,0.0,0.0,0.0,0.0,0.0,0.0,0.0,0.0,0.0,0.0,0.0,0.0,0.0,0.0,0.0,0.0,0.0,0.0,0.0,0.0,0.0,0.0,0.0,0.0,0.0,0.0,0.0,0.0,0.0,0.0,0.0,0.0,0.0,0.0,0.0,0.0,0.0,0.0,0.0,0.0,0.0,0.0,0.0,0.0,0.0,0.0,0.0,0.0,0.0,0.0,0.0,0.0,0.0,0.0,0.0,0.0,0.0,0.0,0.0,0.0,0.0,0.0,0.0,0.0,0.0,0.0,0.0,0.0,0.0,0.0,0.0,1.0183,1.0952,1.2023,1.3394,1.3497,1.2807,0.0,0.0,0.0,0.0,0.0,0.0,0.0,0.0,0.0,0.0,0.0,0.0,0.0,0.0,0.0,0.0,0.0,0.0,0.0,0.0,0.0,0.0,0.0,0.0,0.0,0.0,0.0,0.0,0.0,0.0,0.0,0.0,0.0,0.0,0.0,0.0,0.0,0.0,0.0,0.0,0.0,0.0,0.0,0.0,0.0,0.0,0.0,0.0,0.0,0.0,0.0,0.0,0.0,0.0,0.0,0.0,0.0,0.0,0.0,0.0,0.0,0.0,0.0,0.0,0.0,0.0,0.0,0.0,0.0,0.0,0.0,0.0,0.0,0.0,0.0,0.0,0.0,0.0,0.0,0.0,0.0,0.0,0.0,0.0,0.0,0.0,0.0,0.0,0.0,0.0,0.0,0.0,0.0,0.0,0.0,0.0,0.0,0.0,0.0,0.0,0.0,0.0,0.0,0.0,0.0,0.0,0.0,0.0,0.0,1.0981,1.2158,1.3052,1.357,1.3605,1.2922,0.0,0.0,0.0,0.0,0.0,0.0,0.0,0.0,0.0,0.0,0.0,0.0,0.0,0.0,0.0,0.0,0.0,0.0,0.0,0.0,0.0,0.0,0.0,0.0,0.0,0.0,0.0,0.0,0.0,0.0,0.0,0.0,0.0,0.0,0.0,0.0,0.0,0.0,0.0,0.0,0.0,0.0,0.0,0.0,0.0,0.0,0.0,0.0,0.0,0.0,0.0,0.0,0.0,0.0,0.0,0.0,0.0,0.0,0.0,0.0,0.0,0.0,0.0,0.0,0.0,0.0,0.0,0.0,0.0,0.0,0.0,0.0,0.0,0.0,0.0,0.0,0.0,0.0,0.0,0.0,0.0,0.0,0.0,0.0,0.0,0.0,0.0,0.0,0.0,0.0,0.0,0.0,0.0,0.0,0.0,0.0,0.0,0.0,0.0,0.0,0.0,0.0,0.0,0.0,0.0,0.0,0.0,0.0,0.0,1.2089,0.0,1.3985,1.3993,1.3993,1.3194,0.0,0.0,0.0,0.0,0.0,0.0,0.0,0.0,0.0,0.0,0.0,0.0,0.0,0.0,0.0,0.0,0.0,0.0,0.0,0.0,0.0,0.0,0.0,0.0,0.0,0.0,0.0,0.0,0.0,0.0,0.0,0.0,0.0,0.0,0.0,0.0,0.0,0.0,0.0,0.0,0.0,0.0,0.0,0.0,0.0,0.0,0.0,0.0,0.0,0.0,0.0,0.0,0.0,0.0,0.0,0.0,0.0,0.0,0.0,0.0,0.0,0.0,0.0,0.0,0.0,0.0,0.0,0.0,0.0,0.0,0.0,0.0,0.0,0.0,0.0,0.0,0.0,0.0,0.0,0.0,0.0,0.0,0.0,0.0,0.0,0.0,0.0,0.0,0.0,0.0,0.0,0.0,0.0,0.0,0.0,0.0,0.0,0.0,0.0,0.0,0.0,0.0,0.0,0.0,0.0,0.0,0.0,0.0,1.1395,1.3532,1.4403,1.4856,1.483,1.4822,1.3755,0.0,0.0,0.0,0.0,0.0,0.0,0.0,0.0,0.0,0.0,0.0,0.0,0.0,0.0,0.0,0.0,0.0,0.0,0.0,0.0,0.0,0.0,0.0,0.0,0.0,0.0,0.0,0.0,0.0,0.0,0.0,0.0,0.0,0.0,0.0,0.0,0.0,0.0,0.0,0.0,0.0,0.0,0.0,0.0,0.0,0.0,0.0,0.0,0.0,0.0,0.0,0.0,0.0,0.0,0.0,0.0,0.0,0.0,0.0,0.0,0.0,0.0,0.0,0.0,0.0,0.0,0.0,0.0,0.0,0.0,0.0,0.0,0.0,0.0,0.0,0.0,0.0,0.0,0.0,0.0,0.0,0.0,0.0,0.0,0.0,0.0,0.0,0.0,0.0,0.0,0.0,0.0,0.0,0.0,0.0,0.0,0.0,0.0,0.0,0.0,0.0,0.0,0.0,0.0,0.0,0.0,0.0,0.0,0.0,1.5167,1.5921,1.6304,1.6309,1.5822,1.4727,0.0,0.0,0.0,0.0,0.0,0.0,0.0,0.0,0.0,0.0,0.0,0.0,0.0,0.0,0.0,0.0,0.0,0.0,0.0,0.0,0.0,0.0,0.0,0.0,0.0,0.0,0.0,0.0,0.0,0.0,0.0,0.0,0.0,0.0,0.0,0.0,0.0,0.0,0.0,0.0,0.0,0.0,0.0,0.0,0.0,0.0,0.0,0.0,0.0,0.0,0.0,0.0,0.0,0.0,0.0,0.0,0.0,0.0,0.0,0.0,0.0,0.0,0.0,0.0,0.0,0.0,0.0,0.0,0.0,0.0,0.0,0.0,0.0,0.0,0.0,0.0,0.0,0.0,0.0,0.0,0.0,0.0,0.0,0.0,0.0,0.0,0.0,0.0,0.0,0.0,0.0,0.0,0.0,0.0,0.0,0.0,0.0,0.0,0.0,0.0,0.0,0.0,0.0,0.0,0.0,0.0,0.0,0.0,0.0,1.9229,1.916,1.912,1.912,1.8121,1.6477,1.4127,0.0,0.0,0.0,0.0,0.0,0.0,0.0,0.0,0.0,0.0,0.0,0.0,0.0,0.0,0.0,0.0,0.0,0.0,0.0,0.0,0.0,0.0,0.0,0.0,0.0,0.0,0.0,0.0,0.0,0.0,0.0,0.0,0.0,0.0,0.0,0.0,0.0,0.0,0.0,0.0,0.0,0.0,0.0,0.0,0.0,0.0,0.0,0.0,0.0,0.0,0.0,0.0,0.0,0.0,0.0,0.0,0.0,0.0,0.0,0.0,0.0,0.0,0.0,0.0,0.0,0.0,0.0,0.0,0.0,0.0,0.0,0.0,0.0,0.0,0.0,0.0,0.0,0.0,0.0,0.0,0.0,0.0,0.0,0.0,0.0,0.0,0.0,0.0,0.0,0.0,0.0,0.0,0.0,0.0,0.0,0.0,0.0,0.0,0.0,0.0,0.0,0.0,0.0,0.0,0.0,0.0,0.0,0.0,2.5281,2.4102,2.3336,2.2992,2.1475,1.8924,0.0,0.0,0.0,0.0,0.0,0.0,0.0,0.0,0.0,0.0,0.0,0.0,0.0,0.0,0.0,0.0,0.0,0.0,0.0,0.0,0.0,0.0,0.0,0.0,0.0,0.0,0.0,0.0,0.0,0.0,0.0,0.0,0.0,0.0,0.0,0.0,0.0,0.0,0.0,0.0,0.0,0.0,0.0,0.0,0.0,0.0,0.0,0.0,0.0,0.0,0.0,0.0,0.0,0.0,0.0,0.0,0.0,0.0,0.0,0.0,0.0,0.0,0.0,0.0,0.0,0.0,0.0,0.0,0.0,0.0,0.0,0.0,0.0,0.0,0.0,0.0,0.0,0.0,0.0,0.0,0.0,0.0,0.0,0.0,0.0,0.0,0.0,0.0,0.0,0.0,0.0,0.0,0.0,0.0,0.0,0.0,0.0,0.0,0.0,0.0,0.0,0.0,0.0,0.0,0.0,0.0,0.0,0.0,0.0,2.911,3.1524,3.0869,2.7032,2.4895,2.2268,0.0,0.0,0.0,0.0,0.0,0.0,0.0,0.0,0.0,0.0,0.0,0.0,0.0,0.0,0.0,0.0,0.0,0.0,0.0,0.0,0.0,0.0,0.0,0.0,0.0,0.0,0.0,0.0,0.0,0.0,0.0,0.0,0.0,0.0,0.0,0.0,0.0,0.0,0.0,0.0,0.0,0.0,0.0,0.0,0.0,0.0,0.0,0.0,0.0,0.0,0.0,0.0,0.0,0.0,0.0,0.0,0.0,0.0,0.0,0.0,0.0,0.0,0.0,0.0,0.0,0.0,0.0,0.0,0.0,0.0,0.0,0.0,0.0,0.0,0.0,0.0,0.0,0.0,0.0,0.0,0.0,0.0,0.0,0.0,0.0,0.0,0.0,0.0,0.0,0.0,0.0,0.0,0.0,0.0,0.0,0.0,0.0,0.0,0.0,0.0,0.0,0.0,0.0,0.0,0.0,0.0,0.0,0.0,2.7971,3.2051,3.5801,3.6122,3.2775,2.9256,2.5481,0.0,0.0,0.0,0.0,0.0,0.0,0.0,0.0,0.0,0.0,0.0,0.0,0.0,0.0,0.0,0.0,0.0,0.0,0.0,0.0,0.0,0.0,0.0,0.0,0.0,0.0,0.0,0.0,0.0,0.0,0.0,0.0,0.0,0.0,0.0,0.0,0.0,0.0,0.0,0.0,0.0,0.0,0.0,0.0,0.0,0.0,0.0,0.0,0.0,0.0,0.0,0.0,0.0,0.0,0.0,0.0,0.0,0.0,0.0,0.0,0.0,0.0,0.0,0.0,0.0,0.0,0.0,0.0,0.0,0.0,0.0,0.0,0.0,0.0,0.0,0.0,0.0,0.0,0.0,0.0,0.0,0.0,0.0,0.0,0.0,0.0,0.0,0.0,0.0,0.0,0.0,0.0,0.0,0.0,0.0,0.0,0.0,0.0,0.0,0.0,0.0,0.0,0.0,0.0,0.0,0.0,0.0,0.0,2.9843,3.4259,3.8008,3.956,3.8606,3.38,2.8696,0.0,0.0,0.0,0.0,0.0,0.0,0.0,0.0,0.0,0.0,0.0,0.0,0.0,0.0,0.0,0.0,0.0,0.0,0.0,0.0,0.0,0.0,0.0,0.0,0.0,0.0,0.0,0.0,0.0,0.0,0.0,0.0,0.0,0.0,0.0,0.0,0.0,0.0,0.0,0.0,0.0,0.0,0.0,0.0,0.0,0.0,0.0,0.0,0.0,0.0,0.0,0.0,0.0,0.0,0.0,0.0,0.0,0.0,0.0,0.0,0.0,0.0,0.0,0.0,0.0,0.0,0.0,0.0,0.0,0.0,0.0,0.0,0.0,0.0,0.0,0.0,0.0,0.0,0.0,0.0,0.0,0.0,0.0,0.0,0.0,0.0,0.0,0.0,0.0,0.0,0.0,0.0,0.0,0.0,0.0,0.0,0.0,0.0,0.0,0.0,0.0,0.0,0.0,0.0,0.0,0.0,0.0,0.0,3.1878,3.5766,3.9572,4.0848,3.9503,3.6087,3.2007,0.0,0.0,0.0,0.0,0.0,0.0,0.0,0.0,0.0,0.0,0.0,0.0,0.0,0.0,0.0,0.0,0.0,0.0,0.0,0.0,0.0,0.0,0.0,0.0,0.0,0.0,0.0,0.0,0.0,0.0,0.0,0.0,0.0,0.0,0.0,0.0,0.0,0.0,0.0,0.0,0.0,0.0,0.0,0.0,0.0,0.0,0.0,0.0,2.0813,0.0,0.0,0.0,0.0,0.0,0.0,0.0,0.0,0.0,0.0,0.0,0.0,0.0,0.0,0.0,0.0,0.0,0.0,0.0,0.0,0.0,0.0,0.0,0.0,0.0,0.0,0.0,0.0,0.0,0.0,0.0,0.0,0.0,0.0,0.0,0.0,0.0,0.0,0.0,0.0,0.0,0.0,0.0,0.0,0.0,0.0,0.0,0.0,0.0,0.0,0.0,0.0,0.0,0.0,0.0,0.0,0.0,0.0,0.0,3.3051,3.6777,3.9882,4.109,4.0227,3.8318,3.4663,0.0,0.0,0.0,0.0,0.0,0.0,0.0,0.0,0.0,0.0,0.0,0.0,0.0,0.0,0.0,0.0,0.0,0.0,0.0,0.0,0.0,0.0,0.0,0.0,0.0,0.0,0.0,0.0,0.0,0.0,0.0,0.0,0.0,0.0,0.0,0.0,0.0,0.0,0.0,0.0,0.0,0.0,0.0,0.0,0.0,0.0,0.0,0.0,0.0,0.0,0.0,0.0,0.0,0.0,0.0,0.0,0.0,0.0,0.0,0.0,0.0,0.0,0.0,0.0,0.0,0.0,0.0,0.0,0.0,0.0,0.0,0.0,0.0,0.0,0.0,0.0,0.0,0.0,0.0,0.0,0.0,0.0,0.0,0.0,0.0,0.0,0.0,0.0,0.0,0.0,0.0,0.0,0.0,0.0,0.0,0.0,0.0,0.0,0.0,0.0,0.0,0.0,0.0,0.0,0.0,0.0,0.0,2.9765,3.3879,3.7719,3.9859,4.0894,4.0894,4.002,3.649,3.0101,0.0,0.0,0.0,0.0,0.0,0.0,0.0,0.0,0.0,0.0,0.0,0.0,0.0,0.0,0.0,0.0,0.0,0.0,0.0,0.0,0.0,0.0,0.0,0.0,0.0,0.0,0.0,0.0,0.0,0.0,0.0,0.0,0.0,0.0,0.0,0.0,0.0,0.0,1.8707,2.1724,0.0,0.0,0.0,0.0,0.0,0.0,0.0,0.0,2.4858,0.0,0.0,0.0,0.0,0.0,0.0,0.0,0.0,0.0,0.0,0.0,0.0,0.0,0.0,0.0,0.0,0.0,0.0,0.0,0.0,0.0,0.0,0.0,0.0,0.0,0.0,0.0,0.0,0.0,0.0,0.0,0.0,0.0,0.0,0.0,0.0,0.0,0.0,0.0,0.0,0.0,0.0,0.0,0.0,0.0,0.0,0.0,0.0,0.0,0.0,0.0,0.0,0.0,0.0,0.0,0.0,2.7773,3.1067,3.4869,3.9215,4.0365,4.0894,4.086,3.9537,3.6467,3.1593,0.0,0.0,0.0,0.0,0.0,0.0,0.0,0.0,0.0,0.0,0.0,0.0,0.0,0.0,0.0,0.0,0.0,0.0,0.0,0.0,0.0,0.0,0.0,0.0,0.0,0.0,0.0,0.0,0.0,0.0,0.0,0.0,0.0,0.0,0.0,0.0,0.0,0.0,0.0,2.5647,2.7613,0.0,0.0,0.0,0.0,0.0,0.0,0.0,0.0,2.6618,0.0,0.0,0.0,0.0,0.0,0.0,0.0,0.0,0.0,0.0,0.0,0.0,0.0,0.0,0.0,0.0,0.0,0.0,0.0,0.0,0.0,0.0,0.0,0.0,0.0,0.0,0.0,0.0,0.0,0.0,0.0,0.0,0.0,0.0,0.0,0.0,0.0,0.0,0.0,0.0,0.0,0.0,0.0,0.0,0.0,0.0,0.0,0.0,0.0,0.0,0.0,0.0,0.0,0.0,0.0,2.829,3.2154,3.5915,3.9572,4.0503,4.0894,4.086,3.902,3.587,0.0,0.0,0.0,0.0,0.0,0.0,0.0,0.0,0.0,0.0,0.0,0.0,0.0,0.0,0.0,0.0,0.0,0.0,0.0,0.0,0.0,0.0,0.0,0.0,0.0,0.0,0.0,0.0,0.0,0.0,0.0,0.0,0.0,0.0,0.0,0.0,0.0,0.0,0.0,0.0,2.8373,2.9856,3.1249,0.0,0.0,0.0,0.0,0.0,0.0,2.9641,2.9797,0.0,0.0,0.0,0.0,0.0,0.0,0.0,0.0,0.0,0.0,0.0,0.0,0.0,0.0,0.0,0.0,0.0,0.0,0.0,0.0,0.0,0.0,0.0,0.0,0.0,0.0,0.0,0.0,0.0,0.0,0.0,0.0,0.0,0.0,0.0,0.0,0.0,0.0,0.0,0.0,0.0,0.0,0.0,0.0,0.0,0.0,0.0,0.0,0.0,0.0,0.0,0.0,0.0,0.0,0.0,2.8808,3.3051,3.6732,3.9802,4.0666,4.1024,4.0966,3.8518,3.5178,0.0,0.0,0.0,0.0,0.0,0.0,0.0,0.0,0.0,0.0,0.0,0.0,0.0,0.0,0.0,0.0,0.0,0.0,0.0,0.0,0.0,0.0,0.0,0.0,0.0,0.0,0.0,0.0,0.0,0.0,0.0,0.0,0.0,0.0,0.0,0.0,0.0,0.0,0.0,0.0,0.0,3.195,3.3569,3.3237,0.0,0.0,0.0,0.0,3.1869,3.3523,0.0,0.0,0.0,0.0,0.0,0.0,0.0,0.0,0.0,0.0,0.0,0.0,0.0,0.0,0.0,0.0,0.0,0.0,0.0,0.0,0.0,0.0,0.0,0.0,0.0,0.0,0.0,0.0,0.0,0.0,0.0,0.0,0.0,0.0,0.0,0.0,0.0,0.0,0.0,0.0,0.0,0.0,0.0,0.0,0.0,0.0,0.0,0.0,0.0,0.0,0.0,0.0,0.0,0.0,0.0,0.0,3.0291,3.3569,3.7019,4.0561,4.1196,4.1434,4.1399,3.7943,3.4567,0.0,0.0,0.0,0.0,0.0,0.0,0.0,0.0,0.0,0.0,0.0,0.0,0.0,0.0,0.0,0.0,0.0,0.0,0.0,0.0,0.0,0.0,0.0,0.0,0.0,0.0,0.0,0.0,0.0,0.0,0.0,0.0,0.0,0.0,0.0,0.0,0.0,0.0,0.0,0.0,0.0,3.4443,3.5394,3.6011,3.6118,0.0,0.0,3.6663,3.5931,3.9288,0.0,0.0,0.0,0.0,0.0,0.0,0.0,0.0,0.0,0.0,0.0,0.0,0.0,0.0,0.0,0.0,0.0,0.0,0.0,0.0,0.0,0.0,0.0,0.0,0.0,0.0,0.0,0.0,0.0,0.0,0.0,0.0,0.0,0.0,0.0,0.0,0.0,0.0,0.0,0.0,0.0,0.0,0.0,0.0,0.0,0.0,0.0,0.0,0.0,0.0,0.0,0.0,0.0,0.0,0.0,2.4969,3.0126,3.4188,3.7614,4.0354,4.1034,4.1378,4.1477,3.7812,3.44,0.0,0.0,0.0,0.0,0.0,0.0,0.0,0.0,0.0,0.0,0.0,0.0,0.0,0.0,0.0,0.0,0.0,0.0,0.0,0.0,0.0,0.0,0.0,0.0,0.0,0.0,0.0,0.0,0.0,0.0,0.0,0.0,0.0,0.0,0.0,0.0,0.0,0.0,0.0,0.0,0.0,0.0,3.7203,3.852,0.0,0.0,0.0,4.0931,4.0434,0.0,0.0,0.0,0.0,0.0,0.0,0.0,0.0,0.0,0.0,0.0,0.0,0.0,0.0,0.0,0.0,0.0,0.0,0.0,0.0,0.0,0.0,0.0,0.0,0.0,0.0,0.0,0.0,0.0,0.0,0.0,0.0,0.0,0.0,0.0,0.0,0.0,0.0,0.0,0.0,0.0,0.0,0.0,0.0,0.0,0.0,0.0,0.0,0.0,0.0,0.0,0.0,0.0,0.0,0.0,0.0,0.0,3.0216,3.4576,3.7943,4.0276,4.0991,4.1403,4.146,3.8145,0.0,0.0,0.0,0.0,0.0,0.0,0.0,0.0,0.0,0.0,0.0,0.0,0.0,0.0,0.0,0.0,0.0,0.0,0.0,0.0,0.0,0.0,0.0,0.0,0.0,0.0,0.0,1.4672,0.0,0.0,0.0,0.0,0.0,0.0,0.0,0.0,0.0,0.0,0.0,0.0,0.0,0.0,3.7575,3.9294,4.1201,4.2568,0.0,0.0,4.4565,4.4461,4.4393,4.3232,0.0,0.0,0.0,0.0,0.0,0.0,0.0,0.0,0.0,0.0,0.0,0.0,0.0,0.0,0.0,0.0,0.0,0.0,0.0,0.0,0.0,0.0,0.0,0.0,0.0,0.0,0.0,0.0,0.0,0.0,0.0,0.0,0.0,0.0,0.0,0.0,0.0,0.0,0.0,0.0,0.0,0.0,0.0,0.0,0.0,0.0,0.0,0.0,0.0,0.0,0.0,0.0,0.0,0.0,2.5803,3.1367,3.4612,3.7831,4.0899,4.151,4.1705,4.1585,3.9279,3.609,0.0,0.0,0.0,0.0,0.0,0.0,0.0,0.0,0.0,0.0,0.0,0.0,0.0,0.0,0.0,0.0,0.0,0.0,0.0,0.0,0.0,0.0,0.0,0.0,0.0,0.0,0.0,0.0,0.0,0.0,0.0,0.0,0.0,0.0,0.0,0.0,0.0,0.0,0.0,0.0,0.0,4.0317,4.1944,4.4285,4.6218,0.0,4.7234,4.7212,4.7459,4.8758,4.7859,4.2201,0.0,0.0,0.0,0.0,0.0,0.0,0.0,0.0,0.0,0.0,0.0,0.0,0.0,0.0,0.0,0.0,0.0,0.0,0.0,0.0,0.0,0.0,0.0,0.0,0.0,0.0,0.0,0.0,0.0,0.0,0.0,0.0,0.0,0.0,0.0,0.0,0.0,0.0,0.0,0.0,0.0,0.0,0.0,0.0,0.0,0.0,0.0,0.0,0.0,0.0,0.0,0.0,0.0,2.5945,3.1001,3.5335,3.8569,4.0581,4.1795,4.2214,4.1814,3.9934,3.7265,0.0,0.0,0.0,0.0,0.0,0.0,0.0,0.0,0.0,0.0,0.0,0.0,0.0,0.0,0.0,0.0,0.0,0.0,0.0,0.0,0.0,0.0,0.0,0.0,0.0,0.0,0.0,0.0,2.3921,2.4701,2.4971,0.0,0.0,0.0,0.0,0.0,0.0,0.0,0.0,0.0,0.0,4.2471,4.51,4.6918,0.0,0.0,4.9264,4.9049,4.8667,4.8672,4.7297,4.2985,4.0998,0.0,0.0,0.0,0.0,0.0,0.0,0.0,0.0,0.0,0.0,0.0,0.0,0.0,0.0,0.0,0.0,0.0,0.0,0.0,0.0,0.0,0.0,0.0,0.0,0.0,0.0,0.0,0.0,0.0,0.0,0.0,0.0,0.0,0.0,0.0,0.0,0.0,0.0,0.0,0.0,0.0,0.0,0.0,0.0,0.0,0.0,0.0,0.0,0.0,0.0,0.0,0.0,2.6567,3.086,3.5702,3.8891,4.0325,4.1719,4.221,4.1728,4.0572,3.8566,0.0,0.0,0.0,0.0,0.0,0.0,0.0,0.0,0.0,0.0,0.0,0.0,0.0,0.0,0.0,0.0,0.0,0.0,0.0,0.0,0.0,0.0,0.0,0.0,0.0,0.0,0.0,0.0,2.6418,2.6625,2.5815,0.0,0.0,0.0,0.0,0.0,0.0,0.0,0.0,0.0,0.0,4.4712,4.7506,4.8812,4.9777,5.0618,5.0486,5.013,4.9563,4.8727,4.7057,4.3731,0.0,0.0,0.0,0.0,0.0,0.0,0.0,0.0,0.0,0.0,0.0,0.0,0.0,0.0,0.0,0.0,0.0,0.0,0.0,0.0,0.0,0.0,0.0,0.0,0.0,0.0,0.0,1.5206,0.0,0.0,1.289,0.0,0.0,0.0,0.0,0.0,0.0,0.0,0.0,0.0,0.0,0.0,0.0,0.0,0.0,0.0,0.0,0.0,0.0,0.0,0.0,0.0,0.0,2.7791,3.1266,3.5522,3.8493,4.0185,4.1089,4.1494,4.1285,4.1248,3.9959,3.727,0.0,0.0,0.0,0.0,0.0,0.0,0.0,0.0,0.0,0.0,0.0,0.0,0.0,0.0,0.0,0.0,0.0,0.0,0.0,0.0,0.0,0.0,0.0,0.0,0.0,0.0,2.6392,2.7385,2.7471,0.0,0.0,0.0,0.0,0.0,0.0,0.0,0.0,0.0,4.0989,4.4363,4.7148,4.8838,4.9833,5.0686,5.1528,5.0908,5.0289,5.0256,4.9575,4.7919,0.0,0.0,0.0,0.0,0.0,0.0,0.0,0.0,0.0,0.0,0.0,0.0,0.0,0.0,0.0,0.0,0.0,0.0,0.0,0.0,0.0,0.0,0.0,0.0,0.0,0.0,0.0,2.0543,2.112,0.0,0.0,0.0,0.0,0.0,0.0,0.0,0.0,0.0,0.0,0.0,3.1942,3.2597,0.0,0.0,0.0,0.0,0.0,0.0,0.0,0.0,0.0,0.0,0.0,0.0,2.8867,3.2323,3.6465,3.9154,4.031,4.1683,4.1861,4.0756,4.1185,3.9948,3.6843,0.0,0.0,0.0,0.0,0.0,0.0,0.0,0.0,0.0,0.0,0.0,0.0,0.0,0.0,0.0,0.0,0.0,0.0,0.0,0.0,0.0,0.0,0.0,0.0,0.0,2.7454,0.0,0.0,0.0,0.0,0.0,0.0,0.0,0.0,0.0,0.0,3.938,4.1145,4.4514,4.6909,4.8959,5.0702,5.1178,5.1486,0.0,0.0,0.0,0.0,0.0,0.0,0.0,0.0,0.0,0.0,0.0,0.0,0.0,0.0,4.0907,3.4075,3.3568,3.586,4.116,0.0,0.0,0.0,0.0,0.0,0.0,0.0,0.0,0.0,0.0,0.0,0.0,0.0,0.0,2.6158,2.6741,2.6042,0.0,0.0,0.0,0.0,0.0,0.0,0.0,0.0,3.5142,3.7155,3.8054,3.8694,3.865,3.7986,3.6715,3.36,0.0,0.0,0.0,0.0,0.0,0.0,0.0,0.0,3.0832,3.3659,3.7522,3.9825,4.0427,4.143,4.1467,4.0464,4.0859,4.0111,3.7919,3.598,3.3852,0.0,0.0,0.0,0.0,0.0,0.0,0.0,0.0,0.0,0.0,0.0,0.0,0.0,0.0,0.0,0.0,0.0,0.0,0.0,0.0,0.0,0.0,0.0,3.0333,0.0,0.0,0.0,0.0,0.0,0.0,0.0,0.0,0.0,4.1812,4.291,4.4576,4.7678,4.9303,5.0726,5.2262,0.0,0.0,0.0,0.0,0.0,0.0,0.0,4.9868,4.8278,4.8189,4.8442,4.8752,4.9262,4.971,5.0097,0.0,0.0,3.955,3.8557,4.0719,4.6291,4.5568,4.432,4.5051,4.5722,4.6466,0.0,0.0,0.0,0.0,2.2354,0.0,0.0,0.0,3.11,3.1512,0.0,3.1272,0.0,0.0,0.0,0.0,2.8289,3.3093,0.0,0.0,4.2097,4.4148,4.343,4.3474,4.3474,4.331,4.0932,4.005,4.0281,3.4174,0.0,0.0,0.0,0.0,0.0,0.0,3.3697,3.5376,3.8716,4.0434,4.0397,4.0464,4.0471,4.0397,4.0427,4.039,4.0234,3.8025,3.7071,3.7603,3.167,0.0,0.0,0.0,0.0,0.0,0.0,0.0,0.0,0.0,0.0,0.0,0.0,0.0,0.0,0.0,0.0,0.0,0.0,0.0,0.0,3.1962,0.0,0.0,0.0,0.0,0.0,0.0,0.0,0.0,0.0,4.2926,4.5294,4.6412,4.7963,5.0434,0.0,0.0,0.0,0.0,5.3414,5.3531,5.3531,5.3246,5.2466,5.2411,5.1896,5.0248,0.0,0.0,5.2453,5.2603,5.2911,5.3705,5.39,5.1653,4.5001,4.4819,4.6883,5.0305,5.0957,5.062,5.0043,5.1005,5.2059,3.4846,0.0,0.0,0.0,0.0,3.1731,3.4684,3.884,3.8872,3.8999,3.9076,3.7709,0.0,0.0,0.0,0.0,0.0,0.0,3.9788,4.1529,4.4677,4.6431,4.6965,4.7655,4.7648,4.6934,4.633,4.5788,4.5235,4.3394,3.912,3.2828,0.0,0.0,0.0,0.0,3.6287,3.8004,4.0138,4.0984,4.0427,4.0984,4.0984,4.0427,4.0397,4.0093,3.9491,3.9923,3.9412,3.7842,3.5947,0.0,0.0,0.0,0.0,0.0,0.0,0.0,0.0,0.0,0.0,0.0,0.0,0.0,0.0,0.0,0.0,0.0,0.0,0.0,3.499,3.6487,3.6885,0.0,0.0,0.0,0.0,0.0,0.0,0.0,0.0,0.0,4.9062,4.9649,5.0536,0.0,0.0,5.3288,5.368,5.4215,5.4599,5.4667,5.5227,0.0,5.522,5.5215,5.5089,5.4679,5.4724,5.5307,5.6789,5.6959,5.74,5.8927,5.8703,5.742,5.4942,5.0513,4.9869,5.4785,5.6385,5.635,5.6128,5.6477,5.7052,4.5342,4.0608,3.7194,3.6622,3.8064,3.8894,4.1318,4.4669,4.4373,4.4241,4.4153,4.3183,4.0953,3.7866,3.7798,0.0,0.0,0.0,4.3612,4.4932,4.7047,4.8372,4.9036,4.9952,5.0096,4.9514,4.9563,4.9298,4.8772,4.798,4.4876,3.956,0.0,3.6155,3.6183,3.7428,3.9028,4.0977,4.1727,4.1988,4.1832,4.1356,4.091,4.0427,4.0093,3.9647,3.912,4.039,4.0554,3.936,3.863,3.6804,0.0,0.0,0.0,0.0,0.0,0.0,0.0,0.0,0.0,0.0,0.0,2.33,2.5272,0.0,0.0,0.0,3.6319,3.8605,3.9456,3.9852,0.0,0.0,0.0,0.0,0.0,0.0,0.0,4.3257,4.6532,4.9315,5.0962,5.2377,5.3575,5.4554,5.4666,5.4862,5.5298,0.0,5.6248,5.6631,5.69,5.7104,5.715,5.7338,5.7507,5.7576,5.7516,5.8037,5.9673,5.9945,6.0518,6.2046,6.2175,6.1446,6.0348,5.64,5.4582,5.8912,5.991,5.9849,5.9766,5.997,6.06,5.4484,5.2341,4.4266,4.2215,4.4373,4.5135,4.6881,4.9097,4.8262,4.7883,4.7801,4.7649,4.6176,4.3733,4.3409,0.0,4.3866,4.6177,4.7312,4.7649,4.9204,4.9893,4.9931,5.0713,5.1123,5.1085,5.0889,5.0934,5.0957,4.9211,4.7638,4.6179,4.3639,4.1421,3.9742,4.034,4.1779,4.3912,4.3318,4.3362,4.4061,4.1802,4.0576,4.0613,3.9758,3.9319,3.9347,4.0172,4.096,4.1652,4.033,3.9788,4.0137,0.0,0.0,0.0,0.0,0.0,0.0,0.0,0.0,0.0,0.0,0.0,0.0,0.0,0.0,3.7505,3.9502,0.0,4.2943,4.2511,0.0,0.0,0.0,4.2467,4.3342,4.5048,4.6144,4.6138,0.0,0.0,5.1682,5.4537,5.6549,5.6447,5.6478,5.6854,5.7771,5.7848,5.8141,5.8978,5.8597,5.8247,5.8633,5.9022,5.9295,5.9297,5.9259,5.9804,6.1443,6.1754,6.2498,6.4177,6.4415,6.3984,6.2383,6.175,6.1953,6.2025,6.1832,6.1605,6.1579,6.2073,6.2805,5.6446,5.6382,5.363,5.2079,5.1527,5.2312,5.3,5.3421,5.2624,5.1868,5.1123,4.9886,4.8608,4.7388,4.6654,4.673,4.7464,4.8637,4.9232,4.9317,4.9703,4.9893,4.9924,5.0113,5.0189,5.0227,5.0155,5.0162,5.0182,4.9749,4.9016,4.8052,4.7216,4.4951,4.1424,4.266,4.3573,4.4023,4.4469,4.4812,4.4915,4.3177,4.2248,4.224,4.1423,4.1099,4.1301,4.2094,4.2713,4.3102,4.3271,4.2618,4.0939,3.7208,0.0,0.0,0.0,0.0,0.0,0.0,0.0,0.0,0.0,3.0881,3.362,0.0,4.3254,0.0,4.459,4.6008,4.5812,4.5597,0.0,0.0,4.5214,4.6062,4.7104,4.8696,4.9834,5.0022,5.1927,5.3423,5.3946,5.5513,5.6797,5.7371,5.8032,5.8543,5.879,5.9368,5.9794,6.0039,6.0392,6.0821,6.0821,6.0977,6.1016,6.1093,6.0548,6.09,6.3283,6.3125,6.3438,6.5625,6.5663,6.539,6.5468,6.4609,6.4259,6.5077,6.3554,6.2103,6.3285,6.3746,6.4273,5.8258,5.8631,5.7712,5.6992,5.6491,5.6337,5.624,5.6083,5.5278,5.4686,5.4081,5.2375,5.1354,5.0909,5.0417,5.0069,4.9917,5.1054,5.0985,4.9924,5.0296,5.0265,4.9924,5.0303,5.0486,5.0492,5.0834,5.0834,5.0486,5.0492,4.9886,4.8711,4.894,4.7253,4.384,4.4508,4.5207,4.582,4.6458,4.6389,4.5661,4.4745,4.4113,4.3731,4.2943,4.2383,4.2196,4.2945,4.346,4.3593,4.4347,4.4297,4.3272,4.0414,3.7252,0.0,0.0,0.0,0.0,0.0,0.0,0.0,0.0,0.0,0.0,0.0,4.652,4.5768,4.732,4.8268,4.7899,4.7942,4.8099,4.8424,4.8972,4.9841,5.1208,5.223,5.2984,5.3465,5.471,5.5871,5.6603,5.766,5.8441,5.8909,5.969,6.0118,5.9806,6.0119,6.0549,6.0939,6.0938,6.1133,6.1602,6.1719,6.1719,6.168,6.1289,6.1603,6.3399,6.3673,6.4179,6.5858,6.6172,6.625,6.6679,6.6094,6.5664,6.5624,6.496,6.4297,6.4726,6.4883,6.5261,5.9773,5.9618,5.8879,5.8943,5.9442,5.833,5.7843,5.7798,5.7118,5.674,5.6449,5.4859,5.4083,5.401,5.3933,5.3106,5.1816,5.3262,5.2631,5.039,5.104,5.0882,5.0004,5.0696,5.1023,5.1089,5.1743,5.175,5.1089,5.1051,5.035,4.8985,4.9593,4.8768,4.6485,4.6214,4.6765,4.8002,4.8421,4.7903,4.6455,4.6448,4.6069,4.5374,4.4437,4.3614,4.2953,4.3511,4.3815,4.3888,4.4522,4.5302,4.6131,4.3306,4.1005,0.0,3.6558,0.0,0.0,0.0,0.0,0.0,0.0,0.0,0.0,4.5611,4.7452,4.856,4.9096,4.9562,4.9957,5.0146,5.0815,5.2124,5.2534,5.3269,5.4699,5.5147,5.5522,5.6083,5.7125,5.8089,5.8557,5.9612,6.0198,5.9963,6.0548,6.0782,6.0354,6.0276,6.0705,6.1563,6.086,6.0782,6.1524,6.1719,6.1719,6.1719,6.168,6.2031,6.2891,6.3595,6.4414,6.5429,6.6133,6.6601,6.6757,6.6796,6.6445,6.5663,6.6053,6.6289,6.5741,6.5507,6.5858,6.0354,5.9716,5.9537,5.9141,5.8688,5.9104,5.9279,5.922,5.9065,5.8439,5.7474,5.6338,5.5791,5.5701,5.5175,5.4731,5.4471,5.4924,5.4188,5.2403,5.2412,5.168,5.034,5.0196,5.02,5.038,5.0384,5.039,5.0399,5.0367,5.0288,5.0095,5.021,4.9662,4.8495,0.0,0.0,0.0,4.8245,4.8466,4.8162,4.8143,4.8054,4.7865,4.6424,0.0,4.572,4.5186,4.4998,4.5208,4.5366,0.0,0.0,0.0,0.0,0.0,0.0,0.0,0.0,0.0,0.0,0.0,4.5222,4.6105,4.609,4.7583,4.9543,5.1856,5.2043,5.2438,5.3572,5.3818,5.3757,5.3401,5.4051,5.4697,5.5048,5.5815,5.6391,5.6499,5.7298,5.7621,5.7386,5.8401,5.9104,5.8597,5.9065,5.9494,5.9416,5.9963,6.0744,6.1485,6.1446,6.1407,6.168,6.1719,6.1719,6.1719,6.1719,6.2031,6.2774,6.3086,6.3828,6.5194,6.5741,6.6053,6.664,6.6796,6.6679,6.6484,6.664,6.6562,6.578,6.5624,6.5819,5.9749,5.9315,5.8891,5.846,0.0,5.8534,5.8955,5.9322,6.0007,5.9673,5.8632,5.8165,5.7652,5.7092,5.5941,5.5384,5.5314,5.4193,5.3163,5.2352,5.1802,5.1151,5.038,5.0201,5.0203,5.0285,5.0192,5.0197,5.0291,5.0291,5.0336,5.0385,5.0385,5.0166,4.9702,4.9406,4.86,4.7115,4.9253,4.9899,4.9133,4.9854,5.0258,5.018,4.9421,0.0,0.0,0.0,0.0,0.0,0.0,0.0,0.0,4.7631,0.0,4.6208,4.5294,4.5199,4.607,4.6536,4.7506,4.9216,5.098,5.1225,4.949,5.1154,5.2747,5.3798,5.464,5.5404,5.5969,5.6179,5.6093,5.5662,5.6094,5.6451,5.6454,5.6513,5.6839,5.7426,5.8049,5.8363,5.8285,5.9064,5.9339,5.8636,5.8791,5.9103,5.9181,5.9846,6.0705,6.1563,6.1719,6.1719,6.1719,6.1719,6.1719,6.1719,6.1719,6.1875,6.2265,6.2696,6.3321,6.4179,6.4648,6.5118,6.5508,6.6211,6.6562,6.5898,6.625,6.6328,6.5352,6.5624,6.6289,5.9038,5.8726,5.818,5.7752,5.7479,5.7635,5.8297,5.9297,6.0375,0.0,0.0,5.9872,5.937,5.8553,5.7022,5.6403,5.6354,5.4038,5.2766,5.2443,5.1528,5.0909,5.0469,5.0411,5.0401,5.0466,5.0434,5.0439,5.0466,5.0471,5.0443,5.0469,5.0469,5.0469,5.044,5.01,4.9028,4.7533,5.0181,5.1043,4.9842,5.1221,5.2074,5.2135,5.1982,5.1592,5.0938,5.0784,5.0361,4.9707,5.0322,5.0245,4.9317,4.9779,4.9586,4.8582,4.8466,4.9317,5.1246,5.1515,5.2574,5.4842,5.5741,5.5346,5.32,5.4896,5.5958,5.5644,5.7338,5.8273,5.7935,5.8045,5.8096,5.7894,5.7945,5.8011,5.7972,5.7309,5.727,5.8247,5.8792,5.9181,5.9417,5.9807,5.9768,5.8908,5.8479,5.8752,5.8947,5.9533,6.0276,6.0744,6.125,6.1641,6.1446,6.1602,6.168,6.1719,6.1719,6.1719,6.1797,6.2304,6.2774,6.3086,6.3634,6.4064,6.4376,6.5274,6.5703,6.4533,6.5274,6.5898,6.5001,6.5625,6.6484,5.9232,5.7947,5.8531,5.7985,5.6702,5.7401,5.8609,6.0078,6.0139,6.0472,6.0969,6.077,6.0591,6.0313,5.9543,5.9548,6.006,5.8458,5.688,5.5371,5.4405,5.2829,5.0872,5.0514,5.0502,5.0649,5.0492,5.0497,5.0616,5.0664,5.069,5.0829,5.0807,5.0807,5.0888,5.1454,5.0994,4.9363,4.9725,5.0172,5.0709,5.1597,5.24,5.3046,5.2387,5.1896,5.1741,5.1125,5.0635,5.0515,5.0635,5.1553,5.3439,5.2972,5.3203,5.4323,5.4477,5.4362,5.4016,5.4593,5.5527,5.6677,5.7048,5.7267,5.7559,5.7469,5.7939,5.9107,6.0268,6.0765,5.9968,5.9875,5.9678,5.9013,5.8903,5.8908,5.8869,5.8168,5.8011,5.8869,5.9064,5.883,5.848,5.8909,5.8791,5.7425,5.7308,5.7309,5.7972,5.8714,5.9065,5.9143,6.047,6.1133,6.0704,6.1133,6.1602,6.1719,6.1719,6.1719,6.1719,6.1875,6.2226,6.2852,6.3086,6.3399,6.4025,6.3985,6.4064,6.3985,6.422,6.4336,6.496,6.5546,6.582,5.7762,5.713,5.7479,5.7206,5.6585,5.7362,5.8687,6.0241,6.0194,6.0628,6.1388,6.1327,6.125,6.108,5.9887,5.9484,5.9719,5.8143,5.6671,5.5424,5.4911,5.3614,5.1706,5.1442,5.118,5.0846,5.0713,5.0713,5.0808,5.0812,5.0841,5.0898,5.0898,5.0898,5.0937,5.1289,5.1134,5.0399,5.0809,5.1179,5.1537,5.237,5.3415,5.467,5.4265,5.4043,5.4018,5.3646,5.34,5.34,5.3867,5.4439,5.5093,5.5203,5.5453,5.5847,5.5856,5.5946,5.6093,5.6871,5.7717,5.8649,5.8829,5.9266,6.0058,5.9417,5.9279,6.005,6.1006,6.1437,6.1049,6.1079,6.0783,5.9885,5.9806,5.9611,5.9142,5.8791,5.887,5.9611,5.9806,5.9456,5.8636,5.8869,5.8479,5.6995,5.6917,5.727,5.723,5.7855,5.8519,5.8792,5.965,6.0196,6.0237,6.1016,6.1641,6.1719,6.1719,6.1719,6.1719,6.1719,6.1875,6.2187,6.2304,6.2422,6.2891,6.2696,6.2657,6.2852,6.3867,6.4375,6.4414,6.4887,6.5711,5.6488,5.6474,5.6474,5.6509,5.6585,5.7362,5.8492,5.97,5.9698,6.0204,6.0984,6.1412,6.1568,6.1449,5.9934,5.9327,5.9227,5.7672,5.6489,5.5793,5.5539,5.461,5.3228,5.305,5.2608,5.1869,5.1792,5.1559,5.125,5.1173,5.1095,5.0937,5.0898,5.0898,5.0898,5.0898,5.0898,5.0941,5.1559,5.2089,5.2404,5.3056,5.4228,5.576,5.6039,5.6125,5.61,5.6264,5.6341,5.637,5.6994,5.7178,5.671,5.7101,5.725,5.693,5.6908,5.7312,5.8202,5.8901,5.9613,6.0274,6.0461,6.0824,6.14,6.0833,6.043,6.0618,6.1179,6.1591,6.1629,6.1679,6.1446,6.0783,6.0705,6.0471,5.9806,5.9533,5.9728,6.051,6.051,6.0119,5.9572,5.9377,5.883,5.7737,5.7582,5.7543,5.7308,5.7582,5.8128,5.8713,5.883,5.9103,6.0119,6.1133,6.1641,6.1719,6.1719,6.1602,6.1485,6.1485,6.1524,6.1524,6.1602,6.1758,6.1758,6.1758,6.1797,6.1992,6.2968,6.3867,6.3364,6.4271,6.5488,5.651,5.6492,5.6572,5.6482,5.6663,5.7403,5.7869,5.8024,5.7947,5.8414,5.9427,6.0906,6.1568,6.149,6.055,6.0485,6.0981,5.946,5.853,5.8269,5.7578,5.6687,5.5784,5.5667,5.5238,5.4465,5.4349,5.3536,5.2225,5.2109,5.1718,5.0975,5.0898,5.0937,5.0937,5.0937,5.0898,5.0898,5.0979,5.1792,5.3261,5.3455,5.428,5.5932,5.6709,5.7043,5.6945,5.7867,5.8291,5.8264,5.8401,5.8867,5.9403,5.8944,5.8874,5.9544,5.9587,5.9982,6.0737,6.1112,6.1206,6.1327,6.1439,6.1553,6.167,6.1588,6.1549,6.1553,6.1632,6.1672,6.1718,6.1719,6.1641,6.1524,6.1485,6.1524,6.125,6.0744,6.0627,6.1485,6.0861,6.0354,6.0237,6.0119,5.9768,5.8752,5.8285,5.8168,5.8324,5.8169,5.8169,5.8596,5.7971,5.8127,5.9885,6.1134,6.1602,6.1719,6.168,6.1407,6.1094,6.1211,6.1524,6.1172,6.125,6.168,6.1719,6.1719,6.1719,6.1722,6.2152,6.2348,6.2864,6.3811,6.4792,5.8233,5.8631,5.8159,5.7972,5.8031,5.8336,5.8453,5.8453,5.8453,5.8687,5.9038,5.9778,6.0363,6.0789,6.0438,6.0504,6.0721,6.002,5.9407,5.8925,5.8972,5.8318,5.707,5.6874,5.6404,5.5664,5.5538,5.4929,5.385,5.3231,5.2767,5.2492,5.2453,5.2182,5.1718,5.1679,5.1409,5.0902,5.0992,5.1583,5.2701,5.324,5.4084,5.5315,5.6626,5.7312,5.7398,5.8192,5.8865,5.9354,5.9426,5.9866,6.0718,6.0391,6.0378,6.0839,6.0984,6.1127,6.1478,6.1588,6.1643,6.1604,6.1667,6.1719,6.1719,6.1719,6.1719,6.1719,6.1719,6.1719,6.1719,6.1719,6.1719,6.1719,6.1719,6.1524,6.0978,6.1095,6.1172,6.1017,6.1094,6.0939,6.0432,5.9924,5.9533,5.922,5.9104,5.9183,5.8597,5.8446,5.872,5.8948,5.8752,5.9104,6.0277,6.1134,6.1602,6.1602,6.125,6.0783,6.1095,6.0861,6.0899,6.1056,6.1447,6.1681,6.1719,6.1719,6.172,6.1727,6.2283,6.2718,6.3623,6.4055,6.4487,5.9055,5.9725,5.9486,5.9229,5.9015,5.9014,5.8739,5.8304,5.833,5.8449,5.87,5.8878,5.9504,6.0254,6.0302,6.0399,6.0633,6.0674,6.0302,5.9721,6.0292,5.9832,5.8655,5.8481,5.801,5.7339,5.7138,5.6549,5.5427,5.4082,5.3618,5.3777,5.3627,5.3069,5.2337,5.2253,5.1851,5.1079,5.1089,5.1405,5.2017,5.279,5.376,5.4938,5.6562,5.7486,5.752,5.8313,5.9056,5.9669,5.9713,6.0147,6.096,6.1014,6.1152,6.1484,6.1421,6.1446,6.168,6.1719,6.172,6.1723,6.1725,6.1725,6.1727,6.1722,6.172,6.1723,6.172,6.1719,6.1719,6.1719,6.1719,6.1719,6.1719,6.1407,6.0939,6.1368,6.1446,6.0939,6.1328,6.1485,6.0861,6.0314,5.9962,6.0001,6.0157,6.0239,5.9149,5.9311,5.9546,5.9778,6.0207,6.0479,6.0751,6.1259,6.1609,6.126,6.0755,6.052,6.0869,6.0246,6.0207,6.0446,6.1144,6.1456,6.1224,6.1262,6.1378,6.1505,6.2019,6.2728,6.3082,6.3513,6.3671,5.8212,5.9084,5.9881,5.9764,5.9131,5.9089,5.819,5.6936,5.6755,5.7151,5.803,5.8633,5.9496,6.0374,6.0306,6.0755,6.1456,6.1424,6.1385,6.1298,6.137,6.137,6.1352,6.1147,6.0538,5.9681,5.9528,5.8764,5.7121,5.4868,5.3923,5.4717,5.4174,5.3261,5.2571,5.2539,5.2046,5.1369,5.1228,5.1236,5.1392,5.2122,5.337,5.4903,5.6647,5.742,5.7575,5.8457,5.899,5.8973,5.9102,5.9553,6.0335,6.0443,6.0784,6.1403,6.0898,6.0822,6.1524,6.1642,6.1647,6.1695,6.1697,6.17,6.1705,6.1694,6.1689,6.1697,6.1611,6.1566,6.1721,6.172,6.1719,6.1719,6.1719,6.168,6.1641,6.1602,6.168,6.1602,6.1641,6.1642,6.1563,6.1602,6.1408,6.1253,6.0862,6.0515,6.0837,6.0604,6.0608,6.1041,6.1355,6.1589,6.1622,6.1425,6.1156,6.0728,6.0259,5.991,5.9365,5.9053,5.9404,5.9911,6.0807,6.108,6.0652,6.0497,6.0574,6.0851,6.144,6.2029,6.242,6.1992,6.2305,6.0246,6.0479,6.0345,6.0117,5.9843,5.9331,5.8742,5.8117,5.7563,5.7799,5.8468,5.8345,5.9048,6.0381,6.0364,6.082,6.1521,6.1093,6.1093,6.152,6.1589,6.1544,6.154,6.1456,6.1263,6.1008,6.0881,6.0296,5.9156,5.7648,5.6792,5.6556,5.6321,5.5485,5.4203,5.3563,5.2918,5.2068,5.1559,5.1269,5.139,5.2158,5.3185,5.4316,5.546,5.6316,5.6928,5.7838,5.8507,5.909,5.9134,5.9292,5.9565,5.96,5.9709,5.9935,5.9739,5.9934,6.0715,6.0871,6.111,6.1626,6.1705,6.1706,6.1708,6.1707,6.1706,6.1588,6.0964,6.0885,6.1543,6.1689,6.1719,6.1719,6.1719,6.172,6.1719,6.1719,6.1719,6.1719,6.1719,6.1721,6.169,6.1692,6.1695,6.166,6.1427,6.1156,6.0847,6.0538,6.0618,6.0774,6.0892,6.1049,6.1672,6.1122,6.0653,6.007,5.9563,5.921,5.8741,5.886,5.9211,5.9328,6.0226,6.05,5.9992,6.0112,6.0151,6.0543,6.1092,6.1601,6.1718,6.1719,6.2109,6.2238,6.2164,6.1715,6.1196,6.0655,5.9843,5.918,5.8672,5.8085,5.8437,5.9219,5.8866,5.9452,6.0664,6.082,6.1094,6.1562,6.1051,6.1084,6.1552,6.1591,6.1591,6.159,6.1536,6.1482,6.1429,6.1118,6.0813,6.0484,5.9436,5.8618,5.8027,5.8055,5.7055,5.5339,5.4811,5.416,5.3115,5.2435,5.2173,5.2254,5.2772,5.3398,5.3984,5.4524,5.5382,5.6562,5.7187,5.7734,5.8281,5.8359,5.8475,5.8709,5.8745,5.8818,5.9046,5.885,5.9241,6.0217,6.0413,6.0767,6.1594,6.1712,6.1712,6.1714,6.1716,6.1715,6.1518,6.1088,6.0932,6.1474,6.1699,6.1691,6.1691,6.1691,6.1691,6.1691,6.1691,6.1691,6.169,6.1694,6.1697,6.1699,6.1701,6.1704,6.1709,6.1709,6.1397,6.0971,6.0817,6.0818,6.0817,6.0936,6.1209,6.1289,6.0781,5.9883,5.9258,5.8828,5.8476,5.832,5.8555,5.8789,5.8906,5.9101,5.9375,5.9609,5.9765,6.0039,6.0351,6.1015,6.168,6.1719,6.1719,6.2148,6.3952,6.3867,6.4042,6.2929,6.1565,6.0739,5.9458,5.8258,5.7923,5.8859,6.0253,6.0304,6.0733,6.1652,6.1848,6.1803,6.1894,6.1758,6.1597,6.1597,6.1596,6.1596,6.1596,6.1548,6.1501,6.1497,6.0631,6.0633,6.1209,5.9855,5.8995,5.8913,5.8775,5.7544,5.5277,5.5851,5.5547,5.4297,5.3828,5.3828,5.3984,5.3867,5.3945,5.4101,5.418,5.4961,5.6523,5.6601,5.664,5.6758,5.6758,5.7031,5.7772,5.7888,5.8199,5.8624,5.8272,5.874,6.0029,6.0264,6.0618,6.1403,6.1677,6.1717,6.1718,6.1719,6.1718,6.1678,6.1442,6.1518,6.1594,6.1436,6.1435,6.1708,6.1628,6.155,6.1668,6.1709,6.1707,6.1704,6.163,6.1672,6.1668,6.155,6.1554,6.1672,6.1711,6.1674,6.1521,6.1483,6.1601,6.1601,6.1445,6.1445,6.0976,6.0351,5.9297,5.8398,5.8047,5.7734,5.7539,5.7656,5.7969,5.8125,5.8242,5.8515,5.9023,5.9219,5.9805,6.0234,6.1015,6.168,6.1719,6.1758,6.2031,6.4503,6.3952,6.3387,6.2902,6.2334,6.1556,6.0567,5.9573,5.8999,5.9699,6.0981,6.0638,6.1535,6.3128,6.3478,6.3478,6.344,6.2874,6.2255,6.1748,6.1669,6.167,6.167,6.1634,6.1636,6.16,6.1366,6.1322,6.1358,6.0457,5.9675,5.9129,5.8555,5.7536,5.6172,5.5859,5.5351,5.4922,5.4297,5.3984,5.3984,5.3984,5.4297,5.4805,5.4922,5.5469,5.6484,5.6015,5.6015,5.6562,5.6601,5.6719,5.6953,5.7031,5.7108,5.7301,5.7183,5.7457,5.8551,5.9293,5.9959,6.0742,6.1367,6.1679,6.1719,6.1719,6.1719,6.1562,6.0742,6.0351,6.1132,6.0038,6.0075,6.1515,6.1201,6.1045,6.1515,6.1712,6.171,6.1588,6.1007,6.0893,6.1322,6.1245,6.109,6.1562,6.168,6.1719,6.1719,6.164,6.1718,6.1719,6.164,6.125,6.039,5.9726,5.9023,5.8086,5.7539,5.7265,5.7031,5.7031,5.7305,5.7461,5.7578,5.793,5.8398,5.8984,5.9687,6.0312,6.1133,6.1484,6.164,6.1836,6.207,6.5378,6.4888,6.4371,6.3759,6.3258,6.2736,6.1878,6.0807,5.9959,6.0392,6.1368,6.1133,6.1954,6.3595,6.4142,6.4298,6.4181,6.3399,6.2696,6.2148,6.1797,6.1719,6.1719,6.1719,6.1726,6.1697,6.1708,6.1714,6.1677,6.1132,6.0312,5.9258,5.8945,5.8047,5.6797,5.6406,5.6172,5.5781,5.5273,5.4961,5.4961,5.4961,5.5234,5.5703,5.5781,5.6055,5.6523,5.6055,5.6055,5.6484,5.6601,5.6601,5.6601,5.664,5.6601,5.6601,5.6679,5.7108,5.8241,5.8983,5.9726,6.0703,6.1406,6.168,6.1719,6.1719,6.1719,6.1484,6.0859,6.0547,6.1211,6.043,6.0195,6.1442,6.0621,6.0426,6.1051,6.1521,6.1677,6.1519,6.0817,6.0232,5.9725,6.0507,6.0507,6.1133,6.1484,6.1719,6.164,6.1406,6.1328,6.1211,6.1094,6.0469,5.957,5.9062,5.8672,5.789,5.7148,5.6914,5.6719,5.6875,5.7109,5.7148,5.7265,5.8086,5.8633,5.9336,6.0039,6.0664,6.1289,6.1484,6.1719,6.1719,6.1992,6.6392,6.6442,6.651,6.5486,6.4181,6.4118,6.3144,6.1598,6.0806,6.0858,6.1444,6.1563,6.2148,6.3086,6.4064,6.4532,6.422,6.3595,6.3204,6.2813,6.2226,6.1719,6.1719,6.1719,6.1725,6.1695,6.17,6.1708,6.1676,6.1444,6.078,5.9375,5.9531,5.8984,5.7109,5.7383,5.7148,5.6523,5.6484,5.6406,5.6445,5.6484,5.6484,5.6523,5.6523,5.6523,5.6562,5.6523,5.6523,5.6601,5.6601,5.6601,5.6601,5.6601,5.6601,5.6758,5.6719,5.7578,5.875,5.9297,5.9922,6.1172,6.1523,6.1719,6.1719,6.1719,6.1719,6.168,6.1406,6.1445,6.1601,6.1172,6.1211,6.125,6.043,6.0117,6.039,6.1172,6.164,6.1562,6.0859,5.9492,5.7539,5.8867,5.9883,6.043,6.0898,6.1133,6.1133,6.0742,6.0469,6.0469,6.0625,6.0312,5.9609,5.957,5.918,5.8515,5.7773,5.7539,5.7265,5.7344,5.7461,5.7422,5.75,5.8281,5.8984,5.9726,6.0469,6.1211,6.1562,6.168,6.1836,6.1992,6.2422,6.5534,6.5615,6.6259,6.5945,6.5016,6.5019,6.3714,6.1744,6.1405,6.1154,6.1013,6.1446,6.2226,6.3125,6.4609,6.5273,6.5038,6.4376,6.3946,6.3712,6.2343,6.1758,6.1719,6.1719,6.172,6.1726,6.1699,6.1708,6.1634,6.1131,6.0312,5.9219,5.8867,5.8047,5.6836,5.6914,5.6836,5.664,5.6601,5.6601,5.6601,5.6601,5.6601,5.6601,5.6601,5.6601,5.6601,5.6601,5.6601,5.6601,5.6601,5.6601,5.6601,5.6601,5.6836,5.7383,5.7539,5.8008,5.9023,5.9726,6.0312,6.0703,6.1406,6.1719,6.1719,6.1719,6.1719,6.1601,6.1211,6.1055,6.1367,6.0703,6.0078,5.9961,6.039,6.0664,6.0547,6.1133,6.1719,6.1562,6.043,5.8672,5.7539,5.7734,5.8906,5.9414,5.9805,6.0117,6.0234,6.0039,5.9765,6.0195,6.0351,6.0195,6.0,6.0,5.9765,5.918,5.8828,5.8789,5.8594,5.8555,5.8633,5.8633,5.8594,5.914,5.957,6.0117,6.0898,6.1758,6.2148,6.2422,6.2578,6.2773,6.3203,6.5184,6.53,6.6159,6.622,6.5835,6.5826,6.4788,6.3251,6.2395,6.1914,6.1661,6.1988,6.2735,6.3712,6.5312,6.6094,6.6014,6.5234,6.4883,6.4531,6.3047,6.2148,6.1797,6.1719,6.1719,6.172,6.1733,6.1702,6.1631,6.1168,6.0507,5.9726,5.8867,5.8203,5.7773,5.6914,5.6836,5.7031,5.6836,5.6601,5.6601,5.6601,5.6601,5.6601,5.6601,5.6601,5.6601,5.6601,5.6601,5.6601,5.6601,5.6601,5.6601,5.6601,5.6992,5.7812,5.789,5.8398,5.9492,6.0156,6.0547,6.0937,6.1484,6.164,6.1719,6.1719,6.1719,6.164,6.1172,6.125,6.1406,6.0781,6.0156,6.0,6.0586,6.0781,6.0,6.0625,6.125,6.1094,5.9922,5.8203,5.6797,5.7383,5.8008,5.8594,5.9062,5.9453,5.9765,5.9414,5.9414,5.9922,6.0234,6.0156,6.0312,6.039,6.043,5.9883,5.9922,5.9922,5.9531,5.9453,5.9297,5.9336,5.9531,5.9805,6.0117,6.0625,6.1562,6.2265,6.2773,6.3164,6.3359,6.3555,6.3984,6.5095,6.5262,6.612,6.6508,6.6485,6.6542,6.592,6.5055,6.3808,6.3033,6.2816,6.292,6.3243,6.4259,6.5391,6.6484,6.6562,6.5741,6.5468,6.4882,6.3828,6.2813,6.2304,6.207,6.2109,6.2189,6.2031,6.2123,6.2252,6.21,6.1442,6.0664,5.9844,5.9336,5.8789,5.7695,5.7422,5.7773,5.7461,5.7226,5.7148,5.7031,5.6914,5.6875,5.664,5.664,5.6601,5.6601,5.6601,5.6601,5.6601,5.6601,5.6601,5.6601,5.7031,5.7773,5.8125,5.8828,6.0078,6.0469,6.0859,6.1484,6.164,6.1719,6.1719,6.1719,6.1719,6.1719,6.1719,6.164,6.1601,6.1562,6.0976,6.039,6.0351,5.9883,5.9453,5.9805,6.0586,6.1133,5.918,5.7734,5.7109,5.7226,5.7773,5.7695,5.8125,5.8398,5.8789,5.8789,5.914,5.9883,6.0078,6.0195,6.0469,6.0781,6.082,6.0742,6.0976,6.0937,6.0234,6.0,5.9765,5.9805,6.0312,6.0508,6.0508,6.1211,6.2187,6.3008,6.3633,6.3984,6.4219,6.4375,6.4687,6.448,6.5262,6.6159,6.6508,6.6512,6.6488,6.6092,6.5364,6.5,6.4076,6.3225,6.3006,6.3164,6.336,6.4493,6.5196,6.5897,6.5702,6.5273,6.4532,6.4298,6.3946,6.3556,6.3086,6.3125,6.3479,6.3721,6.3687,6.3654,6.339,6.2926,6.1599,6.1172,6.0508,5.9375,5.8984,5.8672,5.8867,5.8672,5.8515,5.832,5.789,5.7617,5.7578,5.7031,5.668,5.664,5.6601,5.6601,5.6601,5.664,5.6719,5.664,5.664,5.7109,5.789,5.8633,5.9375,6.0273,6.1015,6.1484,6.164,6.1719,6.1719,6.1719,6.1719,6.1719,6.1719,6.1719,6.168,6.1562,6.1055,6.0586,6.0234,5.9726,5.9101,5.8555,5.8945,5.9375,5.8945,5.8437,5.7578,5.6719,5.6758,5.6992,5.6914,5.7109,5.7265,5.7734,5.8281,5.9101,6.0039,6.039,6.0625,6.0937,6.1172,6.1211,6.1211,6.1484,6.164,6.0976,6.0742,6.0625,6.0859,6.1289,6.1289,6.1094,6.1914,6.293,6.375,6.4531,6.4844,6.5078,6.5234,6.539,6.3931,6.4635,6.5838,6.6414,6.6505,6.6512,6.6302,6.5926,6.5533,6.4725,6.3764,6.3588,6.3399,6.3086,6.3907,6.4805,6.5546,6.5975,6.5702,6.5118,6.4922,6.4922,6.4882,6.4453,6.4376,6.4416,6.4265,6.4308,6.4316,6.4283,6.378,6.2963,6.2537,6.1914,6.0859,6.0234,5.9765,5.9648,5.9375,5.9219,5.9101,5.8789,5.8515,5.8476,5.8047,5.7812,5.789,5.7851,5.7851,5.7695,5.7422,5.6992,5.6758,5.6992,5.7617,5.8476,5.9297,6.0117,6.0937,6.1406,6.168,6.168,6.1719,6.1719,6.1719,6.1719,6.1719,6.1719,6.168,6.1562,6.1133,6.0781,6.0234,5.9297,5.8867,5.8242,5.7656,5.8047,5.832,5.7734,5.7383,5.707,5.6758,5.6797,5.6719,5.6914,5.6914,5.7187,5.8359,5.8945,5.9609,6.0351,6.082,6.1172,6.1484,6.1601,6.1562,6.1562,6.1601,6.1719,6.1445,6.1445,6.1562,6.1758,6.1875,6.1875,6.1875,6.2773,6.3789,6.5,6.5742,6.5859,6.5976,6.6055,6.6211,6.3343,6.3801,6.5306,6.6074,6.6251,6.6388,6.6453,6.6426,6.5906,6.5344,6.4567,6.4366,6.3673,6.3633,6.3556,6.4414,6.5313,6.5859,6.5586,6.5194,6.539,6.5429,6.5468,6.5507,6.5391,6.4728,6.4846,6.485,6.4856,6.4664,6.4788,6.4401,6.3822,6.3278,6.281,6.1874,6.1094,6.0937,6.0469,6.0,5.9726,5.9531,5.9336,5.9062,5.9023,5.8945,5.8945,5.8984,5.9101,5.914,5.8476,5.7695,5.7187,5.7265,5.7969,5.8711,5.9258,5.9844,6.043,6.1094,6.1406,6.1484,6.168,6.1562,6.1523,6.1523,6.1445,6.125,6.1055,6.0937,6.0469,6.0195,5.957,5.875,5.8242,5.7617,5.7305,5.7578,5.7578,5.7187,5.7031,5.6875,5.707,5.7226,5.7031,5.6914,5.6953,5.7344,5.8555,5.9492,6.0078,6.0586,6.1015,6.1328,6.164,6.1719,6.1719,6.1719,6.1719,6.1797,6.1836,6.207,6.2187,6.2187,6.2265,6.2344,6.2734,6.3515,6.4687,6.6172,6.6562,6.6328,6.6523,6.6836,6.6914,6.2666,6.3526,6.4524,6.4965,6.5129,6.5862,6.6243,6.6425,6.6276,6.6412,6.5962,6.4178,6.3984,6.4258,6.2774,6.3086,6.4298,6.4844,6.4844,6.4766,6.5155,6.5507,6.5702,6.6211,6.6367,6.6445,6.6367,6.6368,6.6255,6.6378,6.5835,6.5449,6.5183,6.4797,6.4175,6.3709,6.3046,6.2461,6.2187,6.1836,6.1328,6.0664,5.9922,5.9453,5.9336,5.9336,5.9258,5.9219,5.9219,5.918,5.9062,5.8515,5.7812,5.7265,5.7148,5.75,5.8203,5.8945,5.918,6.0039,6.0508,6.0781,6.1211,6.1211,6.1055,6.1133,6.0859,6.0195,5.9961,5.9961,6.0351,6.0,5.9765,5.9414,5.8789,5.8203,5.8437,5.8281,5.8047,5.7851,5.7383,5.707,5.7617,5.7969,5.793,5.7969,5.8125,5.832,5.9101,5.9805,6.0312,6.0742,6.1172,6.1445,6.1719,6.1719,6.1719,6.1758,6.1797,6.1953,6.2109,6.2539,6.2734,6.3086,6.3203,6.3281,6.375,6.4297,6.5273,6.6523,6.664,6.664,6.6836,6.6992,6.7109,6.2081,6.2687,6.3572,6.3978,6.4106,6.4533,6.4812,6.4923,6.5148,6.5255,6.4858,6.3731,6.3399,6.3633,6.2578,6.2501,6.3399,6.4181,6.4259,6.4454,6.4727,6.5234,6.5585,6.6406,6.6718,6.707,6.7577,6.7499,6.6876,6.6762,6.6569,6.6337,6.6228,6.5805,6.5146,6.4917,6.4451,6.3866,6.3633,6.3437,6.2969,6.2148,6.1172,6.0156,5.9844,5.9805,5.9844,5.9805,6.0078,6.0351,6.0078,5.9414,5.8555,5.7851,5.7265,5.7383,5.7969,5.8515,5.8672,5.9726,6.0195,5.9922,6.0586,6.082,6.0508,6.0351,6.0,5.9648,6.0234,6.043,6.043,6.0,5.9844,5.9609,5.9023,5.8906,5.9023,5.8789,5.8828,5.8945,5.8672,5.8476,5.8633,5.8828,5.8828,5.8984,5.9219,5.9492,5.9805,6.0156,6.0625,6.1015,6.1406,6.1523,6.1836,6.2031,6.1992,6.1992,6.2187,6.2305,6.2617,6.3164,6.3867,6.4414,6.4453,6.4375,6.4492,6.5,6.5937,6.6758,6.6875,6.6992,6.7031,6.7148,6.7422,6.1475,6.1672,6.2522,6.2925,6.3062,6.3268,6.3466,6.3492,6.3806,6.3969,6.3737,6.3064,6.2756,6.2721,6.2299,6.2109,6.2813,6.3478,6.3595,6.3673,6.3946,6.4492,6.5312,6.5977,6.6484,6.7343,6.7459,6.8007,6.7109,6.707,6.6992,6.676,6.6767,6.6537,6.5957,6.5849,6.5267,6.4568,6.4296,6.4258,6.3906,6.3476,6.2656,6.1211,6.0859,6.0742,6.1015,6.0234,6.0469,6.0703,6.0469,5.9726,5.9023,5.8437,5.8086,5.8047,5.8437,5.8594,5.8789,5.9297,5.9531,5.9375,6.0,6.0234,5.9844,5.9258,5.8672,5.8945,5.9765,6.0469,6.0078,6.0273,6.0195,6.0,5.9726,5.9531,5.9726,5.9805,5.9922,5.9922,5.9844,5.9883,5.9961,5.9648,5.9648,6.0117,6.0351,6.039,6.0664,6.0664,6.1055,6.1406,6.164,6.164,6.1953,6.25,6.25,6.25,6.289,6.3242,6.3594,6.3984,6.4687,6.5312,6.5664,6.5625,6.5664,6.5664,6.6367,6.6914,6.7187,6.7383,6.7539,6.793,6.8359,6.0544,6.0648,6.1451,6.1802,6.1948,6.274,6.3196,6.3252,6.34,6.3657,6.3506,6.238,6.2132,6.2422,6.2086,6.1831,6.199,6.2383,6.2657,6.2774,6.3125,6.3751,6.4415,6.4493,6.5898,6.699,6.6678,6.6484,6.6601,6.7264,6.742,6.6913,6.6799,6.6724,6.6537,6.6465,6.5807,6.4644,6.4372,6.3983,6.3437,6.375,6.3828,6.3203,6.2383,6.1797,6.2031,6.0976,6.0273,6.0625,6.0,5.9023,5.832,5.8789,5.8515,5.793,5.7383,5.6953,5.7383,5.8281,5.8945,5.9297,5.9961,5.9922,5.9336,5.8515,5.7773,5.6953,5.8047,5.918,5.9844,6.0117,6.0625,6.082,6.0586,6.0742,6.0937,6.0508,6.0703,6.0898,6.0781,6.1015,6.1211,6.0781,6.0508,6.1015,6.1406,6.1484,6.164,6.1758,6.164,6.2031,6.2226,6.2226,6.2656,6.3125,6.332,6.3242,6.3672,6.418,6.4453,6.4805,6.5312,6.5898,6.6406,6.6797,6.6758,6.6797,6.6914,6.7344,6.7969,6.8125,6.8164,6.8672,6.9258,6.0377,6.0415,6.0759,6.0905,6.0964,6.1412,6.1632,6.171,6.1885,6.2273,6.2537,6.1755,6.1531,6.1893,6.2056,6.2366,6.2455,6.2835,6.3164,6.289,6.3124,6.3478,6.4142,6.4337,6.5196,6.5898,6.6522,6.6289,6.6367,6.6679,6.7109,6.6874,6.6796,6.6798,6.6805,6.6809,6.6425,6.5769,6.5229,6.4335,6.3594,6.375,6.3867,6.2969,6.2617,6.2695,6.2617,6.2226,6.1484,6.1836,6.1562,6.082,5.9765,5.9492,5.9336,5.875,5.8359,5.8164,5.8242,5.8867,5.914,5.9297,5.9805,5.9844,5.9101,5.914,5.9297,5.957,5.9219,5.9531,6.0273,6.0898,6.1211,6.1406,6.125,6.1367,6.1523,6.1406,6.1328,6.1562,6.1797,6.1953,6.207,6.1758,6.1562,6.1953,6.2383,6.2617,6.293,6.332,6.3047,6.2773,6.289,6.293,6.3555,6.4101,6.4414,6.4492,6.4726,6.5117,6.5234,6.5625,6.6289,6.6836,6.7422,6.7656,6.7773,6.7578,6.7383,6.8086,6.8945,6.8984,6.9101,6.9648,7.0234,6.0377,6.0377,6.0377,6.0377,6.0377,6.0377,6.0422,6.0418,6.0628,6.1079,6.1434,6.1228,6.1109,6.143,6.219,6.2619,6.2746,6.3774,6.3958,6.3731,6.3431,6.3399,6.3595,6.379,6.3985,6.457,6.5936,6.6014,6.5625,6.5781,6.6484,6.6523,6.6679,6.6757,6.6799,6.6764,6.6576,6.619,6.5735,6.492,6.414,6.4375,6.4062,6.3476,6.3086,6.3203,6.3515,6.2695,6.25,6.289,6.2617,6.1758,6.082,6.0508,6.0586,6.0312,6.0273,6.0273,6.0078,6.0117,5.9922,5.9844,5.9883,6.0039,5.9375,6.0469,6.1015,6.043,6.0351,6.0469,6.1133,6.1445,6.164,6.164,6.164,6.168,6.1719,6.1719,6.1953,6.2344,6.2539,6.2656,6.2695,6.2578,6.2617,6.289,6.3281,6.3672,6.4023,6.4414,6.3984,6.3437,6.3594,6.3437,6.3359,6.414,6.4765,6.5742,6.5976,6.6055,6.6172,6.6797,6.7578,6.8086,6.8398,6.871,6.8865,6.832,6.793,6.8984,6.9805,6.9883,7.0117,7.0625,7.1015,6.0377,6.0377,6.0377,6.0377,6.0377,6.0377,6.0377,6.0429,6.0486,6.0591,6.0802,6.0795,6.1036,6.1407,6.2139,6.267,6.2638,6.3587,6.3746,6.3397,6.2933,6.3104,6.3066,6.2873,6.3079,6.4642,6.5153,6.5116,6.5273,6.5196,6.5624,6.5741,6.6094,6.6562,6.6835,6.6838,6.6492,6.6109,6.5733,6.5543,6.5116,6.5273,6.5508,6.5586,6.4375,6.3672,6.5156,6.3476,6.2539,6.3203,6.3047,6.25,6.2031,6.1914,6.2031,6.2226,6.2148,6.2109,6.1953,6.0859,5.9961,6.0156,6.043,6.0508,6.0234,5.957,5.957,6.0078,6.0586,6.0664,6.0976,6.1172,6.1836,6.1953,6.2109,6.2226,6.2226,6.2187,6.2461,6.3008,6.3281,6.332,6.3594,6.3515,6.3594,6.3867,6.4414,6.4805,6.4687,6.4883,6.4414,6.4101,6.4258,6.3867,6.2851,6.3828,6.6094,6.6992,6.7265,6.7187,6.7109,6.789,6.8593,6.8905,6.9138,6.9567,6.9957,6.9724,6.9724,7.023,7.066,7.078,7.0898,7.1211,7.1523,6.0377,6.0377,6.0377,6.0377,6.0377,6.0377,6.0443,6.0484,6.0466,6.0533,6.0623,6.0777,6.0871,6.1336,6.2555,6.3167,6.3387,6.481,6.4591,6.4228,6.3806,6.3245,6.2679,6.2219,6.2165,6.3155,6.3338,6.3204,6.3125,6.4453,6.4766,6.4961,6.5235,6.5586,6.6016,6.6913,6.6723,6.6106,6.5882,6.5771,6.4333,6.5154,6.5781,6.582,6.5547,6.4883,6.5351,6.4687,6.414,6.3984,6.4375,6.4023,6.3476,6.3555,6.3711,6.375,6.3437,6.3125,6.3008,6.1992,6.1562,6.1094,6.1211,6.1172,6.1094,6.082,6.0742,6.1094,6.1484,6.164,6.1367,6.1953,6.2539,6.25,6.2578,6.2773,6.2851,6.289,6.2851,6.3359,6.3672,6.3828,6.418,6.4531,6.4648,6.4805,6.543,6.5859,6.5664,6.5664,6.5351,6.5234,6.539,6.5742,6.4883,6.6211,6.789,6.8203,6.8476,6.8319,6.8163,6.855,6.9173,6.9484,6.9992,7.0615,7.1005,7.1165,7.132,7.1473,7.1557,7.164,7.1758,7.1758,7.1953,6.0377,6.0377,6.0377,6.0377,6.0377,6.0377,6.0418,6.0473,6.048,6.0565,6.0736,6.097,6.1192,6.1647,6.2684,6.3469,6.3719,6.4553,6.486,6.452,6.3891,6.3432,6.2931,6.2597,6.2588,6.2467,6.3023,6.341,6.2579,6.3945,6.4219,6.4181,6.4259,6.4961,6.6133,6.6912,6.7189,6.6727,6.6304,6.6153,6.4563,6.5035,6.5896,6.582,6.543,6.5234,6.5312,6.5039,6.4844,6.5,6.543,6.5781,6.5469,6.5195,6.5195,6.4765,6.4101,6.3437,6.332,6.2773,6.2383,6.168,6.1601,6.164,6.1719,6.1719,6.1445,6.1601,6.2305,6.2578,6.1797,6.2344,6.2812,6.2773,6.332,6.3555,6.375,6.3789,6.3633,6.3711,6.3945,6.4336,6.5234,6.5664,6.5703,6.582,6.6055,6.6406,6.6406,6.6523,6.6758,6.668,6.6758,6.7148,6.7539,6.8203,6.8789,6.9219,6.9408,6.9331,6.9368,6.9677,6.9868,7.0141,7.0764,7.162,7.2049,7.2207,7.2324,7.2402,7.2258,7.1952,7.1953,7.1914,7.2226,6.0415,6.0377,6.0453,6.0415,6.0415,6.0377,6.0457,6.048,6.05,6.0655,6.0928,6.1516,6.1848,6.2095,6.2847,6.3128,6.324,6.3639,6.3763,6.3632,6.3753,6.3693,6.3592,6.3378,6.3281,6.4029,6.4276,6.3891,6.3001,6.4334,6.4334,6.4101,6.4493,6.5313,6.664,6.6796,6.7265,6.7733,6.708,6.6734,6.6154,6.5813,6.6168,6.6209,6.5429,6.5156,6.5117,6.4844,6.4687,6.4922,6.5273,6.5664,6.6015,6.5625,6.5781,6.6211,6.5,6.4336,6.414,6.2656,6.207,6.1797,6.1719,6.1719,6.1719,6.1719,6.1719,6.1758,6.1914,6.1953,6.2031,6.25,6.2969,6.3515,6.4062,6.4492,6.4687,6.4883,6.4765,6.4531,6.457,6.4883,6.6055,6.6836,6.6836,6.6836,6.6875,6.6953,6.7031,6.7265,6.7539,6.789,6.793,6.8086,6.8474,6.9132,6.9687,7.0102,7.0375,7.0339,7.0496,7.0765,7.0917,7.0913,7.1301,7.1924,7.2621,7.3239,7.294,7.2601,7.2258,7.199,7.1991,7.2148,7.2539,6.1172,6.1172,6.1211,6.0874,6.0453,6.0377,6.0457,6.0493,6.0623,6.0986,6.1438,6.1444,6.1609,6.205,6.2326,6.2557,6.2657,6.3202,6.3289,6.2706,6.3183,6.3008,6.3055,6.3525,6.3761,6.3868,6.4215,6.4444,6.3674,6.4735,6.4995,6.4843,6.5313,6.6211,6.6835,6.7187,6.7693,6.7381,6.7308,6.7195,6.6227,6.6316,6.6556,6.6872,6.5702,6.5078,6.4922,6.4492,6.4375,6.4414,6.4648,6.5156,6.5586,6.5351,6.582,6.6055,6.5195,6.4883,6.4492,6.3555,6.2851,6.2265,6.1875,6.1914,6.1719,6.1719,6.1719,6.1797,6.1875,6.207,6.2578,6.3398,6.3984,6.4726,6.5234,6.5625,6.5898,6.6055,6.6055,6.5703,6.5586,6.6133,6.707,6.7578,6.7656,6.7422,6.7344,6.75,6.7617,6.7851,6.8125,6.8672,6.8906,6.9023,6.9332,7.0104,7.0411,7.0607,7.1074,7.1464,7.1658,7.1656,7.1651,7.145,7.18,7.2188,7.2693,7.3047,7.291,7.2609,7.2416,7.2225,7.2226,7.2539,7.3008,6.2044,6.2044,6.2051,6.1593,6.0835,6.053,6.0425,6.0564,6.0642,6.1074,6.1467,6.1325,6.1556,6.1979,6.2101,6.2101,6.2133,6.221,6.2672,6.2095,6.2595,6.2939,6.3261,6.3599,6.4312,6.4333,6.4578,6.4727,6.4532,6.4903,6.5406,6.5971,6.6523,6.664,6.6952,6.7185,6.7732,6.7616,6.7813,6.7267,6.6808,6.6738,6.6823,6.6633,6.6013,6.539,6.4844,6.4453,6.4219,6.4062,6.4336,6.4883,6.5195,6.5625,6.6015,6.6055,6.5664,6.5195,6.4492,6.4258,6.3555,6.293,6.2617,6.2617,6.25,6.2539,6.2617,6.2578,6.2422,6.2812,6.3476,6.4297,6.4961,6.5664,6.6133,6.6523,6.6719,6.6875,6.7187,6.6836,6.6914,6.75,6.7734,6.8164,6.8398,6.8047,6.7773,6.8008,6.8281,6.8555,6.8906,6.9492,6.9805,6.9844,7.0305,7.111,7.1302,7.1189,7.1538,7.1963,7.1961,7.1841,7.1952,7.1987,7.2029,7.2185,7.2497,7.27,7.2753,7.2801,7.2805,7.2614,7.2461,7.3008,7.3711,6.2884,6.2884,6.2884,6.2357,6.1516,6.0835,6.0567,6.0623,6.0654,6.0798,6.0941,6.171,6.1903,6.2018,6.2062,6.1941,6.1864,6.1287,6.1479,6.1941,6.2358,6.3089,6.3935,6.4511,6.5014,6.5643,6.5877,6.5479,6.5395,6.5864,6.6409,6.6669,6.6718,6.6913,6.7031,6.7303,6.7849,6.8122,6.8046,6.7811,6.7777,6.7473,6.744,6.7174,6.6712,6.6169,6.5624,6.5117,6.4961,6.5039,6.5312,6.5898,6.6367,6.6797,6.6836,6.668,6.6055,6.543,6.4922,6.4805,6.4726,6.4414,6.4414,6.4375,6.3984,6.3515,6.3476,6.3711,6.3828,6.4062,6.4492,6.5117,6.5781,6.6328,6.6875,6.7148,6.7344,6.7617,6.8047,6.8164,6.8281,6.8398,6.793,6.8164,6.9219,6.8984,6.8789,6.8945,6.918,6.9336,6.9765,7.043,7.0664,7.0625,7.1162,7.173,7.1801,7.1571,7.1685,7.1993,7.199,7.199,7.1989,7.1987,7.1987,7.2145,7.234,7.2542,7.2747,7.2872,7.3346,7.3468,7.3473,7.4061,7.4764,6.2884,6.2884,6.2884,6.2395,6.1631,6.1325,6.1027,6.0617,6.0649,6.0986,6.1716,6.1325,6.1556,6.2018,6.1441,6.1248,6.1095,6.0973,6.0979,6.1441,6.2281,6.3089,6.3935,6.4788,6.5498,6.5857,6.6007,6.6026,6.6079,6.6556,6.6723,6.6794,6.6796,6.7109,6.7459,6.7732,6.82,6.8513,6.8475,6.8709,6.8868,6.8642,6.845,6.8261,6.8155,6.7574,6.6677,6.6367,6.6015,6.5,6.4844,6.4961,6.4961,6.5625,6.6133,6.6836,6.664,6.6406,6.6172,6.6133,6.6055,6.5937,6.5976,6.5273,6.4726,6.4336,6.4297,6.4648,6.5195,6.5508,6.5742,6.625,6.6992,6.7656,6.8047,6.8203,6.8398,6.8633,6.9062,6.9375,6.9492,6.9492,6.8906,6.9258,7.0156,6.9922,6.9844,6.9961,7.0078,7.0234,7.0469,7.1133,7.1325,7.1244,7.1431,7.1919,7.1953,7.195,7.1987,7.1987,7.1989,7.1989,7.1987,7.2104,7.2221,7.2143,7.2026,7.2464,7.321,7.376,7.4235,7.4359,7.4599,7.5149,7.5542,6.2884,6.2884,6.2884,6.2579,6.2051,6.1402,6.1065,6.0987,6.0738,6.1006,6.1473,6.105,6.1089,6.1402,6.1056,6.0858,6.0819,6.0819,6.0864,6.1204,6.2243,6.2858,6.3705,6.4628,6.541,6.5779,6.599,6.6033,6.6271,6.6535,6.6722,6.6796,6.6796,6.7342,6.7888,6.8396,6.8864,6.9137,6.9333,6.9607,6.9688,6.9654,6.9422,6.9467,6.9481,6.8783,6.8043,6.7851,6.707,6.6015,6.5859,6.5859,6.5937,6.6484,6.6797,6.7383,6.6992,6.6875,6.6719,6.6758,6.6836,6.6914,6.6953,6.6367,6.5898,6.5547,6.5508,6.5664,6.6328,6.6914,6.7187,6.7539,6.8359,6.918,6.9297,6.9414,6.957,6.9726,7.0078,7.0469,7.0664,7.0781,7.0859,7.1094,7.1055,7.0664,7.0703,7.1055,7.1094,7.1172,7.1289,7.164,7.1791,7.1823,7.2007,7.1996,7.1991,7.1987,7.1987,7.1987,7.1987,7.2104,7.2221,7.2378,7.2571,7.2651,7.2807,7.3315,7.3982,7.4534,7.5044,7.5322,7.5602,7.6075,7.6355,6.2541,6.2502,6.2693,6.2617,6.2579,6.1225,6.1002,6.1582,6.0898,6.0705,6.0846,6.0819,6.0819,6.0973,6.0819,6.0781,6.0781,6.0781,6.0781,6.0858,6.1826,6.2551,6.3205,6.416,6.5013,6.559,6.5895,6.6025,6.6181,6.6455,6.6701,6.6792,6.6992,6.7537,6.8396,6.9176,6.9801,7.0426,7.027,7.023,7.0465,7.0154,6.9607,6.9729,6.9783,6.9599,6.9484,6.9333,6.914,6.8555,6.8203,6.8086,6.8086,6.8086,6.8203,6.8008,6.7578,6.7461,6.7305,6.7187,6.7187,6.7187,6.707,6.7148,6.7031,6.6484,6.6328,6.6758,6.7422,6.8125,6.8476,6.875,6.9375,7.0,7.0312,7.0351,7.043,7.0664,7.0937,7.125,7.1367,7.1445,7.1328,7.1406,7.1484,7.1211,7.1289,7.1758,7.1836,7.1836,7.1875,7.1989,7.1985,7.1977,7.2004,7.1994,7.199,7.1987,7.1987,7.1987,7.1987,7.2182,7.2456,7.2885,7.3393,7.3705,7.4017,7.4408,7.4759,7.5269,7.5778,7.6245,7.6602,7.6845,7.6853,6.0019,6.0057,6.0714,6.1325,6.1822,6.1534,6.1151,6.0891,6.0763,6.0748,6.0814,6.0819,6.0781,6.0781,6.0781,6.0781,6.0781,6.0781,6.0781,6.105,6.171,6.2287,6.2749,6.3974,6.4705,6.5051,6.5465,6.6003,6.6252,6.6474,6.6679,6.6868,6.7303,6.8083,6.8942,6.984,7.066,7.1402,7.1324,7.1167,7.1363,7.1558,7.1364,7.129,7.1262,7.0843,7.0653,7.0347,6.9882,6.9336,6.918,6.9101,6.9101,6.918,6.914,6.8984,6.832,6.8164,6.8125,6.7773,6.7617,6.8203,6.8398,6.8437,6.8164,6.7383,6.7265,6.7851,6.8437,6.914,6.9609,6.9844,7.0156,7.0703,7.1172,7.1172,7.1172,7.1445,7.1719,7.1836,7.1953,7.1875,7.1719,7.1719,7.1797,7.1797,7.1797,7.1953,7.1953,7.1914,7.1914,7.1986,7.1984,7.1976,7.2002,7.1993,7.1989,7.1987,7.1987,7.1987,7.2026,7.2612,7.3197,7.3783,7.429,7.4603,7.4876,7.5151,7.558,7.5971,7.6283,7.6672,7.6867,7.711,7.7077,5.8567,5.8689,5.9453,6.0773,6.1917,6.1493,6.1567,6.2119,6.1594,6.1529,6.1698,6.1204,6.0781,6.0819,6.0781,6.0781,6.0781,6.0781,6.0781,6.105,6.1633,6.2287,6.3057,6.3935,6.4782,6.525,6.5589,6.6025,6.6279,6.639,6.6577,6.6936,6.7693,6.8591,6.945,7.027,7.1167,7.1909,7.1987,7.1987,7.1987,7.1987,7.1987,7.1991,7.1883,7.162,7.1551,7.1245,7.078,7.0273,7.0039,7.0,7.0,7.0,7.0,6.9648,6.9062,6.8555,6.8828,6.8633,6.8203,6.8906,6.9219,6.9101,6.9101,6.8476,6.8555,6.9023,6.8945,6.9531,6.9531,6.9687,7.0156,7.0664,7.0859,7.0937,7.1172,7.1484,7.1719,7.1914,7.1992,7.1953,7.1875,7.1875,7.1914,7.1914,7.1992,7.1992,7.1992,7.1992,7.1987,7.1982,7.1978,7.201,7.1996,7.199,7.1989,7.1987,7.2026,7.2378,7.269,7.3393,7.4017,7.4681,7.5188,7.5423,7.5697,7.5971,7.6205,7.6555,7.6789,7.7023,7.7179,7.7414,7.7616,5.7695,5.8001,5.8657,6.038,6.2286,6.1196,6.1728,6.3354,6.2464,6.2265,6.2737,6.1556,6.1018,6.0941,6.0781,6.0781,6.0781,6.0781,6.0781,6.1012,6.171,6.221,6.3051,6.4051,6.4897,6.5513,6.5839,6.6067,6.6307,6.6366,6.6582,6.7044,6.781,6.8708,6.9567,7.0426,7.1363,7.1831,7.1987,7.1987,7.1987,7.1987,7.1987,7.1993,7.1999,7.2009,7.1979,7.1869,7.1482,7.125,7.0859,7.0859,7.0859,7.0859,7.0859,7.0547,6.9648,6.9492,6.957,6.9101,6.9258,6.9609,6.9648,6.9726,6.9765,6.9922,7.0,6.9961,6.9883,6.9726,6.9726,6.9922,7.043,7.0625,7.0742,7.0937,7.125,7.1562,7.1758,7.1992,7.1992,7.1992,7.1992,7.1992,7.1992,7.1992,7.1992,7.1992,7.1992,7.1992,7.1985,7.1978,7.2011,7.2001,7.1989,7.1987,7.1987,7.2143,7.226,7.2807,7.3393,7.4212,7.4993,7.5658,7.6088,7.6205,7.6438,7.6711,7.6945,7.6984,7.7023,7.7179,7.761,7.7884,7.8274,5.6664,5.7893,5.8137,5.9318,6.0844,6.0719,6.0974,6.135,6.1284,6.1506,6.2204,6.2172,6.1826,6.1826,6.1056,6.0858,6.0979,6.0896,6.0781,6.0935,6.171,6.2133,6.2903,6.4205,6.5051,6.5602,6.5933,6.6056,6.6361,6.6414,6.6849,6.7763,6.8708,6.9567,7.0385,7.1167,7.1714,7.1987,7.1987,7.1987,7.1987,7.1987,7.1987,7.199,7.1991,7.2,7.2009,7.1978,7.1908,7.1795,7.168,7.164,7.1601,7.1562,7.1562,7.1211,7.0351,7.0351,7.0234,6.9609,6.9765,7.0547,7.0664,7.0703,7.0898,7.1211,7.125,7.125,7.1094,7.0703,7.0703,7.0976,7.1367,7.1094,7.1055,7.1328,7.164,7.1797,7.1914,7.1992,7.1992,7.1992,7.1992,7.1992,7.1992,7.1992,7.1992,7.1992,7.1992,7.1992,7.1982,7.2015,7.2006,7.1996,7.1987,7.2026,7.2065,7.2221,7.2768,7.3627,7.4486,7.519,7.5932,7.64,7.6673,7.6789,7.7062,7.7101,7.7062,7.7062,7.7062,7.7257,7.7805,7.8391,7.8859]}]]